[[{"header":{"parameterUnit":"m.s-1","parameterCategory":1,"la1":31.0,"la2":29.5877,"lo1":-88.7671,"lo2":-86.6584,"dx":0.0162,"dy":0.0185,"nx":115,"ny":88,"refTime":"2022-12-08T18:00:00:Z","depth":0,"parameterNumber":2,"parameterNumberName":"U-component_of_WINDS"},"data":[0.0,0.0,0.0,0.0,0.0,0.0,0.0,0.0,0.0,0.0,0.0,0.0,0.0,0.0,0.0,0.0,0.0,0.0,0.0,0.0,0.0,0.0,0.0,0.0,0.0,0.0,0.0,0.0,0.0,0.0,0.0,0.0,0.0,0.0,0.0,0.0,0.0,0.0,0.0,0.0,0.0,0.0,0.0,0.0,0.0,0.0,0.0,0.0,0.0,0.0,0.0,0.0,0.0,0.0,0.0,0.0,0.0,0.0,0.0,0.0,0.0,0.0,0.0,0.0,0.0,0.0,0.0,0.0,0.0,0.0,0.0,0.0,0.0,0.0,0.0,0.0,0.0,0.0,0.0,0.0,0.0,0.0,0.0,0.0,0.0,0.0,0.0,0.0,0.0,0.0,0.0,0.0,0.0,0.0,0.0,0.0,0.0,0.0,0.0,0.0,0.0,0.0,0.0,0.0,0.0,0.0,0.0,0.0,0.0,0.0,0.0,0.0,0.0,0.0,0.0,0.0,0.0,0.0,0.0,0.0,0.0,0.0,0.0,0.0,0.0,0.0,0.0,0.0,0.0,0.0,0.0,0.0,0.0,0.0,0.0,0.0,0.0,0.0,0.0,0.0,0.0,0.0,0.0,0.0,0.0,0.0,0.0,0.0,0.0,0.0,0.0,0.0,0.0,0.0,0.0,0.0,0.0,0.0,0.0,0.0,0.0,0.0,0.0,0.0,0.0,0.0,0.0,0.0,0.0,0.0,0.0,0.0,0.0,0.0,0.0,0.0,0.0,0.0,0.0,0.0,0.0,0.0,0.0,0.0,0.0,0.0,0.0,0.0,0.0,0.0,0.0,0.0,0.0,0.0,0.0,0.0,0.0,0.0,0.0,0.0,0.0,0.0,0.0,0.0,0.0,0.0,0.0,0.0,0.0,0.0,0.0,0.0,0.0,0.0,0.0,0.0,0.0,0.0,0.0,0.0,0.0,0.0,0.0,0.0,0.0,0.0,0.0,0.0,0.0,0.0,0.0,0.0,0.0,0.0,0.0,0.0,0.0,0.0,0.0,0.0,0.0,0.0,0.0,0.0,0.0,0.0,0.0,0.0,0.0,0.0,0.0,0.0,0.0,0.0,0.0,0.0,0.0,0.0,0.0,0.0,0.0,0.0,0.0,0.0,0.0,0.0,0.0,0.0,0.0,0.0,0.0,0.0,0.0,0.0,0.0,0.0,0.0,0.0,0.0,0.0,0.0,0.0,0.0,0.0,0.0,0.0,0.0,0.0,0.0,0.0,0.0,0.0,0.0,0.0,0.0,0.0,0.0,0.0,0.0,0.0,0.0,0.0,0.0,0.0,0.0,0.0,0.0,0.0,0.0,0.0,0.0,0.0,0.0,0.0,0.0,0.0,0.0,0.0,0.0,0.0,0.0,0.0,0.0,0.0,0.0,0.0,0.0,0.0,0.0,0.0,0.0,0.0,0.0,0.0,0.0,0.0,0.0,0.0,0.0,0.0,0.0,0.0,0.0,0.0,0.0,0.0,0.0,0.0,0.0,0.0,0.0,0.0,0.0,0.0,0.0,0.0,0.0,0.0,0.0,0.0,0.0,0.0,0.0,0.0,0.0,0.0,0.0,0.0,0.0,0.0,0.0,0.0,0.0,0.0,0.0,0.0,0.0,0.0,0.0,0.0,0.0,0.0,0.0,0.0,0.0,0.0,0.0,0.0,0.0,0.0,0.0,0.0,0.0,0.0,0.0,0.0,0.0,0.0,0.0,0.0,0.0,0.0,0.0,0.0,0.0,0.0,0.0,0.0,0.0,0.0,0.0,0.0,0.0,0.0,0.0,0.0,0.0,0.0,0.0,0.0,0.0,0.0,0.0,0.0,0.0,0.0,0.0,0.0,0.0,0.0,0.0,0.0,0.0,0.0,0.0,0.0,0.0,0.0,0.0,0.0,0.0,0.0,0.0,0.0,0.0,0.0,0.0,0.0,0.0,0.0,0.0,0.0,0.0,0.0,0.0,0.0,0.0,0.0,0.0,0.0,0.0,0.0,0.0,0.0,0.0,0.0,0.0,0.0,0.0,0.0,0.0,0.0,0.0,0.0,0.0,0.0,0.0,0.0,0.0,0.0,0.0,0.0,0.0,0.0,0.0,0.0,0.0,0.0,0.0,0.0,0.0,0.0,0.0,0.0,0.0,0.0,0.0,0.0,0.0,0.0,0.0,0.0,0.0,0.0,0.0,0.0,0.0,0.0,0.0,0.0,0.0,0.0,0.0,0.0,0.0,0.0,0.0,0.0,0.0,0.0,0.0,0.0,0.0,0.0,0.0,0.0,0.0,0.0,0.0,0.0,0.0,0.0,0.0,0.0,0.0,0.0,0.0,0.0,0.0,0.0,0.0,0.0,0.0,0.0,0.0,0.0,0.0,0.0,0.0,0.0,0.0,0.0,0.0,0.0,0.0,0.0,0.0,0.0,0.0,0.0,0.0,0.0,0.0,0.0,0.0,0.0,0.0,0.0,0.0,0.0,0.0,0.0,0.0,0.0,0.0,0.0,0.0,0.0,0.0,0.0,0.0,0.0,0.0,0.0,0.0,0.0,0.0,0.0,0.0,0.0,0.0,0.0,0.0,0.0,0.0,0.0,0.0,0.0,0.0,0.0,0.0,0.0,0.0,0.0,0.0,0.0,0.0,0.0,0.0,0.0,0.0,0.0,0.0,0.0,0.0,0.0,0.0,0.0,0.0,0.0,0.0,0.0,0.0,0.0,0.0,0.0,0.0,0.0,0.0,0.0,0.0,0.0,0.0,0.0,0.0,0.0,0.0,0.0,0.0,0.0,0.0,0.0,0.0,0.0,0.0,0.0,0.0,0.0,0.0,0.0,0.0,0.0,0.0,0.0,0.0,0.0,0.0,0.0,0.0,0.0,0.0,0.0,0.0,0.0,0.0,0.0,0.0,0.0,0.0,0.0,0.0,0.0,0.0,0.0,0.0,0.0,0.0,0.0,0.0,0.0,0.0,0.0,0.0,0.0,0.0,0.0,0.0,0.0,0.0,0.0,0.0,0.0,0.0,0.0,0.0,0.0,0.0,0.0,0.0,0.0,0.0,0.0,0.0,0.0,0.0,0.0,0.0,0.0,0.0,0.0,0.0,0.0,0.0,0.0,0.0,0.0,0.0,0.0,0.0,0.0,0.0,0.0,0.0,0.0,0.0,0.0,0.0,0.0,0.0,0.0,0.0,0.0,0.0,0.0,0.0,0.0,0.0,0.0,0.0,0.0,0.0,0.0,0.0,0.0,0.0,0.0,0.0,0.0,0.0,0.0,0.0,0.0,0.0,0.0,0.0,0.0,0.0,0.0,0.0,0.0,0.0,0.0,0.0,0.0,0.0,0.0,0.0,0.0,0.0,0.0,0.0,0.0,0.0,0.0,0.0,0.0,0.0,0.0,0.0,0.0,0.0,0.0,0.0,0.0,0.0,0.0,0.0,0.0,0.0,0.0,0.0,0.0,0.0,0.0,0.0,0.0,0.0,0.0,0.0,0.0,0.0,0.0,0.0,0.0,0.0,0.0,0.0,0.0,0.0,0.0,0.0,0.0,0.0,0.0,0.0,0.0,0.0,0.0,0.0,0.0,0.0,0.0,0.0,0.0,0.0,0.0,0.0,0.0,0.0,0.0,0.0,0.0,0.0,0.0,0.0,0.0,0.0,0.0,0.0,0.0,0.0,0.0,0.0,0.0,0.0,0.0,0.0,0.0,0.0,0.0,0.0,0.0,0.0,0.0,0.0,0.0,0.0,0.0,0.0,0.0,0.0,0.0,0.0,0.0,0.0,0.0,0.0,0.0,0.0,0.0,0.0,0.0,0.0,0.0,0.0,0.0,0.0,0.0,0.0,0.0,0.0,0.0,0.0,0.0,0.0,0.0,0.0,0.0,0.0,0.0,0.0,0.0,0.0,0.0,0.0,0.0,0.0,0.0,0.0,0.0,0.0,0.0,0.0,0.0,0.0,0.0,0.0,0.0,0.0,0.0,0.0,0.0,0.0,0.0,0.0,0.0,0.0,0.0,0.0,0.0,0.0,0.0,0.0,0.0,0.0,0.0,0.0,0.0,0.0,0.0,0.0,0.0,0.0,0.0,0.0,0.0,0.0,0.0,0.0,0.0,0.0,0.0,0.0,0.0,0.0,0.0,0.0,0.0,0.0,0.0,0.0,0.0,0.0,0.0,0.0,0.0,0.0,0.0,0.0,0.0,0.0,0.0,-0.8592,0.0,0.0,0.0,-0.8387,0.0,0.0,0.0,0.0,0.0,0.0,0.0,0.0,0.0,0.0,0.0,0.0,0.0,0.0,0.0,0.0,0.0,0.0,0.0,0.0,0.0,0.0,0.0,0.0,0.0,0.0,0.0,0.0,0.0,0.0,0.0,0.0,0.0,0.0,0.0,0.0,0.0,0.0,0.0,0.0,0.0,0.0,0.0,0.0,0.0,0.0,0.0,0.0,0.0,0.0,0.0,0.0,0.0,0.0,0.0,0.0,0.0,0.0,0.0,0.0,0.0,0.0,0.0,0.0,0.0,0.0,0.0,0.0,0.0,0.0,0.0,0.0,0.0,0.0,0.0,0.0,0.0,0.0,0.0,0.0,0.0,0.0,0.0,0.0,0.0,0.0,0.0,0.0,0.0,0.0,0.0,0.0,0.0,0.0,0.0,0.0,0.0,0.0,0.0,0.0,0.0,0.0,0.0,0.0,0.0,0.0,0.0,0.0,0.0,0.0,-0.8508,-0.8508,-0.8508,-0.8467,-0.8387,0.0,0.0,0.0,0.0,0.0,0.0,0.0,0.0,0.0,0.0,0.0,0.0,0.0,0.0,0.0,0.0,0.0,0.0,0.0,0.0,0.0,0.0,0.0,0.0,0.0,0.0,0.0,0.0,0.0,0.0,0.0,0.0,0.0,0.0,0.0,0.0,0.0,0.0,0.0,0.0,0.0,0.0,0.0,0.0,0.0,0.0,0.0,0.0,0.0,0.0,0.0,0.0,0.0,0.0,0.0,0.0,0.0,0.0,0.0,0.0,0.0,0.0,0.0,0.0,0.0,0.0,0.0,0.0,0.0,0.0,0.0,0.0,0.0,0.0,0.0,0.0,0.0,0.0,0.0,0.0,0.0,0.0,0.0,0.0,0.0,0.0,0.0,0.0,0.0,0.0,0.0,0.0,0.0,0.0,0.0,0.0,0.0,0.0,0.0,0.0,0.0,0.0,0.0,0.0,0.0,0.0,0.0,0.0,0.0,0.0,0.0,0.0,-0.8508,-0.8454,-0.8374,0.0,0.0,0.0,0.0,0.0,0.0,0.0,0.0,0.0,0.0,0.0,0.0,0.0,0.0,0.0,0.0,0.0,0.0,0.0,0.0,0.0,0.0,0.0,0.0,0.0,0.0,0.0,0.0,0.0,0.0,0.0,0.0,0.0,0.0,0.0,0.0,0.0,0.0,0.0,0.0,0.0,0.0,0.0,0.0,0.0,0.0,0.0,0.0,0.0,0.0,0.0,0.0,0.0,0.0,0.0,0.0,0.0,0.0,0.0,0.0,0.0,0.0,0.0,0.0,0.0,0.0,0.0,0.0,0.0,0.0,0.0,0.0,0.0,0.0,0.0,0.0,0.0,0.0,0.0,0.0,0.0,0.0,0.0,0.0,0.0,0.0,0.0,0.0,0.0,0.0,0.0,0.0,0.0,0.0,0.0,0.0,0.0,0.0,0.0,0.0,0.0,0.0,0.0,0.0,0.0,0.0,0.0,0.0,0.0,0.0,-0.8508,-0.8508,-0.8524,0.0,-0.8322,0.0,0.0,0.0,0.0,0.0,0.0,0.0,0.0,0.0,0.0,0.0,0.0,0.0,0.0,0.0,0.0,0.0,0.0,0.0,0.0,0.0,0.0,0.0,0.0,0.0,0.0,0.0,0.0,0.0,0.0,0.0,0.0,0.0,0.0,0.0,0.0,0.0,0.0,0.0,0.0,0.0,0.0,0.0,0.0,0.0,0.0,0.0,0.0,0.0,0.0,0.0,0.0,0.0,0.0,0.0,0.0,0.0,0.0,0.0,0.0,0.0,0.0,0.0,0.0,0.0,0.0,0.0,0.0,0.0,0.0,0.0,0.0,0.0,0.0,0.0,0.0,0.0,0.0,0.0,0.0,0.0,0.0,0.0,0.0,0.0,0.0,0.0,0.0,0.0,0.0,0.0,0.0,0.0,0.0,0.0,0.0,0.0,0.0,0.0,0.0,0.0,0.0,0.0,0.0,0.0,0.0,0.0,0.0,0.0,0.0,-0.8718,-0.9151,-0.911,-0.8847,0.0,0.0,0.0,0.0,0.0,0.0,0.0,0.0,0.0,0.0,0.0,0.0,0.0,0.0,0.0,0.0,0.0,0.0,0.0,0.0,0.0,0.0,0.0,0.0,0.0,0.0,0.0,0.0,0.0,0.0,0.0,0.0,0.0,0.0,0.0,0.0,0.0,0.0,0.0,0.0,0.0,0.0,0.0,0.0,0.0,0.0,0.0,0.0,0.0,0.0,0.0,0.0,0.0,0.0,0.0,0.0,0.0,0.0,0.0,0.0,0.0,0.0,0.0,0.0,0.0,0.0,0.0,0.0,0.0,0.0,0.0,0.0,0.0,0.0,0.0,0.0,0.0,0.0,0.0,0.0,0.0,0.0,0.0,0.0,0.0,0.0,0.0,0.0,0.0,0.0,0.0,0.0,0.0,0.0,0.0,0.0,0.0,0.0,0.0,0.0,0.0,0.0,0.0,0.0,0.0,0.0,0.0,0.0,0.0,0.0,-0.8673,-0.9041,-0.9555,-0.9545,-0.9121,-0.8325,0.0,0.0,0.0,0.0,0.0,0.0,0.0,0.0,0.0,0.0,0.0,0.0,0.0,0.0,0.0,0.0,0.0,0.0,0.0,0.0,0.0,0.0,0.0,0.0,0.0,0.0,0.0,0.0,0.0,0.0,0.0,0.0,0.0,0.0,0.0,0.0,0.0,0.0,0.0,0.0,0.0,0.0,0.0,0.0,0.0,0.0,0.0,0.0,0.0,0.0,0.0,0.0,0.0,0.0,0.0,0.0,0.0,0.0,0.0,0.0,0.0,0.0,0.0,0.0,0.0,0.0,0.0,0.0,0.0,0.0,0.0,0.0,0.0,0.0,0.0,0.0,0.0,0.0,0.0,0.0,0.0,0.0,0.0,0.0,0.0,0.0,0.0,0.0,0.0,0.0,0.0,0.0,0.0,0.0,0.0,0.0,0.0,0.0,0.0,0.0,0.0,0.0,0.0,0.0,0.0,0.0,0.0,0.0,-0.8528,-0.9124,-0.9509,-0.962,-0.9515,-0.9121,0.0,0.0,0.0,0.0,0.0,0.0,0.0,0.0,0.0,0.0,0.0,0.0,0.0,0.0,0.0,0.0,0.0,0.0,0.0,0.0,0.0,0.0,0.0,0.0,0.0,0.0,0.0,0.0,0.0,0.0,0.0,0.0,0.0,0.0,0.0,0.0,0.0,0.0,0.0,0.0,0.0,0.0,0.0,0.0,0.0,0.0,0.0,0.0,0.0,0.0,0.0,0.0,0.0,0.0,0.0,0.0,0.0,0.0,0.0,0.0,0.0,0.0,0.0,0.0,0.0,0.0,0.0,0.0,0.0,0.0,0.0,0.0,0.0,0.0,0.0,0.0,0.0,0.0,0.0,0.0,0.0,0.0,0.0,0.0,0.0,0.0,0.0,0.0,0.0,0.0,0.0,0.0,0.0,0.0,0.0,0.0,0.0,0.0,0.0,0.0,0.0,0.0,0.0,0.0,0.0,0.0,0.0,0.0,0.0,-0.9105,-1.027,-1.072,-1.0331,-1.0252,-0.9839,0.0,0.0,0.0,0.0,0.0,0.0,0.0,0.0,0.0,0.0,0.0,0.0,0.0,0.0,0.0,0.0,0.0,0.0,0.0,0.0,0.0,0.0,0.0,0.0,0.0,0.0,0.0,0.0,0.0,0.0,0.0,0.0,0.0,0.0,0.0,0.0,0.0,0.0,0.0,0.0,0.0,0.0,0.0,0.0,0.0,0.0,0.0,0.0,0.0,0.0,0.0,0.0,0.0,0.0,0.0,0.0,0.0,0.0,0.0,0.0,0.0,0.0,0.0,0.0,0.0,0.0,0.0,0.0,0.0,0.0,0.0,0.0,0.0,0.0,0.0,0.0,0.0,0.0,0.0,0.0,0.0,0.0,0.0,0.0,0.0,0.0,0.0,0.0,0.0,0.0,0.0,0.0,0.0,0.0,0.0,0.0,0.0,0.0,0.0,0.0,0.0,0.0,0.0,0.0,0.0,0.0,0.0,0.0,0.0,-1.0049,-1.1121,-1.1479,-1.0994,-1.072,-1.0255,0.0,0.0,0.0,0.0,0.0,0.0,0.0,0.0,0.0,0.0,0.0,0.0,0.0,0.0,0.0,0.0,0.0,0.0,0.0,0.0,0.0,0.0,0.0,0.0,0.0,0.0,0.0,0.0,0.0,0.0,0.0,0.0,0.0,0.0,0.0,0.0,0.0,0.0,0.0,0.0,0.0,0.0,0.0,0.0,0.0,0.0,0.0,0.0,0.0,0.0,0.0,0.0,0.0,0.0,0.0,0.0,0.0,0.0,0.0,0.0,0.0,0.0,0.0,0.0,0.0,0.0,0.0,0.0,0.0,0.0,0.0,0.0,0.0,0.0,0.0,0.0,0.0,0.0,0.0,0.0,0.0,0.0,0.0,0.0,0.0,0.0,0.0,0.0,0.0,0.0,0.0,0.0,0.0,0.0,0.0,0.0,0.0,0.0,0.0,0.0,0.0,0.0,0.0,0.0,0.0,0.0,0.0,0.0,-0.9935,-1.1345,-1.1615,-1.1733,-1.1599,-1.1025,-1.0351,0.0,0.0,0.0,0.0,0.0,0.0,0.0,0.0,0.0,0.0,0.0,0.0,0.0,0.0,0.0,0.0,0.0,0.0,0.0,0.0,0.0,0.0,0.0,0.0,0.0,0.0,0.0,0.0,0.0,0.0,0.0,0.0,0.0,0.0,0.0,0.0,0.0,0.0,0.0,0.0,0.0,0.0,0.0,0.0,0.0,0.0,0.0,0.0,0.0,0.0,0.0,0.0,0.0,0.0,0.0,0.0,0.0,0.0,0.0,0.0,0.0,0.0,0.0,0.0,0.0,0.0,0.0,0.0,0.0,0.0,0.0,0.0,0.0,0.0,0.0,0.0,0.0,0.0,0.0,0.0,0.0,0.0,0.0,0.0,0.0,0.0,0.0,0.0,0.0,0.0,0.0,0.0,0.0,0.0,0.0,0.0,0.0,0.0,0.0,0.0,0.0,0.0,0.0,0.0,0.0,0.0,0.0,0.0,0.0,-1.2058,-1.2645,-1.2979,-1.3023,-1.231,-1.1365,0.0,0.0,0.0,0.0,0.0,0.0,0.0,0.0,0.0,0.0,0.0,0.0,0.0,0.0,0.0,0.0,0.0,0.0,0.0,0.0,0.0,0.0,0.0,0.0,0.0,0.0,0.0,0.0,0.0,0.0,0.0,0.0,0.0,0.0,0.0,0.0,0.0,0.0,0.0,0.0,0.0,0.0,0.0,0.0,0.0,0.0,0.0,0.0,0.0,0.0,0.0,0.0,0.0,0.0,0.0,0.0,0.0,0.0,0.0,0.0,0.0,0.0,0.0,0.0,0.0,0.0,0.0,0.0,0.0,0.0,0.0,0.0,0.0,0.0,0.0,0.0,0.0,0.0,0.0,0.0,0.0,0.0,0.0,0.0,0.0,0.0,0.0,0.0,0.0,0.0,0.0,0.0,0.0,0.0,0.0,0.0,0.0,0.0,0.0,0.0,0.0,0.0,0.0,0.0,0.0,0.0,0.0,0.0,0.0,-1.3582,-1.3758,-1.3845,-1.3974,-1.2984,-1.2046,-1.1077,0.0,0.0,0.0,0.0,0.0,0.0,0.0,0.0,0.0,0.0,0.0,0.0,0.0,0.0,0.0,0.0,0.0,0.0,0.0,0.0,0.0,0.0,0.0,0.0,0.0,0.0,0.0,0.0,0.0,0.0,0.0,0.0,0.0,0.0,0.0,0.0,0.0,0.0,0.0,0.0,0.0,0.0,0.0,0.0,0.0,0.0,0.0,0.0,0.0,0.0,0.0,0.0,0.0,0.0,0.0,0.0,0.0,0.0,0.0,0.0,0.0,0.0,0.0,0.0,0.0,0.0,0.0,0.0,0.0,0.0,0.0,0.0,0.0,0.0,0.0,0.0,0.0,0.0,0.0,0.0,0.0,0.0,0.0,0.0,0.0,0.0,0.0,0.0,0.0,0.0,0.0,0.0,0.0,0.0,0.0,0.0,0.0,0.0,0.0,0.0,0.0,0.0,0.0,0.0,0.0,0.0,0.0,0.0,-1.5651,-1.4903,-1.4488,-1.4498,-1.3218,-1.2396,0.0,0.0,0.0,0.0,0.0,0.0,0.0,0.0,0.0,0.0,0.0,0.0,0.0,0.0,0.0,0.0,0.0,0.0,0.0,0.0,0.0,0.0,0.0,0.0,0.0,0.0,0.0,0.0,0.0,0.0,0.0,0.0,0.0,0.0,0.0,0.0,0.0,0.0,0.0,0.0,0.0,0.0,0.0,0.0,0.0,0.0,0.0,0.0,0.0,0.0,0.0,0.0,0.0,0.0,0.0,0.0,0.0,0.0,0.0,0.0,0.0,0.0,0.0,0.0,0.0,0.0,0.0,0.0,0.0,0.0,0.0,0.0,0.0,0.0,0.0,0.0,0.0,0.0,0.0,0.0,0.0,0.0,0.0,0.0,0.0,0.0,0.0,0.0,0.0,0.0,0.0,0.0,0.0,0.0,0.0,0.0,0.0,0.0,0.0,0.0,0.0,0.0,0.0,0.0,0.0,0.0,0.0,0.0,0.0,-1.5374,-1.6172,-1.6292,-1.5641,-1.436,-1.3129,0.0,0.0,0.0,0.0,0.0,0.0,0.0,0.0,0.0,0.0,0.0,0.0,0.0,0.0,0.0,0.0,0.0,0.0,0.0,0.0,0.0,0.0,0.0,0.0,0.0,0.0,0.0,0.0,0.0,0.0,0.0,0.0,0.0,0.0,0.0,0.0,0.0,0.0,0.0,0.0,0.0,0.0,0.0,0.0,0.0,0.0,0.0,0.0,0.0,0.0,0.0,0.0,0.0,0.0,0.0,0.0,0.0,0.0,0.0,0.0,0.0,0.0,0.0,0.0,0.0,0.0,0.0,0.0,0.0,0.0,0.0,0.0,0.0,0.0,0.0,0.0,0.0,0.0,0.0,0.0,0.0,0.0,0.0,0.0,0.0,0.0,0.0,0.0,0.0,0.0,0.0,0.0,0.0,0.0,0.0,0.0,0.0,0.0,0.0,0.0,0.0,0.0,0.0,0.0,0.0,0.0,0.0,0.0,-1.4566,-1.5891,-1.6789,-1.7169,-1.7044,-1.5553,-1.4106,0.0,0.0,0.0,0.0,0.0,0.0,0.0,0.0,0.0,0.0,0.0,0.0,0.0,0.0,0.0,0.0,0.0,0.0,0.0,0.0,0.0,0.0,0.0,0.0,0.0,0.0,0.0,0.0,0.0,0.0,0.0,0.0,0.0,0.0,0.0,0.0,0.0,0.0,0.0,0.0,0.0,0.0,0.0,0.0,0.0,0.0,0.0,0.0,0.0,0.0,0.0,0.0,0.0,0.0,0.0,0.0,0.0,0.0,0.0,0.0,0.0,0.0,0.0,0.0,0.0,0.0,0.0,0.0,0.0,0.0,0.0,0.0,0.0,0.0,0.0,0.0,0.0,0.0,0.0,0.0,0.0,0.0,0.0,0.0,0.0,0.0,0.0,0.0,0.0,0.0,0.0,0.0,0.0,0.0,0.0,0.0,0.0,0.0,0.0,0.0,0.0,0.0,0.0,0.0,0.0,0.0,0.0,0.0,-1.4651,-1.6697,-1.7021,-1.7496,-1.8141,-1.6585,-1.5046,0.0,0.0,0.0,0.0,0.0,0.0,0.0,0.0,0.0,0.0,0.0,0.0,0.0,0.0,0.0,0.0,0.0,0.0,0.0,0.0,0.0,0.0,0.0,0.0,0.0,0.0,0.0,0.0,0.0,0.0,0.0,0.0,0.0,0.0,0.0,0.0,0.0,0.0,0.0,0.0,0.0,0.0,0.0,0.0,0.0,0.0,0.0,0.0,0.0,0.0,0.0,0.0,0.0,0.0,0.0,0.0,0.0,0.0,0.0,0.0,0.0,0.0,0.0,0.0,0.0,0.0,0.0,0.0,0.0,0.0,0.0,0.0,0.0,0.0,0.0,0.0,0.0,0.0,0.0,0.0,0.0,0.0,0.0,0.0,0.0,0.0,0.0,0.0,0.0,0.0,0.0,0.0,0.0,0.0,0.0,0.0,0.0,0.0,0.0,0.0,0.0,0.0,0.0,0.0,0.0,0.0,0.0,0.0,-1.4781,-1.6366,-1.7479,-1.7989,-1.7819,-1.63,-1.5067,0.0,0.0,0.0,0.0,0.0,0.0,0.0,0.0,0.0,0.0,0.0,0.0,0.0,0.0,0.0,0.0,0.0,0.0,0.0,0.0,0.0,0.0,0.0,0.0,0.0,0.0,0.0,0.0,0.0,0.0,0.0,0.0,0.0,0.0,0.0,0.0,0.0,0.0,0.0,0.0,0.0,0.0,0.0,0.0,0.0,0.0,0.0,0.0,-0.2212,0.0,0.0,0.0,0.0,0.0,0.0,0.0,0.0,0.0,0.0,0.0,0.0,0.0,0.0,0.0,0.0,0.0,0.0,0.0,0.0,0.0,0.0,0.0,0.0,0.0,0.0,0.0,0.0,0.0,0.0,0.0,0.0,0.0,0.0,0.0,0.0,0.0,0.0,0.0,0.0,0.0,0.0,0.0,0.0,0.0,0.0,0.0,0.0,0.0,0.0,0.0,0.0,0.0,0.0,0.0,0.0,0.0,0.0,0.0,-1.4977,-1.641,-1.7575,-1.8087,-1.7894,-1.6618,-1.5339,0.0,0.0,0.0,0.0,0.0,0.0,0.0,0.0,0.0,0.0,0.0,0.0,0.0,0.0,0.0,0.0,0.0,0.0,0.0,0.0,0.0,0.0,0.0,0.0,0.0,0.0,0.0,0.0,0.0,0.0,0.0,0.0,0.0,0.0,0.0,0.0,0.0,0.0,0.0,0.0,0.0,0.0,0.0,0.0,0.0,0.0,0.0,0.0,0.0,0.0,0.0,0.0,0.0,0.0,0.0,0.0,0.0,0.0,0.0,0.0,0.0,0.0,0.0,0.0,0.0,0.0,0.0,0.0,0.0,0.0,0.0,0.0,0.0,0.0,0.0,0.0,0.0,0.0,0.0,0.0,0.0,0.0,0.0,0.0,0.0,0.0,0.0,0.0,0.0,0.0,0.0,0.0,0.0,0.0,0.0,0.0,0.0,0.0,0.0,0.0,0.0,0.0,0.0,0.0,0.0,0.0,0.0,-1.3818,-1.5175,-1.6626,-1.7464,-1.8016,-1.8233,-1.7042,-1.5652,-1.3988,0.0,0.0,0.0,0.0,0.0,0.0,0.0,0.0,0.0,0.0,0.0,0.0,0.0,0.0,0.0,0.0,0.0,0.0,0.0,0.0,0.0,0.0,0.0,0.0,0.0,0.0,0.0,0.0,0.0,0.0,0.0,0.0,0.0,0.0,0.0,0.0,0.0,0.0,-0.1946,-0.1947,0.0,0.0,0.0,0.0,0.0,0.0,0.0,0.0,-0.2116,0.0,0.0,0.0,0.0,0.0,0.0,0.0,0.0,0.0,0.0,0.0,0.0,0.0,0.0,0.0,0.0,0.0,0.0,0.0,0.0,0.0,0.0,0.0,0.0,0.0,0.0,0.0,0.0,0.0,0.0,0.0,0.0,0.0,0.0,0.0,0.0,0.0,0.0,0.0,0.0,0.0,0.0,0.0,0.0,0.0,0.0,0.0,0.0,0.0,0.0,0.0,0.0,0.0,0.0,0.0,0.0,-1.2172,-1.3483,-1.5069,-1.6892,-1.7297,-1.7824,-1.8476,-1.6896,-1.5432,-1.4151,0.0,0.0,0.0,0.0,0.0,0.0,0.0,0.0,0.0,0.0,0.0,0.0,0.0,0.0,0.0,0.0,0.0,0.0,0.0,0.0,0.0,0.0,0.0,0.0,0.0,0.0,0.0,0.0,0.0,0.0,0.0,0.0,0.0,0.0,0.0,0.0,0.0,0.0,0.0,-0.1979,-0.2095,0.0,0.0,0.0,0.0,0.0,0.0,0.0,0.0,-0.2025,0.0,0.0,0.0,0.0,0.0,0.0,0.0,0.0,0.0,0.0,0.0,0.0,0.0,0.0,0.0,0.0,0.0,0.0,0.0,0.0,0.0,0.0,0.0,0.0,0.0,0.0,0.0,0.0,0.0,0.0,0.0,0.0,0.0,0.0,0.0,0.0,0.0,0.0,0.0,0.0,0.0,0.0,0.0,0.0,0.0,0.0,0.0,0.0,0.0,0.0,0.0,0.0,0.0,0.0,0.0,-1.2285,-1.3643,-1.5212,-1.7004,-1.7102,-1.7486,-1.8213,-1.6612,-1.5225,0.0,0.0,0.0,0.0,0.0,0.0,0.0,0.0,0.0,0.0,0.0,0.0,0.0,0.0,0.0,0.0,0.0,0.0,0.0,0.0,0.0,0.0,0.0,0.0,0.0,0.0,0.0,0.0,0.0,0.0,0.0,0.0,0.0,0.0,0.0,0.0,0.0,0.0,0.0,0.0,-0.2098,-0.2251,-0.2366,0.0,0.0,0.0,0.0,0.0,0.0,-0.2141,-0.1965,0.0,0.0,0.0,0.0,0.0,0.0,0.0,0.0,0.0,0.0,0.0,0.0,0.0,0.0,0.0,0.0,0.0,0.0,0.0,0.0,0.0,0.0,0.0,0.0,0.0,0.0,0.0,0.0,0.0,0.0,0.0,0.0,0.0,0.0,0.0,0.0,0.0,0.0,0.0,0.0,0.0,0.0,0.0,0.0,0.0,0.0,0.0,0.0,0.0,0.0,0.0,0.0,0.0,0.0,0.0,-1.2496,-1.3809,-1.5384,-1.7173,-1.7004,-1.7226,-1.7989,-1.6414,-1.501,0.0,0.0,0.0,0.0,0.0,0.0,0.0,0.0,0.0,0.0,0.0,0.0,0.0,0.0,0.0,0.0,0.0,0.0,0.0,0.0,0.0,0.0,0.0,0.0,0.0,0.0,0.0,0.0,0.0,0.0,0.0,0.0,0.0,0.0,0.0,0.0,0.0,0.0,0.0,0.0,0.0,-0.2371,-0.2523,-0.2518,0.0,0.0,0.0,0.0,-0.2114,-0.2028,0.0,0.0,0.0,0.0,0.0,0.0,0.0,0.0,0.0,0.0,0.0,0.0,0.0,0.0,0.0,0.0,0.0,0.0,0.0,0.0,0.0,0.0,0.0,0.0,0.0,0.0,0.0,0.0,0.0,0.0,0.0,0.0,0.0,0.0,0.0,0.0,0.0,0.0,0.0,0.0,0.0,0.0,0.0,0.0,0.0,0.0,0.0,0.0,0.0,0.0,0.0,0.0,0.0,0.0,0.0,0.0,-1.2198,-1.3605,-1.5429,-1.7457,-1.694,-1.7112,-1.8261,-1.635,-1.4732,0.0,0.0,0.0,0.0,0.0,0.0,0.0,0.0,0.0,0.0,0.0,0.0,0.0,0.0,0.0,0.0,0.0,0.0,0.0,0.0,0.0,0.0,0.0,0.0,0.0,0.0,0.0,0.0,0.0,0.0,0.0,0.0,0.0,0.0,0.0,0.0,0.0,0.0,0.0,0.0,0.0,-0.2447,-0.2648,-0.2625,-0.2558,0.0,0.0,-0.2307,-0.214,-0.2044,0.0,0.0,0.0,0.0,0.0,0.0,0.0,0.0,0.0,0.0,0.0,0.0,0.0,0.0,0.0,0.0,0.0,0.0,0.0,0.0,0.0,0.0,0.0,0.0,0.0,0.0,0.0,0.0,0.0,0.0,0.0,0.0,0.0,0.0,0.0,0.0,0.0,0.0,0.0,0.0,0.0,0.0,0.0,0.0,0.0,0.0,0.0,0.0,0.0,0.0,0.0,0.0,0.0,0.0,0.0,-0.9882,-1.192,-1.3523,-1.5298,-1.7267,-1.7143,-1.7365,-1.8154,-1.6388,-1.4828,0.0,0.0,0.0,0.0,0.0,0.0,0.0,0.0,0.0,0.0,0.0,0.0,0.0,0.0,0.0,0.0,0.0,0.0,0.0,0.0,0.0,0.0,0.0,0.0,0.0,0.0,0.0,0.0,0.0,0.0,0.0,0.0,0.0,0.0,0.0,0.0,0.0,0.0,0.0,0.0,0.0,0.0,-0.2818,-0.2856,0.0,0.0,0.0,-0.2334,-0.2203,0.0,0.0,0.0,0.0,0.0,0.0,0.0,0.0,0.0,0.0,0.0,0.0,0.0,0.0,0.0,0.0,0.0,0.0,0.0,0.0,0.0,0.0,0.0,0.0,0.0,0.0,0.0,0.0,0.0,0.0,0.0,0.0,0.0,0.0,0.0,0.0,0.0,0.0,0.0,0.0,0.0,0.0,0.0,0.0,0.0,0.0,0.0,0.0,0.0,0.0,0.0,0.0,0.0,0.0,0.0,0.0,0.0,-1.176,-1.347,-1.522,-1.695,-1.7168,-1.746,-1.7773,-1.6312,0.0,0.0,0.0,0.0,0.0,0.0,0.0,0.0,0.0,0.0,0.0,0.0,0.0,0.0,0.0,0.0,0.0,0.0,0.0,0.0,0.0,0.0,0.0,0.0,0.0,0.0,0.0,-0.2251,0.0,0.0,0.0,0.0,0.0,0.0,0.0,0.0,0.0,0.0,0.0,0.0,0.0,0.0,-0.2762,-0.297,-0.298,-0.2977,0.0,0.0,-0.2381,-0.2278,-0.1858,-0.149,0.0,0.0,0.0,0.0,0.0,0.0,0.0,0.0,0.0,0.0,0.0,0.0,0.0,0.0,0.0,0.0,0.0,0.0,0.0,0.0,0.0,0.0,0.0,0.0,0.0,0.0,0.0,0.0,0.0,0.0,0.0,0.0,0.0,0.0,0.0,0.0,0.0,0.0,0.0,0.0,0.0,0.0,0.0,0.0,0.0,0.0,0.0,0.0,0.0,0.0,0.0,0.0,0.0,0.0,-1.0367,-1.1689,-1.3346,-1.5028,-1.6639,-1.686,-1.7057,-1.7205,-1.5885,-1.4728,0.0,0.0,0.0,0.0,0.0,0.0,0.0,0.0,0.0,0.0,0.0,0.0,0.0,0.0,0.0,0.0,0.0,0.0,0.0,0.0,0.0,0.0,0.0,0.0,0.0,0.0,0.0,0.0,0.0,0.0,0.0,0.0,0.0,0.0,0.0,0.0,0.0,0.0,0.0,0.0,0.0,-0.2763,-0.2937,-0.2993,-0.3006,0.0,-0.2726,-0.2449,-0.2336,-0.1948,-0.1634,-0.1371,0.0,0.0,0.0,0.0,0.0,0.0,0.0,0.0,0.0,0.0,0.0,0.0,0.0,0.0,0.0,0.0,0.0,0.0,0.0,0.0,0.0,0.0,0.0,0.0,0.0,0.0,0.0,0.0,0.0,0.0,0.0,0.0,0.0,0.0,0.0,0.0,0.0,0.0,0.0,0.0,0.0,0.0,0.0,0.0,0.0,0.0,0.0,0.0,0.0,0.0,0.0,0.0,0.0,-1.012,-1.1389,-1.3365,-1.5021,-1.6311,-1.7128,-1.7295,-1.6846,-1.6138,-1.5029,0.0,0.0,0.0,0.0,0.0,0.0,0.0,0.0,0.0,0.0,0.0,0.0,0.0,0.0,0.0,0.0,0.0,0.0,0.0,0.0,0.0,0.0,0.0,0.0,0.0,0.0,0.0,0.0,-0.273,-0.2651,-0.2502,0.0,0.0,0.0,0.0,0.0,0.0,0.0,0.0,0.0,0.0,-0.2979,-0.3341,-0.3244,0.0,0.0,-0.2854,-0.2482,-0.2375,-0.1855,-0.1455,-0.1366,-0.0963,0.0,0.0,0.0,0.0,0.0,0.0,0.0,0.0,0.0,0.0,0.0,0.0,0.0,0.0,0.0,0.0,0.0,0.0,0.0,0.0,0.0,0.0,0.0,0.0,0.0,0.0,0.0,0.0,0.0,0.0,0.0,0.0,0.0,0.0,0.0,0.0,0.0,0.0,0.0,0.0,0.0,0.0,0.0,0.0,0.0,0.0,0.0,0.0,0.0,0.0,0.0,0.0,-0.9917,-1.1327,-1.3324,-1.4923,-1.603,-1.7131,-1.7404,-1.6701,-1.627,-1.53,0.0,0.0,0.0,0.0,0.0,0.0,0.0,0.0,0.0,0.0,0.0,0.0,0.0,0.0,0.0,0.0,0.0,0.0,0.0,0.0,0.0,0.0,0.0,0.0,0.0,0.0,0.0,0.0,-0.2594,-0.2368,-0.1942,0.0,0.0,0.0,0.0,0.0,0.0,0.0,0.0,0.0,0.0,-0.3249,-0.3437,-0.3425,-0.3315,-0.3356,-0.2853,-0.2518,-0.2427,-0.1888,-0.1429,-0.1382,0.0,0.0,0.0,0.0,0.0,0.0,0.0,0.0,0.0,0.0,0.0,0.0,0.0,0.0,0.0,0.0,0.0,0.0,0.0,0.0,0.0,0.0,0.0,0.0,0.0,0.0,0.0,-0.4816,0.0,0.0,-0.4921,0.0,0.0,0.0,0.0,0.0,0.0,0.0,0.0,0.0,0.0,0.0,0.0,0.0,0.0,0.0,0.0,0.0,0.0,0.0,0.0,0.0,0.0,-0.9875,-1.169,-1.3197,-1.4623,-1.5855,-1.683,-1.7181,-1.6852,-1.6086,-1.5414,-1.4892,0.0,0.0,0.0,0.0,0.0,0.0,0.0,0.0,0.0,0.0,0.0,0.0,0.0,0.0,0.0,0.0,0.0,0.0,0.0,0.0,0.0,0.0,0.0,0.0,0.0,0.0,-0.2779,-0.2388,-0.2032,0.0,0.0,0.0,0.0,0.0,0.0,0.0,0.0,0.0,-0.2662,-0.3222,-0.3519,-0.3365,-0.3375,-0.3361,-0.3332,-0.2829,-0.2494,-0.2562,-0.1947,-0.1466,0.0,0.0,0.0,0.0,0.0,0.0,0.0,0.0,0.0,0.0,0.0,0.0,0.0,0.0,0.0,0.0,0.0,0.0,0.0,0.0,0.0,0.0,0.0,0.0,0.0,0.0,0.0,-0.6926,-0.683,0.0,0.0,0.0,0.0,0.0,0.0,0.0,0.0,0.0,0.0,0.0,-0.9609,-0.9601,0.0,0.0,0.0,0.0,0.0,0.0,0.0,0.0,0.0,0.0,0.0,0.0,-0.9874,-1.151,-1.3273,-1.4626,-1.5433,-1.6438,-1.6751,-1.6385,-1.6177,-1.5438,-1.4048,0.0,0.0,0.0,0.0,0.0,0.0,0.0,0.0,0.0,0.0,0.0,0.0,0.0,0.0,0.0,0.0,0.0,0.0,0.0,0.0,0.0,0.0,0.0,0.0,0.0,-0.3002,0.0,0.0,0.0,0.0,0.0,0.0,0.0,0.0,0.0,0.0,0.0,-0.2415,-0.2787,-0.3108,-0.3325,-0.3481,-0.3384,-0.327,0.0,0.0,0.0,0.0,0.0,0.0,0.0,0.0,0.0,0.0,0.0,0.0,0.0,0.0,0.1932,0.1935,0.2039,0.2223,0.2479,0.0,0.0,0.0,0.0,0.0,0.0,0.0,0.0,0.0,0.0,0.0,0.0,0.0,0.0,-0.8488,-0.8498,-0.8062,0.0,0.0,0.0,0.0,0.0,0.0,0.0,0.0,-1.0204,-1.0688,-1.1129,-1.0835,-1.0738,0.0,-0.9977,-0.9041,0.0,0.0,0.0,0.0,0.0,0.0,0.0,0.0,-1.023,-1.1699,-1.3385,-1.4593,-1.5373,-1.6248,-1.6602,-1.636,-1.6136,-1.5256,-1.3524,-1.232,-1.1092,0.0,0.0,0.0,0.0,0.0,0.0,0.0,0.0,0.0,0.0,0.0,0.0,0.0,0.0,0.0,0.0,0.0,0.0,0.0,0.0,0.0,0.0,0.0,-0.2964,0.0,0.0,0.0,0.0,0.0,0.0,0.0,0.0,0.0,-0.2045,-0.2297,-0.2614,-0.2948,-0.3159,-0.3364,-0.3505,0.0,0.0,0.0,0.0,0.0,0.0,0.0,-0.1608,-0.1449,-0.0859,-0.0066,0.0973,0.1381,0.1675,0.1976,0.0,0.0,0.2145,0.225,0.2471,0.2699,0.2943,0.3148,0.3269,0.3301,0.34,0.0,0.0,0.0,0.0,0.0,0.0,0.0,0.0,-0.9266,-0.938,0.0,-0.9547,0.0,0.0,0.0,0.0,-0.9657,-0.9991,0.0,0.0,-1.1565,-1.2035,-1.2655,-1.1945,-1.1714,-1.1865,-1.0807,-1.0249,-1.0074,-0.8703,0.0,0.0,0.0,0.0,0.0,0.0,-1.0989,-1.2289,-1.3528,-1.4614,-1.5649,-1.6283,-1.6637,-1.674,-1.6008,-1.4901,-1.3496,-1.2826,-1.1917,-1.0683,-0.9243,0.0,0.0,0.0,0.0,0.0,0.0,0.0,0.0,0.0,0.0,0.0,0.0,0.0,0.0,0.0,0.0,0.0,0.0,0.0,0.0,-0.3302,0.0,0.0,0.0,0.0,0.0,0.0,0.0,0.0,0.0,-0.2309,-0.2329,-0.2605,-0.2873,-0.3086,0.0,0.0,0.0,0.0,-0.3642,-0.3281,-0.3065,-0.2847,-0.2627,-0.2118,-0.168,-0.1533,0.0,0.0,0.1765,0.1913,0.1897,0.2356,0.2476,0.2522,0.243,0.2572,0.276,0.3034,0.3363,0.3642,0.3727,0.3721,0.375,-1.3023,0.0,0.0,0.0,0.0,-1.0428,-1.0608,-1.0867,-1.0771,-1.0909,-1.1205,-1.1138,0.0,0.0,0.0,0.0,0.0,0.0,-1.1637,-1.1944,-1.259,-1.3081,-1.3392,-1.3169,-1.3109,-1.3143,-1.2382,-1.1886,-1.1661,-1.0678,-0.9653,-0.867,0.0,0.0,0.0,0.0,-1.1566,-1.2724,-1.3872,-1.4806,-1.5485,-1.6125,-1.6353,-1.6161,-1.5451,-1.472,-1.4032,-1.2912,-1.1922,-1.1118,-1.0107,0.0,0.0,0.0,0.0,0.0,0.0,0.0,0.0,0.0,0.0,0.0,0.0,0.0,0.0,0.0,0.0,0.0,0.0,0.0,-0.4427,-0.3761,-0.3184,0.0,0.0,0.0,0.0,0.0,0.0,0.0,0.0,0.0,-0.2767,-0.2905,-0.3019,0.0,0.0,-0.3487,-0.3484,-0.3591,-0.3515,-0.3145,-0.304,0.0,-0.2613,-0.2153,-0.177,-0.1616,-0.0621,0.0471,0.1439,0.1783,0.2053,0.2335,0.2608,0.2694,0.2754,0.2758,0.2869,0.3235,0.3402,0.3516,0.3809,0.3895,0.3906,-1.4558,-1.3322,-1.2626,-1.2266,-1.2225,-1.2225,-1.2414,-1.27,-1.2559,-1.2652,-1.2971,-1.2626,-1.249,-1.2496,-1.1954,0.0,0.0,0.0,-1.2719,-1.272,-1.3514,-1.4013,-1.4172,-1.3941,-1.385,-1.3938,-1.3264,-1.2823,-1.2609,-1.2084,-1.1447,-1.0738,0.0,-1.004,-1.0326,-1.1284,-1.2234,-1.3125,-1.428,-1.5148,-1.5695,-1.6095,-1.6124,-1.569,-1.5176,-1.462,-1.4044,-1.2958,-1.2016,-1.1275,-1.0868,-1.0026,0.0,0.0,0.0,0.0,0.0,0.0,0.0,0.0,0.0,0.0,0.0,-0.4947,-0.4652,0.0,0.0,0.0,-0.6126,-0.5485,-0.4558,-0.3938,0.0,0.0,0.0,0.0,0.0,0.0,0.0,-0.2609,-0.2791,-0.297,-0.3146,-0.3232,-0.3291,-0.333,-0.3444,-0.3556,-0.3646,0.0,-0.363,-0.3236,-0.3197,-0.3066,-0.2664,-0.2262,-0.1944,-0.1554,-0.0504,0.0516,0.1309,0.1849,0.2223,0.2427,0.2708,0.2899,0.2937,0.291,0.2959,0.3243,0.3421,0.3542,0.3763,0.3838,0.3912,-1.552,-1.5248,-1.4437,-1.4074,-1.401,-1.3963,-1.4264,-1.4694,-1.4355,-1.4468,-1.48,-1.3979,-1.3604,-1.354,-1.3065,0.0,-1.2764,-1.3527,-1.3813,-1.3762,-1.4347,-1.4804,-1.4982,-1.4389,-1.4198,-1.4459,-1.3737,-1.3332,-1.3222,-1.3012,-1.2957,-1.2912,-1.147,-1.073,-1.0812,-1.1994,-1.2924,-1.3533,-1.471,-1.5543,-1.6104,-1.6056,-1.5826,-1.542,-1.5137,-1.4548,-1.3633,-1.2967,-1.2206,-1.1294,-1.1453,-1.0883,-0.9354,0.0,0.0,0.0,0.0,0.0,0.0,0.0,0.0,0.0,0.0,0.0,0.0,0.0,0.0,-0.7518,-0.6491,0.0,-0.4536,-0.4025,0.0,0.0,0.0,-0.2616,-0.2607,-0.2678,-0.2801,-0.3038,0.0,0.0,-0.3509,-0.3679,-0.373,-0.3583,-0.3693,-0.3818,-0.3908,-0.3997,-0.3888,-0.347,-0.3479,-0.3228,-0.2817,-0.256,-0.2147,-0.1485,-0.0633,0.0277,0.1296,0.1877,0.2284,0.2571,0.2863,0.3057,0.3063,0.3148,0.3123,0.3188,0.3386,0.3608,0.3603,0.375,0.3803,-1.6422,-1.6234,-1.5925,-1.5425,-1.4727,-1.4727,-1.4892,-1.5038,-1.4995,-1.5056,-1.5243,-1.5071,-1.4662,-1.4216,-1.438,-1.4247,-1.3828,-1.4346,-1.4644,-1.4831,-1.4988,-1.5143,-1.5311,-1.5061,-1.4955,-1.4994,-1.4589,-1.431,-1.4118,-1.3711,-1.3453,-1.3238,-1.2833,-1.2604,-1.2666,-1.3156,-1.3767,-1.4473,-1.5009,-1.5553,-1.6093,-1.5894,-1.5614,-1.5264,-1.4843,-1.4373,-1.374,-1.3089,-1.2321,-1.1633,-1.1055,-1.0334,-0.9282,-0.8937,0.0,0.0,0.0,0.0,0.0,0.0,0.0,0.0,0.0,-0.7759,-0.8435,0.0,-0.8342,0.0,-0.6741,-0.5741,-0.4992,-0.4364,0.0,0.0,-0.3093,-0.2919,-0.2706,-0.2925,-0.3169,-0.342,-0.3465,-0.3599,-0.3781,-0.3901,-0.4008,-0.4091,-0.4028,-0.4004,-0.4095,-0.4181,-0.4086,-0.3697,-0.366,-0.3519,-0.3049,-0.2596,-0.2133,-0.1493,-0.0847,0.0095,0.1326,0.1711,0.1916,0.2329,0.2628,0.2841,0.3077,0.3187,0.3177,0.3243,0.3373,0.3501,0.3693,0.3845,0.3893,-1.6705,-1.6534,-1.642,-1.6084,-1.5608,-1.5608,-1.5673,-1.5727,-1.5737,-1.5781,-1.5836,-1.5562,-1.5101,-1.4573,-1.4727,-1.4592,-1.4389,-1.4869,-1.5097,-1.5195,-1.5395,-1.5491,-1.5536,-1.5371,-1.5264,-1.5215,-1.5029,-1.4843,-1.4706,-1.4434,-1.4206,-1.4139,-1.4052,-1.4054,-1.4167,-1.4201,-1.4431,-1.4952,-1.5421,-1.5756,-1.5999,-1.572,-1.5371,-1.497,-1.4538,-1.4061,-1.3657,-1.2865,-1.215,-1.1551,-1.0615,-0.9872,-0.9382,-0.8992,-0.8626,0.0,0.0,0.0,0.0,0.0,0.0,0.0,0.0,0.0,0.0,0.0,-0.8764,-0.7812,-0.6869,-0.5965,-0.5294,-0.4667,-0.4076,-0.3651,-0.343,-0.3216,-0.2924,-0.3215,-0.3522,-0.3661,-0.3754,-0.3877,-0.4053,-0.412,-0.413,-0.4211,-0.4154,-0.4202,-0.434,-0.4391,-0.4256,-0.384,-0.3788,-0.3624,-0.3146,-0.2689,-0.2125,-0.1741,-0.107,-0.0098,0.0881,0.1371,0.1768,0.2083,0.2385,0.2691,0.2922,0.3029,0.3029,0.3222,0.3278,0.3332,0.3523,0.3551,0.3575,-1.6743,-1.6467,-1.6405,-1.6374,-1.6374,-1.6374,-1.6374,-1.6374,-1.6374,-1.6374,-1.6353,-1.5751,-1.5253,-1.4961,-1.4747,-1.464,-1.4723,-1.5239,-1.5421,-1.5351,-1.5733,-1.5856,-1.5682,-1.5478,-1.5362,-1.5205,-1.5205,-1.5147,-1.5029,-1.5039,-1.5039,-1.5039,-1.5029,-1.5088,-1.5205,-1.5002,-1.5031,-1.5199,-1.5796,-1.6009,-1.5856,-1.5546,-1.5177,-1.4647,-1.424,-1.3838,-1.3484,-1.2557,-1.1807,-1.1347,-1.0285,-0.9629,-0.9475,-0.8815,-0.846,0.0,-0.7956,0.0,0.0,0.0,0.0,0.0,0.0,0.0,0.0,-0.9086,-0.8766,-0.7528,-0.685,-0.6184,-0.5467,-0.4807,-0.4361,-0.4079,-0.3772,-0.3518,-0.3246,-0.3619,-0.3838,-0.3938,-0.4022,-0.4136,-0.4302,-0.4334,-0.431,-0.4261,-0.4189,-0.4286,-0.4504,-0.4494,-0.4302,-0.3839,-0.3746,-0.3572,-0.3185,-0.273,-0.2265,-0.1974,-0.1296,-0.0404,0.0403,0.1109,0.1716,0.1919,0.2218,0.2421,0.2725,0.273,0.2838,0.3044,0.3147,0.3145,0.3228,0.3222,0.323,-1.7196,-1.6832,-1.6529,-1.6374,-1.6374,-1.6374,-1.6374,-1.6374,-1.6374,-1.6374,-1.6363,-1.6089,-1.5894,-1.5662,-1.5538,-1.5548,-1.5605,-1.5743,-1.583,-1.5934,-1.5921,-1.5798,-1.5672,-1.5478,-1.541,-1.5362,-1.5264,-1.5225,-1.5156,-1.5039,-1.5039,-1.5039,-1.5098,-1.5156,-1.5205,0.0,0.0,0.0,-1.6016,-1.5999,-1.573,-1.5391,-1.502,-1.4529,-1.407,0.0,-1.3483,-1.2687,-1.2003,-1.1523,-1.0696,0.0,0.0,0.0,0.0,0.0,0.0,0.0,0.0,0.0,0.0,0.0,-0.8999,-0.9354,-0.896,-0.8565,-0.8104,-0.7465,-0.6693,-0.6005,-0.544,-0.4755,-0.4308,-0.4135,-0.3933,-0.3722,-0.3495,-0.3753,-0.4128,-0.438,-0.4328,-0.4318,-0.4483,-0.452,-0.4466,-0.427,-0.4289,-0.4221,-0.4079,-0.413,-0.3925,-0.3682,-0.3486,-0.3293,-0.3198,-0.2902,-0.2604,-0.2211,-0.1711,-0.0909,0.0202,0.1111,0.1719,0.1921,0.2022,0.2123,0.2425,0.2552,0.258,0.289,0.3028,0.3034,0.3151,0.3232,0.323,-1.7582,-1.7144,-1.6798,-1.6581,0.0,-1.6374,-1.6374,-1.6374,-1.6374,-1.6374,-1.6384,-1.6181,-1.6066,-1.6019,-1.5856,-1.5856,-1.5914,-1.5961,-1.6009,-1.6114,-1.6009,-1.5961,-1.5894,-1.5662,-1.5546,-1.5536,-1.5381,-1.5313,-1.5313,-1.5245,-1.5186,-1.5196,-1.5254,-1.5323,-1.5313,-1.5614,-1.5904,-1.6114,-1.6066,-1.5836,-1.5546,-1.5128,-1.4725,-1.424,-1.3821,0.0,0.0,0.0,0.0,0.0,0.0,0.0,0.0,0.0,0.0,-0.8584,-0.8316,-0.8214,-0.822,-0.8276,-0.8339,-0.8343,-0.8829,-0.9126,-0.9119,-0.8461,-0.784,-0.7358,-0.6705,-0.6055,-0.5431,-0.4828,-0.4346,-0.4224,-0.4006,-0.385,-0.3771,-0.3939,-0.4218,-0.4525,-0.4499,-0.4487,-0.462,-0.464,-0.4481,-0.416,-0.4177,-0.3988,-0.372,-0.3802,-0.3896,-0.363,-0.3332,-0.323,-0.323,-0.3029,-0.2725,-0.2321,-0.1919,-0.1212,-0.0202,0.0909,0.1622,0.1839,0.1845,0.1951,0.2175,0.2299,0.2417,0.263,0.2754,0.2864,0.3018,0.3217,0.332,-1.7991,-1.7399,-1.7127,-1.6788,-1.6374,-1.6374,-1.6374,-1.6374,-1.6374,0.0,0.0,-1.6181,-1.6124,-1.6114,-1.5961,-1.5914,-1.5972,-1.6066,-1.6124,-1.6114,-1.6114,-1.6124,-1.6114,-1.5836,-1.573,-1.5682,-1.5536,-1.542,-1.542,-1.542,-1.542,-1.542,-1.542,-1.542,-1.5478,-1.5614,-1.5778,-1.5999,-1.5904,-1.5672,-1.5362,-1.4893,-1.4469,-1.4001,-1.3511,-1.3025,-1.2498,-1.2251,-1.1667,-1.0692,-1.049,-1.0127,-0.959,-0.911,-0.8747,-0.8551,-0.8407,-0.8267,-0.8172,-0.8226,-0.8323,-0.8448,-0.8581,-0.8732,-0.8931,-0.835,-0.7779,-0.7246,-0.6624,-0.5985,-0.5484,-0.4902,-0.4465,-0.4263,-0.4099,-0.4014,-0.4027,-0.4188,-0.4361,-0.456,-0.4643,-0.463,-0.4716,-0.473,-0.4557,-0.4117,-0.4028,-0.3833,-0.3432,-0.3528,-0.3726,-0.3534,-0.3332,-0.323,-0.313,-0.3029,-0.2725,-0.2422,-0.2019,-0.1414,-0.0606,0.0606,0.1425,0.1655,0.1662,0.1777,0.2015,0.2027,0.214,0.2355,0.2469,0.2582,0.2904,0.3121,0.3328,-1.8468,-1.785,-1.7272,-1.6788,-1.6374,-1.6374,-1.6374,-1.6374,-1.6374,-1.6374,-1.6374,-1.6181,-1.6124,-1.6114,-1.5972,-1.5961,-1.6066,-1.6114,-1.6181,-1.6374,-1.6181,-1.6124,-1.6114,-1.5961,-1.5798,-1.5672,-1.5672,-1.5546,-1.541,-1.542,-1.542,-1.542,-1.542,-1.5478,-1.5604,-1.5682,-1.573,-1.573,-1.5546,-1.542,-1.5205,-1.4775,-1.43,-1.383,-1.3511,-1.3042,-1.2514,-1.2251,-1.1717,-1.0899,-1.0547,-1.0094,-0.9497,-0.8991,-0.8604,-0.8287,-0.8153,-0.8108,-0.8238,-0.8226,-0.8294,-0.8559,-0.8419,-0.8285,-0.8115,-0.7941,-0.7584,-0.6972,-0.6423,-0.5885,-0.5504,-0.4911,-0.4517,-0.4437,-0.4312,-0.4218,-0.4276,-0.4312,-0.4479,-0.4735,-0.4681,-0.4722,-0.4792,-0.481,-0.4614,-0.413,-0.3934,-0.3732,-0.3331,-0.3232,-0.3331,-0.3232,-0.323,-0.323,-0.323,-0.313,-0.2927,-0.2522,-0.222,-0.1716,-0.0808,0.0101,0.0916,0.1554,0.1665,0.1677,0.1809,0.1834,0.1958,0.218,0.2201,0.2331,0.2664,0.2996,0.3196,-1.8945,-1.8427,-1.7667,-1.709,-1.6726,-1.6487,-1.6374,-1.6374,-1.6374,-1.6374,-1.6384,-1.6306,-1.6249,-1.6249,-1.6202,-1.6202,-1.6249,-1.6249,-1.6306,-1.6384,-1.6306,-1.6249,-1.6239,-1.6066,-1.5961,-1.5884,-1.5846,-1.573,-1.5604,-1.5546,-1.5478,-1.542,-1.542,-1.5478,-1.5546,-1.5546,-1.5498,-1.5439,-1.542,-1.5245,-1.4961,-1.4538,-1.4061,-1.358,-1.3216,-1.2797,-1.2321,-1.2003,-1.1553,-1.1052,-1.0615,-1.0171,-0.9804,-0.9319,-0.9,-0.8744,-0.8565,-0.8477,-0.8456,-0.8475,-0.8478,-0.8461,-0.8505,-0.8387,-0.821,-0.797,-0.7608,-0.7116,-0.6449,-0.5925,-0.5577,-0.4923,-0.4608,-0.4497,-0.4384,-0.4293,-0.432,-0.4483,-0.4563,-0.4785,-0.4749,-0.4792,-0.483,-0.4832,-0.4634,-0.4133,-0.3831,-0.3432,-0.323,-0.323,-0.323,-0.323,-0.323,-0.323,-0.323,-0.323,-0.3029,-0.2725,-0.2422,-0.1917,-0.1212,-0.0404,0.0613,0.1466,0.1686,0.1704,0.1742,0.1763,0.1883,0.1887,0.2007,0.2131,0.2356,0.2803,0.312,-1.9328,-1.8797,-1.8103,-1.7419,-1.687,-1.6529,-1.6374,-1.6374,-1.6374,-1.6374,-1.6374,-1.6374,-1.6374,-1.6374,-1.6374,-1.6374,-1.6374,-1.6374,-1.6374,-1.6374,-1.6374,-1.6374,-1.6374,-1.6249,-1.6181,-1.6114,-1.6009,-1.5914,-1.573,-1.574,-1.5672,-1.5478,-1.542,-1.542,-1.542,-1.542,-1.5303,-1.5215,-1.5254,-1.5128,-1.4647,-1.43,-1.3821,-1.3329,-1.2911,-1.256,-1.2127,-1.1755,-1.1435,-1.1122,-1.0621,-1.0302,-1.0043,-0.9714,-0.9423,-0.9179,-0.8996,-0.8745,-0.8588,-0.8641,-0.8615,-0.8472,-0.8614,-0.8627,-0.8389,-0.8112,-0.7705,-0.7234,-0.6581,-0.6044,-0.5552,-0.5009,-0.4695,-0.4535,-0.4431,-0.4342,-0.4358,-0.4436,-0.4618,-0.4718,-0.4796,-0.4832,-0.4832,-0.4832,-0.4533,-0.4033,-0.3531,-0.323,-0.323,-0.323,-0.323,-0.323,-0.323,-0.323,-0.323,-0.323,-0.313,-0.2826,-0.2522,-0.2119,-0.1515,-0.0707,0.0205,0.116,0.1597,0.1726,0.1778,0.1793,0.1793,0.1792,0.1793,0.1907,0.2356,0.2803,0.3249,-1.9458,-1.886,-1.8227,-1.7413,-1.6477,-1.6405,-1.6374,-1.6374,-1.6374,-1.6374,-1.6374,-1.6374,-1.6374,-1.6374,-1.6374,-1.6374,-1.6374,-1.6374,-1.6374,-1.6374,-1.6374,-1.6374,-1.6374,-1.6374,-1.6249,-1.6114,-1.6066,-1.6009,-1.5914,-1.5856,-1.5798,-1.5672,-1.5478,-1.542,-1.542,-1.542,-1.5303,-1.5215,-1.5088,-1.4843,-1.4538,-1.4061,-1.364,-1.3329,-1.2858,-1.2436,-1.2127,-1.1747,-1.1435,-1.1087,-1.0802,-1.0435,-0.9959,-0.9822,-0.962,-0.9217,-0.8941,-0.8598,-0.8436,-0.8637,-0.8666,-0.8675,-0.8685,-0.8627,-0.8403,-0.8237,-0.7846,-0.7277,-0.6684,-0.618,-0.5676,-0.5119,-0.479,-0.4707,-0.4469,-0.4274,-0.4328,-0.447,-0.4634,-0.4806,-0.4826,-0.4832,-0.4832,-0.4734,-0.4533,-0.4033,-0.3531,-0.323,-0.323,-0.323,-0.323,-0.323,-0.323,-0.323,-0.323,-0.323,-0.313,-0.2826,-0.2623,-0.222,-0.1716,-0.1012,-0.0204,0.0633,0.1385,0.1727,0.1772,0.1795,0.1795,0.1795,0.1907,0.2019,0.2468,0.2915,0.325,-1.9695,-1.9254,-1.8343,-1.7392,-1.6493,-1.6374,-1.6374,-1.6374,-1.6374,-1.6374,-1.6374,-1.6374,-1.6374,-1.6374,-1.6374,-1.6374,-1.6374,-1.6374,-1.6374,-1.6374,-1.6374,-1.6374,-1.6374,-1.6374,-1.6374,-1.6306,-1.6306,-1.6181,-1.6019,-1.5961,-1.5856,-1.574,-1.5604,-1.5478,-1.542,-1.542,-1.5303,-1.5098,-1.4902,-1.4606,-1.424,-1.3941,-1.3588,-1.3164,-1.2674,-1.2313,-1.2058,-1.156,-1.1247,-1.1073,-1.0705,-1.0403,-1.0089,-1.0002,-0.9846,-0.9469,-0.9122,-0.8872,-0.8736,-0.8737,-0.8703,-0.8703,-0.8703,-0.8703,-0.8551,-0.825,-0.7868,-0.7581,-0.7017,-0.6458,-0.6025,-0.5392,-0.4988,-0.4812,-0.4567,-0.4278,-0.4261,-0.4474,-0.464,-0.4802,-0.4832,-0.4832,-0.4734,-0.4533,-0.4232,-0.3932,-0.3531,-0.323,-0.323,-0.323,-0.323,-0.323,-0.323,-0.323,-0.323,-0.323,-0.313,-0.3029,-0.2826,-0.2423,-0.2018,-0.1515,-0.0818,0.0106,0.1066,0.1622,0.1784,0.1793,0.1795,0.1795,0.2019,0.2244,0.2803,0.3026,0.325,-1.9878,-1.9532,-1.849,-1.7392,-1.6394,-1.6374,-1.6374,-1.6374,-1.6374,-1.6374,-1.6374,-1.6374,-1.6374,-1.6374,-1.6374,-1.6374,-1.6374,-1.6374,-1.6374,-1.6374,-1.6374,-1.6374,-1.6374,-1.6374,-1.6374,-1.6374,-1.6374,-1.6306,-1.6181,-1.6009,-1.5904,-1.5778,-1.5788,-1.5672,-1.5488,-1.5488,-1.5313,-1.5029,-1.4843,-1.4538,-1.407,-1.383,-1.3519,-1.2981,-1.249,-1.2182,-1.2065,-1.1442,-1.1129,-1.1073,-1.0706,-1.0461,-1.0315,-1.0205,-1.0035,-0.9593,-0.9322,-0.9099,-0.9027,-0.8784,-0.8703,-0.8703,-0.8703,-0.8703,-0.8627,-0.8322,-0.8043,-0.7957,-0.7402,-0.6841,-0.6277,-0.5761,-0.5277,-0.5001,-0.4654,-0.4373,-0.4352,-0.4474,-0.464,-0.48,-0.4832,-0.4832,-0.4734,-0.4334,-0.4034,-0.3934,-0.3531,-0.323,-0.323,-0.323,-0.323,-0.323,-0.323,-0.323,-0.323,-0.323,-0.323,-0.313,-0.2928,-0.2624,-0.2324,-0.1924,-0.1333,-0.0212,0.0854,0.1517,0.178,0.1793,0.1907,0.2019,0.2243,0.2579,0.2914,0.3138,0.3362,-2.0205,-1.9727,-1.8542,-1.7392,-1.6384,-1.6374,-1.6374,-1.6374,-1.6374,-1.6374,-1.6374,-1.6374,-1.6374,-1.6374,-1.6374,-1.6374,-1.6374,-1.6374,-1.6374,-1.6374,-1.6374,-1.6374,-1.6374,-1.6374,-1.6374,-1.6374,-1.6374,-1.6384,-1.6374,-1.6181,-1.6056,-1.6066,-1.5961,-1.5856,-1.5672,-1.5672,-1.5439,-1.5088,-1.497,-1.4675,-1.407,-1.3692,-1.3329,-1.2989,-1.2428,-1.212,-1.2065,-1.1435,-1.1129,-1.1129,-1.0883,-1.0717,-1.0496,-1.044,-1.0196,-0.9695,-0.962,-0.9397,-0.9022,-0.8784,-0.8703,-0.8703,-0.8703,-0.8703,-0.8703,-0.8475,-0.8322,-0.8348,-0.7793,-0.7177,-0.6479,-0.5915,-0.5518,-0.5095,-0.4835,-0.4567,-0.4354,-0.447,-0.4651,-0.4785,-0.4828,-0.4832,-0.4832,-0.4334,-0.4034,-0.3932,-0.3531,-0.323,-0.323,-0.323,-0.323,-0.323,-0.323,-0.323,-0.323,-0.323,-0.323,-0.313,-0.3029,-0.2725,-0.2336,-0.1947,-0.1253,-0.0531,0.0431,0.1094,0.1559,0.1907,0.2019,0.2243,0.2578,0.3025,0.3138,0.3362,0.3587,-1.9779,-1.8805,-1.8237,-1.7392,-1.6415,-1.6374,-1.6374,-1.6374,-1.6374,-1.6374,-1.6374,-1.6374,-1.6374,-1.6374,-1.6374,-1.6374,-1.6374,-1.6374,-1.6374,-1.6374,-1.6374,-1.6374,-1.6374,-1.6374,-1.6374,-1.6374,-1.6374,-1.6374,-1.6374,-1.6306,-1.6239,-1.6104,-1.6056,-1.5951,-1.5856,-1.574,-1.5546,-1.5245,-1.4951,-1.4606,-1.4121,-1.364,-1.3268,-1.2989,-1.2428,-1.2065,-1.2065,-1.156,-1.1185,-1.1129,-1.1176,-1.1011,-1.0578,-1.0385,-1.0143,-0.9846,-0.97,-0.9473,-0.917,-0.8861,-0.8703,-0.8703,-0.8703,-0.8703,-0.8627,-0.8408,-0.8254,-0.8286,-0.7748,-0.7221,-0.6936,-0.6328,-0.5725,-0.528,-0.4928,-0.4619,-0.4459,-0.444,-0.462,-0.4732,-0.4796,-0.4832,-0.4732,-0.4332,-0.4033,-0.3934,-0.3531,-0.323,-0.323,-0.323,-0.323,-0.323,-0.323,-0.323,-0.323,-0.323,-0.323,-0.323,-0.3029,-0.2826,-0.2432,-0.2158,-0.1674,-0.0851,-0.0,0.0991,0.1564,0.2019,0.2132,0.2467,0.2914,0.325,0.3362,0.3475,0.3587,-1.9572,-1.8398,-1.8139,-1.7431,-1.653,-1.6431,-1.6374,-1.6374,-1.6374,-1.6374,-1.6374,-1.6374,-1.6374,-1.6374,-1.6374,-1.6374,-1.6374,-1.6374,-1.6374,-1.6374,-1.6374,-1.6374,-1.6374,-1.6374,-1.6374,-1.6374,-1.6374,-1.6374,-1.6374,-1.6374,-1.6306,-1.6181,-1.6181,-1.6134,-1.5961,-1.5856,-1.5672,-1.5362,-1.501,-1.4606,-1.4181,-1.364,-1.3216,-1.292,-1.2436,-1.2065,-1.2065,-1.1622,-1.1247,-1.1129,-1.1227,-1.1022,-1.0606,-1.0277,-1.014,-0.9981,-0.9771,-0.9549,-0.9322,-0.9013,-0.8856,-0.8703,-0.8703,-0.8703,-0.8703,-0.8403,-0.8298,-0.8272,-0.7857,-0.7359,-0.7304,-0.6646,-0.5991,-0.546,-0.5015,-0.4698,-0.4332,-0.4487,-0.4579,-0.4689,-0.4656,-0.4598,-0.463,-0.4133,-0.3935,-0.3833,-0.3432,-0.323,-0.323,-0.323,-0.323,-0.323,-0.323,-0.323,-0.323,-0.323,-0.323,-0.323,-0.313,-0.2927,-0.2638,-0.237,-0.1886,-0.1172,-0.0217,0.0883,0.1561,0.2129,0.2468,0.2805,0.3139,0.3362,0.3475,0.3587,0.3587,-1.9646,-1.852,-1.8323,-1.7599,-1.6633,-1.6477,-1.6374,-1.6374,-1.6374,-1.6374,-1.6374,-1.6374,-1.6374,-1.6374,-1.6374,-1.6374,-1.6374,-1.6374,-1.6374,-1.6374,-1.6374,-1.6374,-1.6374,-1.6374,-1.6374,-1.6374,-1.6374,-1.6374,-1.6374,-1.6374,-1.6374,-1.6384,-1.6374,-1.6306,-1.6114,-1.6029,-1.5798,-1.543,-1.5137,-1.4725,-1.4181,-1.3752,-1.3338,-1.2981,-1.2436,-1.2065,-1.2065,-1.1637,-1.1269,-1.1101,-1.1135,-1.0944,-1.0651,-1.0347,-1.0098,-1.0146,-0.9976,-0.9685,-0.9397,-0.9246,-0.9089,-0.878,-0.8703,-0.8703,-0.8632,-0.8484,-0.8394,-0.8371,-0.7922,-0.7647,-0.7657,-0.6953,-0.6166,-0.5549,-0.5191,-0.4784,-0.44,-0.434,-0.4504,-0.4655,-0.4508,-0.4349,-0.431,-0.4024,-0.3721,-0.363,-0.3432,-0.323,-0.323,-0.323,-0.323,-0.323,-0.323,-0.323,-0.323,-0.323,-0.323,-0.323,-0.323,-0.303,-0.2643,-0.2368,-0.2098,-0.1388,0.011,0.1115,0.1788,0.2356,0.2691,0.2915,0.3251,0.3475,0.3587,0.3587,0.3587,-1.9939,-1.867,-1.8455,-1.7728,-1.668,-1.6581,-1.6477,-1.6431,-1.6374,-1.6374,-1.6374,-1.6374,-1.6374,-1.6374,-1.6374,-1.6374,-1.6374,-1.6374,-1.6374,-1.6374,-1.6374,-1.6374,-1.6374,-1.6374,-1.6374,-1.6374,-1.6374,-1.6374,-1.6374,-1.6374,-1.6374,-1.6374,-1.6374,-1.6374,-1.6316,-1.6144,-1.5961,-1.573,-1.5323,-1.4902,-1.4419,-1.3812,-1.3338,-1.2981,-1.2428,-1.2065,-1.2073,-1.1892,-1.1581,-1.1276,-1.149,-1.1383,-1.069,-1.0237,-1.001,-0.9929,-0.9759,-0.9617,-0.9382,-0.9322,-0.9094,-0.8784,-0.8703,-0.8708,-0.8641,-0.8408,-0.8212,-0.8138,-0.7698,-0.7457,-0.7468,-0.691,-0.6154,-0.5633,-0.528,-0.4842,-0.4437,-0.4304,-0.4392,-0.4583,-0.4518,-0.4558,-0.4526,-0.4256,-0.3978,-0.3822,-0.3629,-0.3429,-0.323,-0.323,-0.323,-0.323,-0.323,-0.323,-0.323,-0.323,-0.313,-0.313,-0.313,-0.3029,-0.2643,-0.2367,-0.2097,-0.1287,0.022,0.134,0.2016,0.2467,0.2803,0.3138,0.3363,0.3475,0.3587,0.3587,0.3587,-2.0239,-1.9094,-1.8714,-1.7954,-1.6948,-1.6722,-1.6534,-1.6431,-1.6374,-1.6374,-1.6374,-1.6374,-1.6374,-1.6374,-1.6374,-1.6374,-1.6374,-1.6374,-1.6374,-1.6374,-1.6374,-1.6374,-1.6374,-1.6374,-1.6374,-1.6374,-1.6374,-1.6374,-1.6374,-1.6374,-1.6374,-1.6374,-1.6374,-1.6374,-1.6374,-1.6171,-1.6009,-1.5856,-1.5449,-1.497,-1.4478,-1.3872,-1.3338,-1.2989,-1.2428,-1.2127,-1.2081,-1.1995,-1.1754,-1.1425,-1.1444,-1.1142,-1.0566,-1.0042,-0.9719,-0.9811,-0.9679,-0.95,-0.926,-0.9271,-0.9094,-0.878,-0.8703,-0.8713,-0.8641,-0.8336,-0.7949,-0.789,-0.7523,-0.736,-0.7399,-0.682,-0.6198,-0.5899,-0.5366,-0.4832,-0.4397,-0.4349,-0.4328,-0.4493,-0.4426,-0.447,-0.4434,-0.4272,-0.4107,-0.3973,-0.3695,-0.3515,-0.3321,-0.3232,-0.323,-0.323,-0.323,-0.323,-0.323,-0.323,-0.313,-0.3029,-0.3029,-0.2826,-0.2531,-0.2364,-0.2196,-0.075,0.077,0.1668,0.2456,0.2688,0.3027,0.3251,0.347,0.3475,0.3587,0.3587,0.3587,-2.0671,-1.9698,-1.905,-1.8246,-1.7483,-1.6937,-1.6644,-1.6431,-1.6431,-1.6374,-1.6374,-1.6374,-1.6374,-1.6374,-1.6374,-1.6374,-1.6374,-1.6374,-1.6374,-1.6374,-1.6374,-1.6374,-1.6374,-1.6374,-1.6431,-1.6431,-1.642,-1.6431,-1.6488,-1.6488,-1.6431,-1.6431,-1.6431,-1.6431,-1.6374,-1.6171,-1.6009,-1.5856,-1.5449,-1.4961,-1.4529,-1.3812,-1.3338,-1.2989,-1.2436,-1.2065,-1.2111,-1.2,-1.1732,-1.1318,-1.1023,-1.0684,-1.0286,-0.9681,-0.9429,-0.9725,-0.9625,-0.9368,-0.9087,-0.9165,-0.9135,-0.8775,-0.8703,-0.8708,-0.8646,-0.8264,-0.7923,-0.7841,-0.7433,-0.7245,-0.7312,-0.6751,-0.6216,-0.5968,-0.5277,-0.4743,-0.4387,-0.4306,-0.4351,-0.4316,-0.4154,-0.4088,-0.4263,-0.4091,-0.3938,-0.3893,-0.3723,-0.3554,-0.3498,-0.3311,-0.3224,-0.3228,-0.323,-0.323,-0.323,-0.323,-0.313,-0.2928,-0.2826,-0.2624,-0.2226,-0.2053,-0.1455,-0.0,0.0979,0.1981,0.255,0.2883,0.3114,0.345,0.3565,0.358,0.3587,0.3586,0.3582,-2.0985,-2.002,-1.9587,-1.8742,-1.7787,-1.7589,-1.7158,-1.6555,-1.6431,-1.6363,-1.6374,-1.6374,-1.6374,-1.6374,-1.6374,-1.6374,-1.6374,-1.6374,-1.6374,-1.6374,-1.6374,-1.6374,-1.6374,-1.6374,-1.6431,-1.6534,-1.6534,-1.6591,-1.6705,-1.6648,-1.6648,-1.6524,-1.6534,-1.6477,-1.6374,-1.6306,-1.6134,-1.5904,-1.5556,-1.5069,-1.4469,-1.3872,-1.3329,-1.2981,-1.2428,-1.2127,-1.2065,-1.1821,-1.1652,-1.1439,-1.1227,-1.0701,-1.0149,-0.9707,-0.9426,-0.9434,-0.9234,-0.9082,-0.9057,-0.9038,-0.8996,-0.8761,-0.8699,-0.8713,-0.8665,-0.8264,-0.7893,-0.7655,-0.7269,-0.7144,-0.7104,-0.6625,-0.6106,-0.5612,-0.5003,-0.4561,-0.4387,-0.43,-0.4312,-0.4332,-0.4246,-0.4294,-0.4258,-0.4291,-0.4225,-0.4104,-0.3847,-0.3678,-0.3537,-0.3364,-0.3169,-0.3215,-0.3229,-0.323,-0.323,-0.323,-0.313,-0.2826,-0.2624,-0.2423,-0.1826,-0.123,-0.0207,0.105,0.1492,0.2266,0.2604,0.2828,0.3171,0.3522,0.3544,0.3555,0.3575,0.3582,0.3574,-2.1288,-2.0563,-1.9997,-1.9276,-1.8447,-1.804,-1.7556,-1.6969,-1.6587,-1.6467,-1.6477,-1.6431,-1.6374,-1.6374,-1.6374,-1.6374,-1.6374,-1.6374,-1.6374,-1.6431,-1.6477,-1.6477,-1.6477,-1.6477,-1.6534,-1.6694,-1.6694,-1.6761,-1.6761,-1.6761,-1.6751,-1.6694,-1.6627,-1.657,-1.6477,-1.6431,-1.6202,-1.5904,-1.5546,-1.5118,-1.4529,-1.3812,-1.3338,-1.2981,-1.249,-1.2127,-1.1996,-1.1747,-1.1529,-1.1369,-1.1213,-1.08,-1.0047,-0.9658,-0.9409,-0.9234,-0.9064,-0.8927,-0.8881,-0.9006,-0.8965,-0.8791,-0.8708,-0.8708,-0.8574,-0.8264,-0.7868,-0.7504,-0.7278,-0.7194,-0.6984,-0.6612,-0.6031,-0.5534,-0.5036,-0.47,-0.4469,-0.4389,-0.4297,-0.4297,-0.4302,-0.4314,-0.4375,-0.4377,-0.4332,-0.4204,-0.3951,-0.3808,-0.357,-0.3293,-0.3121,-0.3168,-0.3199,-0.3198,-0.3214,-0.3222,-0.3025,-0.2723,-0.212,-0.1918,-0.1318,-0.0511,0.0411,0.1348,0.1989,0.2429,0.2659,0.2891,0.3232,0.3473,0.3503,0.3514,0.3521,0.354,0.3536,-2.1675,-2.1187,-2.0353,-1.9827,-1.9317,-1.8496,-1.7965,-1.7403,-1.6948,-1.6633,-1.6591,-1.6488,-1.6431,-1.6431,-1.6431,-1.6374,-1.6374,-1.6374,-1.6431,-1.6431,-1.6534,-1.6627,-1.6694,-1.6637,-1.6705,-1.6874,-1.6864,-1.6931,-1.6987,-1.6931,-1.6864,-1.6864,-1.6694,-1.6581,-1.6524,-1.6488,-1.6202,-1.5904,-1.5594,-1.5118,-1.4519,-1.3872,-1.3338,-1.2981,-1.249,-1.212,-1.1872,-1.1685,-1.1457,-1.1129,-1.1129,-1.0744,-1.011,-0.9734,-0.9356,-0.9127,-0.9019,-0.8885,-0.8722,-0.8983,-0.9062,-0.8743,-0.8668,-0.8661,-0.858,-0.8268,-0.7821,-0.7638,-0.733,-0.7196,-0.694,-0.6528,-0.6155,-0.5672,-0.5532,-0.5239,-0.487,-0.4465,-0.43,-0.43,-0.43,-0.4297,-0.4297,-0.4306,-0.4332,-0.431,-0.3968,-0.3728,-0.3584,-0.3323,-0.3167,-0.3117,-0.314,-0.3155,-0.3184,-0.3213,-0.2918,-0.262,-0.1615,-0.1111,-0.0606,0.0203,0.0919,0.1644,0.2168,0.2495,0.2831,0.306,0.3291,0.3414,0.3437,0.3431,0.3425,0.3454,0.3463,-2.1913,-2.1325,-2.1043,-2.0455,-1.9691,-1.9621,-1.8907,-1.7755,-1.7632,-1.7216,-1.6825,-1.6637,-1.6581,-1.6524,-1.6431,-1.6374,-1.6431,-1.6431,-1.6431,-1.6581,-1.6581,-1.674,-1.6853,-1.6864,-1.6931,-1.711,-1.7211,-1.7323,-1.7434,-1.7368,-1.7312,-1.7155,-1.6874,-1.6694,-1.6581,-1.6477,-1.6202,-1.5914,-1.5594,-1.5118,-1.4529,-1.3863,-1.3338,-1.2981,-1.2428,-1.2058,-1.1809,-1.1685,-1.1498,-1.1303,-1.1115,-1.0877,-1.0301,-0.9734,-0.9414,-0.9221,-0.9003,-0.8865,-0.8772,-0.8769,-0.8762,-0.8644,-0.8586,-0.8442,-0.8694,-0.8324,-0.8027,-0.7829,-0.7573,-0.7235,-0.6752,-0.6491,-0.6267,-0.5954,-0.5745,-0.5507,-0.5217,-0.4826,-0.463,-0.4561,-0.4383,-0.4297,-0.4297,-0.4297,-0.4314,-0.424,-0.3991,-0.3744,-0.35,-0.3255,-0.3203,-0.3059,-0.3072,-0.3091,-0.304,-0.3071,-0.2794,-0.2307,-0.1409,-0.0404,0.0202,0.0707,0.1422,0.193,0.2232,0.2559,0.2894,0.3114,0.3339,0.3356,0.3371,0.3373,0.3379,0.3391,0.3387,-2.2099,-2.16,-2.1348,-2.0819,-2.0329,-2.0268,-1.9543,-1.8452,-1.813,-1.7633,-1.6995,-1.674,-1.6684,-1.6581,-1.6534,-1.6477,-1.6534,-1.6591,-1.6591,-1.6694,-1.674,-1.6909,-1.7145,-1.7145,-1.7256,-1.7434,-1.7434,-1.7601,-1.7645,-1.7645,-1.7479,-1.7379,-1.7088,-1.6864,-1.6694,-1.6477,-1.6202,-1.5914,-1.5536,-1.5118,-1.4529,-1.3872,-1.3277,-1.2867,-1.2375,-1.2058,-1.1941,-1.1692,-1.156,-1.1435,-1.1373,-1.1066,-1.0428,-0.9862,-0.9472,-0.9338,-0.9215,-0.9003,-0.8936,-0.8936,-0.8921,-0.8689,-0.8648,-0.8558,-0.8442,-0.8182,-0.8066,-0.7917,-0.7677,-0.7275,-0.6816,-0.6681,-0.652,-0.6225,-0.6103,-0.5879,-0.5624,-0.5142,-0.472,-0.466,-0.4496,-0.4347,-0.4364,-0.4283,-0.43,-0.4314,-0.3868,-0.3619,-0.3527,-0.3289,-0.3138,-0.2986,-0.3001,-0.303,-0.2987,-0.2928,-0.2664,-0.1989,-0.1103,-0.0101,0.0808,0.1414,0.1921,0.2224,0.2426,0.2727,0.2955,0.317,0.3283,0.3288,0.3301,0.332,0.3326,0.3315,0.3411,-2.2235,-2.1937,-2.1486,-2.1169,-2.0974,-2.0688,-1.998,-1.9026,-1.8611,-1.7961,-1.7143,-1.692,-1.6807,-1.6694,-1.6637,-1.6637,-1.6637,-1.6751,-1.6807,-1.6931,-1.6965,-1.7134,-1.7379,-1.749,-1.759,-1.7579,-1.77,-1.7767,-1.781,-1.7755,-1.77,-1.7534,-1.7179,-1.6909,-1.6751,-1.6477,-1.6202,-1.5914,-1.5546,-1.5059,-1.4529,-1.3872,-1.3285,-1.2744,-1.2313,-1.2127,-1.2003,-1.1817,-1.1622,-1.1622,-1.1622,-1.1254,-1.0751,-1.0117,-0.96,-0.9588,-0.9466,-0.9356,-0.9209,-0.9271,-0.9186,-0.888,-0.8964,-0.8821,-0.8369,-0.8117,-0.8003,-0.7902,-0.7703,-0.7323,-0.7186,-0.6981,-0.6751,-0.6551,-0.6437,-0.6337,-0.6018,-0.5479,-0.5035,-0.4723,-0.4493,-0.4344,-0.4314,-0.4259,-0.4279,-0.4206,-0.3851,-0.3587,-0.3497,-0.3326,-0.3095,-0.2926,-0.2941,-0.288,-0.2836,-0.2792,-0.253,-0.187,-0.0995,0.02,0.131,0.1818,0.2222,0.2322,0.2523,0.2826,0.3029,0.3144,0.3247,0.3232,0.3241,0.3271,0.3262,0.3234,0.3443,-2.2432,-2.2135,-2.1862,-2.16,-2.1325,-2.1141,-2.0392,-1.9437,-1.9137,-1.8425,-1.7467,-1.7256,-1.7099,-1.6965,-1.6807,-1.6761,-1.6818,-1.6874,-1.6987,-1.7155,-1.7256,-1.7379,-1.7656,-1.7877,-1.7975,-1.7975,-1.803,-1.8139,-1.8139,-1.8084,-1.7865,-1.7645,-1.7234,-1.6955,-1.6694,-1.642,-1.6066,-1.5856,-1.5498,-1.501,-1.4529,-1.3941,-1.3407,-1.2736,-1.2367,-1.212,-1.1996,-1.1809,-1.1622,-1.1622,-1.1622,-1.1435,-1.1115,-1.0688,-1.0308,-0.9983,-0.9792,-0.9664,-0.9624,-0.9444,-0.9344,-0.9156,-0.8974,-0.8826,-0.8591,-0.8313,-0.8062,-0.7849,-0.7512,-0.7215,-0.6939,-0.6978,-0.6897,-0.6777,-0.6695,-0.6478,-0.6192,-0.5829,-0.5339,-0.4919,-0.4629,-0.4339,-0.4237,-0.421,-0.4238,-0.4176,-0.3844,-0.3671,-0.3587,-0.332,-0.2974,-0.2888,-0.2887,-0.2834,-0.269,-0.2648,-0.2498,-0.175,-0.0787,0.0497,0.1501,0.2014,0.2422,0.2522,0.2725,0.2927,0.3029,0.313,0.323,0.323,0.323,0.3232,0.3332,0.3432,0.3732,-2.2739,-2.2445,-2.2235,-2.1975,-2.1663,-2.16,-2.083,-1.9734,-1.9513,-1.8781,-1.7913,-1.7479,-1.7323,-1.7145,-1.6965,-1.6976,-1.7043,-1.7145,-1.7323,-1.749,-1.7601,-1.77,-1.7931,-1.815,-1.8302,-1.841,-1.8464,-1.841,-1.8379,-1.8313,-1.803,-1.77,-1.7301,-1.7022,-1.6751,-1.6353,-1.6066,-1.5856,-1.5449,-1.4961,-1.4478,-1.3821,-1.3164,-1.2797,-1.2428,-1.2182,-1.2058,-1.1872,-1.1685,-1.1622,-1.1622,-1.1498,-1.131,-1.1122,-1.087,-1.0371,-1.0053,-0.9926,-0.9926,-0.9728,-0.967,-0.9542,-0.9215,-0.8868,-0.8695,-0.8424,-0.8115,-0.7803,-0.7482,-0.7191,-0.707,-0.7,-0.7029,-0.6881,-0.6889,-0.6707,-0.649,-0.6022,-0.5644,-0.5195,-0.4752,-0.441,-0.4083,-0.4138,-0.4185,-0.4053,-0.3827,-0.3666,-0.3583,-0.323,-0.2875,-0.2875,-0.2876,-0.2711,-0.2561,-0.2507,-0.2077,-0.1339,-0.0581,0.0784,0.1586,0.2192,0.2511,0.2624,0.2826,0.3019,0.313,0.323,0.323,0.323,0.3332,0.3433,0.3534,0.3734,0.3934,-2.2957,-2.2739,-2.2543,-2.2297,-2.2049,-2.1987,-2.127,-2.0194,-1.9936,-1.9126,-1.8043,-1.7744,-1.7534,-1.7368,-1.7256,-1.7256,-1.739,-1.7534,-1.7645,-1.7755,-1.792,-1.8073,-1.8247,-1.8422,-1.8583,-1.8679,-1.8851,-1.8732,-1.853,-1.8476,-1.815,-1.7755,-1.7357,-1.7078,-1.6751,-1.6296,-1.6077,-1.5798,-1.5391,-1.4902,-1.43,-1.3519,-1.2928,-1.2797,-1.249,-1.2251,-1.2182,-1.1996,-1.1809,-1.1692,-1.1622,-1.1498,-1.1428,-1.1428,-1.1247,-1.0814,-1.0428,-1.0238,-1.0238,-1.0174,-1.011,-0.9989,-0.9722,-0.9268,-0.8823,-0.8549,-0.8215,-0.7707,-0.7344,-0.7119,-0.7103,-0.7089,-0.7062,-0.7025,-0.7048,-0.6988,-0.6707,-0.6251,-0.5789,-0.5317,-0.4877,-0.4473,-0.4161,-0.4038,-0.4079,-0.3923,-0.3701,-0.3563,-0.3393,-0.3139,-0.2875,-0.2875,-0.2785,-0.2604,-0.2442,-0.2368,-0.1665,-0.0656,0.019,0.1346,0.1849,0.2361,0.2578,0.2791,0.2899,0.3093,0.3211,0.3229,0.323,0.3232,0.3433,0.3635,0.3734,0.3935,0.4236,-2.3078,-2.3017,-2.28,-2.2616,-2.2567,-2.242,-2.1752,-2.0761,-2.0425,-1.9524,-1.8348,-1.8084,-1.7877,-1.7711,-1.7601,-1.7645,-1.77,-1.781,-1.7909,-1.8084,-1.8247,-1.841,-1.856,-1.8774,-1.8839,-1.8893,-1.9064,-1.8905,-1.8679,-1.8572,-1.8247,-1.7755,-1.7357,-1.7078,-1.6751,-1.6249,-1.5914,-1.5808,-1.5332,-1.4734,-1.407,-1.3398,-1.3042,-1.2867,-1.2613,-1.2297,-1.2305,-1.212,-1.1996,-1.1809,-1.1685,-1.1622,-1.1553,-1.1358,-1.1303,-1.1178,-1.1052,-1.0933,-1.087,-1.0744,-1.0618,-1.0428,-1.0174,-0.9786,-0.9268,-0.8619,-0.8067,-0.754,-0.7154,-0.6983,-0.6967,-0.6822,-0.6924,-0.7009,-0.6986,-0.7036,-0.6881,-0.6423,-0.597,-0.5482,-0.4988,-0.4562,-0.4232,-0.4102,-0.3896,-0.375,-0.3662,-0.3434,-0.3276,-0.3011,-0.2837,-0.2827,-0.2756,-0.2581,-0.2413,-0.2252,-0.1454,-0.0276,0.0839,0.17,0.21,0.2415,0.2721,0.2932,0.3042,0.3161,0.3177,0.3196,0.3219,0.3331,0.3534,0.3734,0.3934,0.4135,0.4437,-2.3509,-2.3378,-2.3271,-2.315,-2.3103,-2.2909,-2.2342,-2.1547,-2.0867,-2.0097,-1.9195,-1.8557,-1.8193,-1.7975,-1.792,-1.7975,-1.8096,-1.8139,-1.8247,-1.8398,-1.8625,-1.8786,-1.8881,-1.9093,-1.9146,-1.9158,-1.9182,-1.9052,-1.8839,-1.8625,-1.8302,-1.7755,-1.7368,-1.7088,-1.6807,-1.6296,-1.6019,-1.574,-1.5205,-1.4538,-1.401,-1.358,-1.3285,-1.318,-1.2805,-1.2552,-1.2436,-1.2305,-1.212,-1.1996,-1.1817,-1.1817,-1.1872,-1.1802,-1.1794,-1.1747,-1.1685,-1.1498,-1.1122,-1.1059,-1.0933,-1.0807,-1.0491,-1.0047,-0.946,-0.8689,-0.8107,-0.7792,-0.7274,-0.6933,-0.6886,-0.6771,-0.6822,-0.6828,-0.6957,-0.6954,-0.6836,-0.6489,-0.6053,-0.5579,-0.5093,-0.4749,-0.432,-0.412,-0.3836,-0.3654,-0.356,-0.3343,-0.3181,-0.2921,-0.2839,-0.2756,-0.261,-0.2461,-0.2299,-0.2136,-0.1436,-0.0272,0.1198,0.1864,0.2157,0.2459,0.2761,0.297,0.3083,0.3106,0.3135,0.3173,0.3204,0.332,0.3533,0.3721,0.4011,0.4433,0.4634,-2.3878,-2.3747,-2.3628,-2.3569,-2.3463,-2.3271,-2.2824,-2.2168,-2.1297,-2.0543,-1.9799,-1.9036,-1.8518,-1.8313,-1.8313,-1.8367,-1.8464,-1.8572,-1.8667,-1.8827,-1.8934,-1.9105,-1.9146,-1.9303,-1.9408,-1.942,-1.9328,-1.9158,-1.8934,-1.8721,-1.8302,-1.7755,-1.7423,-1.7088,-1.6751,-1.6343,-1.6009,-1.5672,-1.5069,-1.4538,-1.4181,-1.3761,-1.3528,-1.3285,-1.3103,-1.2858,-1.2683,-1.256,-1.2428,-1.2313,-1.2189,-1.2127,-1.212,-1.212,-1.205,-1.1996,-1.1996,-1.1872,-1.1553,-1.1365,-1.1247,-1.1059,-1.0681,-1.011,-0.946,-0.8753,-0.8242,-0.7987,-0.7466,-0.7077,-0.6911,-0.6756,-0.678,-0.6802,-0.683,-0.6841,-0.6757,-0.6515,-0.6129,-0.5667,-0.5189,-0.4776,-0.4427,-0.4152,-0.3869,-0.3577,-0.3374,-0.3252,-0.3016,-0.2768,-0.278,-0.2709,-0.2559,-0.2415,-0.2253,-0.1923,-0.1237,-0.0269,0.1091,0.2018,0.2212,0.2411,0.2707,0.2912,0.3025,0.3053,0.3082,0.3138,0.3184,0.3262,0.3448,0.3775,0.4084,0.4506,0.4726,-2.4189,-2.4054,-2.3747,-2.3628,-2.3556,-2.3556,-2.3191,-2.2591,-2.1744,-2.0933,-2.0,-1.9263,-1.8798,-1.8744,-1.8744,-1.8744,-1.8798,-1.9028,-1.9081,-1.9133,-1.9303,-1.9356,-1.9408,-1.946,-1.9565,-1.9473,-1.9368,-1.921,-1.8987,-1.8721,-1.8344,-1.7909,-1.7479,-1.7145,-1.6751,-1.6353,-1.5941,-1.5536,-1.5069,-1.4706,-1.4359,-1.4061,-1.3761,-1.3519,-1.3338,-1.3147,-1.2911,-1.292,-1.2858,-1.2805,-1.2621,-1.2436,-1.2367,-1.2305,-1.2243,-1.2243,-1.2189,-1.212,-1.1934,-1.1747,-1.156,-1.1185,-1.0744,-1.0168,-0.953,-0.9087,-0.8576,-0.8052,-0.7591,-0.7269,-0.7007,-0.6775,-0.6739,-0.6675,-0.6692,-0.6724,-0.6659,-0.6569,-0.6194,-0.5744,-0.5278,-0.4878,-0.4543,-0.4196,-0.3744,-0.3456,-0.3144,-0.2939,-0.2887,-0.265,-0.2662,-0.2591,-0.2433,-0.2361,-0.2281,-0.1794,-0.113,-0.0264,0.0891,0.1617,0.2078,0.2364,0.257,0.2763,0.2876,0.2999,0.3022,0.3046,0.3064,0.3254,0.3459,0.3796,0.4125,0.4439,0.4668,-2.4234,-2.4203,-2.3982,-2.3936,-2.3865,-2.3819,-2.3644,-2.3238,-2.2153,-2.0953,-1.9821,-1.9361,-1.9158,-1.9158,-1.9158,-1.917,-1.917,-1.9251,-1.9303,-1.9356,-1.946,-1.9512,-1.9565,-1.9656,-1.9708,-1.9617,-1.9525,-1.9368,-1.921,-1.8839,-1.841,-1.803,-1.7579,-1.72,-1.6807,-1.6353,-1.5941,-1.5652,-1.5303,-1.5001,-1.4588,-1.4419,-1.4121,-1.395,-1.3709,-1.358,-1.3459,-1.3338,-1.3285,-1.3164,-1.3042,-1.292,-1.2736,-1.2683,-1.2621,-1.2613,-1.256,-1.2428,-1.2313,-1.2065,-1.1622,-1.1254,-1.0751,-1.0238,-0.9728,-0.9157,-0.8635,-0.8172,-0.7782,-0.7396,-0.6942,-0.6745,-0.6651,-0.6572,-0.657,-0.6583,-0.6549,-0.6474,-0.6302,-0.5782,-0.5358,-0.4983,-0.4655,-0.4316,-0.3789,-0.3256,-0.2943,-0.2715,-0.2667,-0.2521,-0.2528,-0.2455,-0.2298,-0.2141,-0.2063,-0.1511,-0.1027,-0.0173,0.0786,0.1323,0.1868,0.2155,0.2353,0.2541,0.2638,0.2657,0.276,0.285,0.2961,0.3096,0.3509,0.3926,0.4246,0.4465,0.4592,-2.4408,-2.4363,-2.4203,-2.4099,-2.4125,-2.4008,-2.3949,-2.3683,-2.2424,-2.1082,-1.9733,-1.9617,-1.9577,-1.9512,-1.9577,-1.9577,-1.9577,-1.9629,-1.9668,-1.972,-1.9772,-1.9772,-1.9811,-1.9811,-1.9862,-1.9823,-1.9617,-1.942,-1.9368,-1.8881,-1.8464,-1.8084,-1.7755,-1.7312,-1.6807,-1.6353,-1.5999,-1.5836,-1.5604,-1.5303,-1.4942,-1.4775,-1.4597,-1.4369,-1.4181,-1.401,-1.3881,-1.3761,-1.37,-1.358,-1.3528,-1.3407,-1.3285,-1.3164,-1.3103,-1.3042,-1.2928,-1.2797,-1.256,-1.2127,-1.1692,-1.1324,-1.0877,-1.0434,-0.9868,-0.9291,-0.8823,-0.8242,-0.7847,-0.7461,-0.7007,-0.6811,-0.6679,-0.6531,-0.6465,-0.6463,-0.6395,-0.6302,-0.6142,-0.5817,-0.5497,-0.5095,-0.4688,-0.4278,-0.3773,-0.3235,-0.3,-0.2688,-0.2535,-0.2466,-0.238,-0.223,-0.2,-0.1927,-0.1775,-0.1233,-0.0753,-0.0168,0.0682,0.1217,0.1669,0.195,0.2149,0.2343,0.2435,0.2426,0.2524,0.2721,0.2843,0.2971,0.3465,0.3865,0.4261,0.4478,0.4596,-2.4734,-2.4563,-2.435,-2.4261,-2.4112,-2.4125,-2.4008,-2.3794,-2.2648,-2.135,-2.0054,-1.9939,-1.9875,-1.9811,-1.9875,-1.9939,-1.9926,-2.0029,-2.0067,-2.008,-2.0029,-2.0131,-2.008,-2.008,-1.9978,-1.9939,-1.972,-1.9512,-1.942,-1.8946,-1.8518,-1.8084,-1.77,-1.7312,-1.6818,-1.6353,-1.6114,-1.6056,-1.5836,-1.5594,-1.5362,-1.5264,-1.502,-1.4775,-1.4656,-1.4488,-1.4309,-1.4249,-1.4189,-1.4079,-1.3881,-1.3761,-1.3709,-1.3459,-1.3338,-1.3329,-1.3094,-1.292,-1.2736,-1.2174,-1.1817,-1.1519,-1.1073,-1.0568,-1.0002,-0.9478,-0.8952,-0.8371,-0.8047,-0.7596,-0.7204,-0.6881,-0.6679,-0.6548,-0.6486,-0.637,-0.6309,-0.6281,-0.6069,-0.5765,-0.551,-0.5208,-0.4725,-0.4239,-0.3748,-0.3299,-0.2982,-0.2746,-0.2588,-0.2353,-0.2275,-0.2044,-0.1897,-0.1742,-0.1516,-0.1048,-0.049,-0.0,0.0499,0.0934,0.1382,0.1658,0.1853,0.2052,0.2064,0.2064,0.2244,0.2517,0.2814,0.3113,0.3405,0.3796,0.4185,0.4477,0.4489,-2.4892,-2.4835,-2.4607,-2.4492,-2.4403,-2.4171,-2.4054,-2.3858,-2.2704,-2.1403,-2.0361,-2.0131,-2.0131,-2.008,-2.0131,-2.0144,-2.0131,-2.0131,-2.022,-2.0233,-2.0233,-2.0169,-2.0182,-2.0195,-2.0093,-1.999,-1.9823,-1.9617,-1.9433,-1.9011,-1.8572,-1.8084,-1.759,-1.7088,-1.6818,-1.6477,-1.6249,-1.6114,-1.5999,-1.5894,-1.573,-1.5614,-1.5439,-1.5186,-1.5079,-1.4902,-1.4734,-1.4666,-1.4616,-1.4497,-1.43,-1.4181,-1.407,-1.3821,-1.3761,-1.3692,-1.3519,-1.3155,-1.2797,-1.2313,-1.1894,-1.1589,-1.1213,-1.0694,-1.0053,-0.953,-0.8952,-0.8506,-0.8182,-0.7661,-0.7269,-0.7012,-0.6811,-0.6609,-0.6548,-0.642,-0.639,-0.6269,-0.6071,-0.5707,-0.5435,-0.5173,-0.4817,-0.4439,-0.396,-0.3526,-0.3215,-0.2902,-0.2746,-0.2431,-0.2196,-0.1963,-0.1811,-0.1652,-0.1343,-0.0877,-0.0,-0.0,-0.0,0.0581,0.0928,0.1284,0.1475,0.1666,0.1687,0.1705,0.2064,0.2423,0.2871,0.3246,0.354,0.3823,0.4195,0.4373,0.4451,-2.523,-2.5131,-2.4892,-2.4791,-2.4677,-2.439,-2.4045,-2.3463,-2.2424,-2.1315,-2.0489,-2.0398,-2.0398,-2.0372,-2.0422,-2.0448,-2.0448,-2.0448,-2.0385,-2.0398,-2.0398,-2.0385,-2.0385,-2.0296,-2.0246,-2.0093,-1.9926,-1.972,-1.9433,-1.9052,-1.8518,-1.792,-1.7412,-1.7134,-1.6864,-1.6637,-1.6363,-1.6239,-1.6192,-1.6134,-1.5961,-1.5846,-1.5778,-1.5614,-1.5439,-1.5323,-1.5205,-1.5088,-1.497,-1.4843,-1.4715,-1.4606,-1.4488,-1.43,-1.4181,-1.4052,-1.3761,-1.3338,-1.2928,-1.2428,-1.2073,-1.1777,-1.1331,-1.0744,-1.0104,-0.9588,-0.9145,-0.8635,-0.8247,-0.7792,-0.7396,-0.7138,-0.6876,-0.6679,-0.6548,-0.6486,-0.6358,-0.6238,-0.6184,-0.5823,-0.5454,-0.5197,-0.4913,-0.4631,-0.425,-0.3893,-0.345,-0.3137,-0.2824,-0.2433,-0.2119,-0.1964,-0.173,-0.1493,-0.1258,-0.0945,-0.0,-0.0,-0.0,-0.0,0.0494,0.0837,0.1018,0.1206,0.131,0.1504,0.1878,0.2332,0.2955,0.3314,0.3595,0.3956,0.421,0.43,0.4389,-2.5563,-2.5425,-2.5231,-2.5009,-2.4924,-2.4466,-2.3737,-2.255,-2.1826,-2.1159,-2.0511,-2.0775,-2.0762,-2.0673,-2.0871,-2.0898,-2.0825,-2.0825,-2.0775,-2.0712,-2.0649,-2.0649,-2.0612,-2.0562,-2.0347,-2.0182,-2.0029,-1.9772,-1.942,-1.8999,-1.841,-1.7865,-1.749,-1.72,-1.6976,-1.6797,-1.6581,-1.642,-1.6316,-1.6249,-1.6134,-1.6124,-1.6019,-1.5846,-1.574,-1.5614,-1.543,-1.5323,-1.5156,-1.5088,-1.497,-1.497,-1.4902,-1.4656,-1.4588,-1.435,-1.3881,-1.3459,-1.3042,-1.2544,-1.2174,-1.1809,-1.124,-1.0661,-1.0155,-0.9652,-0.9204,-0.8759,-0.8312,-0.7917,-0.7526,-0.7204,-0.6881,-0.6745,-0.6548,-0.6482,-0.642,-0.6358,-0.6288,-0.6033,-0.5668,-0.5403,-0.507,-0.4737,-0.4508,-0.4171,-0.3736,-0.3294,-0.2981,-0.2434,-0.212,-0.1886,-0.1651,-0.1415,-0.1179,-0.0943,-0.0,-0.0,-0.0,-0.0,0.0162,0.0327,0.0664,0.0844,0.1031,0.1307,0.1853,0.2402,0.3035,0.3396,0.3764,0.3942,0.4297,0.4297,0.4389,-2.4587,-2.4549,-2.4326,-2.4169,-2.4047,-2.3439,-2.2706,-2.2086,-2.1849,-2.144,-2.0848,-2.0947,-2.0934,-2.0885,-2.0983,-2.0997,-2.0997,-2.0947,-2.0911,-2.0861,-2.0825,-2.0775,-2.0725,-2.0662,-2.0448,-2.0283,-2.008,-1.9875,-1.9368,-1.8958,-1.8464,-1.7975,-1.7656,-1.7423,-1.72,-1.7022,-1.6797,-1.6581,-1.6488,-1.6374,-1.6306,-1.6306,-1.6192,-1.6077,-1.6019,-1.5836,-1.5614,-1.5556,-1.5449,-1.5313,-1.5205,-1.5147,-1.5098,-1.497,-1.4784,-1.4478,-1.4001,-1.358,-1.3147,-1.2597,-1.2166,-1.1856,-1.1288,-1.0724,-1.0218,-0.9779,-0.9332,-0.8888,-0.8441,-0.8047,-0.7657,-0.7335,-0.7073,-0.6876,-0.6679,-0.6548,-0.6482,-0.6416,-0.6416,-0.6184,-0.5894,-0.5583,-0.5269,-0.4958,-0.4662,-0.4348,-0.4013,-0.3579,-0.3056,-0.2586,-0.2199,-0.1964,-0.173,-0.1415,-0.1336,-0.1179,-0.0864,-0.0,-0.0472,-0.0393,-0.0318,-0.008,0.0244,0.0661,0.1094,0.1544,0.2007,0.2548,0.3095,0.3482,0.3851,0.4119,0.4297,0.4297,0.4389,-2.444,-2.4341,-2.419,-2.3912,-2.3546,-2.292,-2.2396,-2.1993,-2.1753,-2.1488,-2.1207,-2.1229,-2.1229,-2.1277,-2.1326,-2.1277,-2.1193,-2.1193,-2.1095,-2.0961,-2.0938,-2.0838,-2.0775,-2.0712,-2.0498,-2.0334,-2.0118,-1.9926,-1.9371,-1.8934,-1.8518,-1.8193,-1.7865,-1.7689,-1.7479,-1.7312,-1.7032,-1.6864,-1.6648,-1.6488,-1.6431,-1.6374,-1.6306,-1.6249,-1.6181,-1.5951,-1.5798,-1.574,-1.5614,-1.542,-1.5313,-1.5254,-1.5264,-1.5088,-1.4843,-1.4478,-1.4121,-1.37,-1.3268,-1.2781,-1.2351,-1.1919,-1.1483,-1.0982,-1.0485,-0.9977,-0.953,-0.9087,-0.8635,-0.8182,-0.7852,-0.7531,-0.7269,-0.7012,-0.6876,-0.6675,-0.6609,-0.6478,-0.642,-0.6296,-0.6033,-0.5777,-0.5424,-0.5138,-0.4871,-0.4553,-0.4159,-0.3755,-0.3253,-0.2731,-0.2348,-0.2119,-0.1807,-0.1573,-0.1415,-0.1336,-0.11,-0.0943,-0.0943,-0.0866,-0.0788,-0.0634,-0.0241,0.0488,0.1319,0.1679,0.2052,0.2601,0.3062,0.3534,0.3837,0.4117,0.4208,0.4297,0.4389,-2.4709,-2.4422,-2.448,-2.3932,-2.3263,-2.2965,-2.2574,-2.2024,-2.1719,-2.1471,-2.1458,-2.1568,-2.1616,-2.1616,-2.1712,-2.1616,-2.152,-2.1423,-2.1277,-2.1046,-2.101,-2.0974,-2.0825,-2.0762,-2.0458,-2.027,-1.9991,-1.9674,-1.938,-1.883,-1.8341,-1.8293,-1.7974,-1.7645,-1.7427,-1.719,-1.6994,-1.6894,-1.6693,-1.6501,-1.6457,-1.6431,-1.6374,-1.6374,-1.6249,-1.6066,-1.5914,-1.5798,-1.5604,-1.5478,-1.541,-1.541,-1.5303,-1.5196,-1.4843,-1.4547,-1.4249,-1.3881,-1.3398,-1.2972,-1.2552,-1.2182,-1.1809,-1.1303,-1.0737,-1.0301,-0.9856,-0.928,-0.8823,-0.8441,-0.8117,-0.7792,-0.7531,-0.7269,-0.7134,-0.6872,-0.6745,-0.6679,-0.6548,-0.6424,-0.6176,-0.5925,-0.5648,-0.5374,-0.4956,-0.4654,-0.4289,-0.3909,-0.3411,-0.2838,-0.2482,-0.2184,-0.1961,-0.1728,-0.1573,-0.1415,-0.1336,-0.1258,-0.1258,-0.1179,-0.1102,-0.0947,-0.0792,0.016,0.1214,0.1724,0.2086,0.262,0.3004,0.3404,0.3793,0.4013,0.4115,0.4291,0.4389,-2.3702,-2.3596,-2.3506,-2.3207,-2.2847,-2.2755,-2.2666,-2.2463,-2.2356,-2.2077,-2.1793,-2.1855,-2.1902,-2.1935,-2.1935,-2.1888,-2.1855,-2.1712,-2.1568,-2.1375,-2.1291,-2.1109,-2.0911,-2.0795,-2.0414,-1.9917,-1.9554,-1.923,-1.8623,-1.8154,-1.7783,-1.7645,-1.7463,-1.7277,-1.7128,-1.6841,-1.6691,-1.6785,-1.6602,-1.6479,-1.6469,-1.6482,-1.6524,-1.6431,-1.6316,-1.6134,-1.6029,-1.5856,-1.5662,-1.5478,-1.542,-1.542,-1.542,-1.5264,-1.5088,-1.4852,-1.4428,-1.401,-1.364,-1.3155,-1.2674,-1.2305,-1.1872,-1.1435,-1.1059,-1.0624,-1.018,-0.9594,-0.9145,-0.8765,-0.8447,-0.8117,-0.7787,-0.7591,-0.7396,-0.7138,-0.6946,-0.6811,-0.6675,-0.6478,-0.628,-0.6055,-0.5776,-0.5498,-0.5092,-0.4759,-0.4347,-0.3967,-0.3532,-0.3046,-0.2662,-0.2381,-0.2187,-0.1959,-0.1727,-0.1573,-0.1493,-0.1415,-0.1336,-0.1336,-0.1336,-0.1182,-0.0947,0.0158,0.1112,0.1611,0.2036,0.2624,0.3004,0.3411,0.3644,0.3853,0.4078,0.4267,0.4285,-2.3581,-2.348,-2.3319,-2.3216,-2.3038,-2.2949,-2.2859,-2.2814,-2.2768,-2.2572,-2.2296,-2.2263,-2.2263,-2.2263,-2.2263,-2.2231,-2.2184,-2.203,-2.1841,-2.1712,-2.1471,-2.1277,-2.1104,-2.0735,-2.0263,-1.9729,-1.9118,-1.8611,-1.7987,-1.787,-1.7715,-1.7533,-1.7265,-1.7081,-1.6898,-1.66,-1.6379,-1.6562,-1.6406,-1.6287,-1.6373,-1.6454,-1.6528,-1.6477,-1.6363,-1.6239,-1.6077,-1.5904,-1.5788,-1.5546,-1.5478,-1.542,-1.5362,-1.5254,-1.5156,-1.4911,-1.4547,-1.4189,-1.3761,-1.3338,-1.2858,-1.2428,-1.2058,-1.1685,-1.1373,-1.094,-1.0428,-0.9913,-0.946,-0.9075,-0.8765,-0.8436,-0.8177,-0.7917,-0.7657,-0.74,-0.7138,-0.6876,-0.6741,-0.6609,-0.6416,-0.616,-0.587,-0.5543,-0.5206,-0.4751,-0.4362,-0.4001,-0.3509,-0.3167,-0.2803,-0.2483,-0.2364,-0.2178,-0.204,-0.1807,-0.173,-0.1651,-0.1491,-0.1415,-0.1336,-0.1258,-0.0943,0.0079,0.0866,0.1503,0.1996,0.2416,0.2928,0.324,0.3549,0.3774,0.4,0.4224,0.423,-2.394,-2.3797,-2.364,-2.3538,-2.3509,-2.326,-2.3172,-2.3127,-2.3038,-2.2934,-2.2904,-2.2737,-2.2706,-2.2646,-2.2646,-2.2555,-2.2463,-2.2342,-2.217,-2.1935,-2.1698,-2.1322,-2.0914,-2.0494,-1.9972,-1.9303,-1.8583,-1.8185,-1.7811,-1.7626,-1.7545,-1.7649,-1.7627,-1.7496,-1.7075,-1.6592,-1.6155,-1.6264,-1.6193,-1.5985,-1.6101,-1.6223,-1.6345,-1.6402,-1.6394,-1.6244,-1.6151,-1.6009,-1.5856,-1.5672,-1.5478,-1.542,-1.5362,-1.5313,-1.5205,-1.497,-1.4715,-1.4359,-1.3941,-1.3571,-1.3094,-1.2674,-1.2367,-1.1988,-1.167,-1.124,-1.0737,-1.0358,-0.9901,-0.9454,-0.9145,-0.8823,-0.8565,-0.8242,-0.7922,-0.7596,-0.7335,-0.7007,-0.6876,-0.6745,-0.6482,-0.6284,-0.5958,-0.5631,-0.5243,-0.4794,-0.4355,-0.3995,-0.3554,-0.3231,-0.2853,-0.2613,-0.2429,-0.2335,-0.2158,-0.2024,-0.1864,-0.1795,-0.1636,-0.1488,-0.1415,-0.1336,-0.1022,-0.0236,0.0551,0.134,0.1819,0.2152,0.2658,0.3174,0.3381,0.361,0.3916,0.413,0.4146,-2.3982,-2.394,-2.394,-2.3855,-2.3754,-2.3566,-2.348,-2.3407,-2.3275,-2.3216,-2.3216,-2.3187,-2.3142,-2.3008,-2.3008,-2.2918,-2.2768,-2.2663,-2.2388,-2.2123,-2.1932,-2.1401,-2.0852,-2.03,-1.9541,-1.8732,-1.7922,-1.7441,-1.7415,-1.7226,-1.6942,-1.6873,-1.6759,-1.6593,-1.6209,-1.5948,-1.5998,-1.6079,-1.6024,-1.5886,-1.6026,-1.6096,-1.5967,-1.6009,-1.609,-1.6165,-1.6249,-1.6171,-1.5951,-1.572,-1.5536,-1.5478,-1.542,-1.542,-1.5284,-1.5041,-1.4798,-1.4449,-1.4078,-1.3569,-1.3135,-1.2962,-1.2546,-1.2112,-1.1819,-1.1545,-1.1108,-1.087,-1.0358,-0.9907,-0.953,-0.928,-0.9017,-0.8571,-0.8247,-0.7857,-0.7526,-0.7204,-0.6942,-0.6745,-0.6548,-0.6284,-0.5958,-0.5627,-0.5229,-0.4776,-0.4308,-0.3878,-0.3748,-0.3361,-0.2906,-0.2734,-0.2562,-0.2309,-0.2063,-0.2121,-0.2058,-0.1919,-0.1778,-0.1631,-0.1483,-0.1335,-0.0943,-0.0314,0.0471,0.1258,0.1658,0.1979,0.2552,0.306,0.3241,0.3447,0.3827,0.4036,0.4055]},{"header":{"parameterUnit":"m.s-1","parameterCategory":1,"la1":31.0,"la2":29.5877,"lo1":-88.7671,"lo2":-86.6584,"dx":0.0162,"dy":0.0185,"nx":115,"ny":88,"refTime":"2022-12-08T18:00:00:Z","depth":0,"parameterNumber":3,"parameterNumberName":"V-component_of_WINDS"},"data":[0.0,0.0,0.0,0.0,0.0,0.0,0.0,0.0,0.0,0.0,0.0,0.0,0.0,0.0,0.0,0.0,0.0,0.0,0.0,0.0,0.0,0.0,0.0,0.0,0.0,0.0,0.0,0.0,0.0,0.0,0.0,0.0,0.0,0.0,0.0,0.0,0.0,0.0,0.0,0.0,0.0,0.0,0.0,0.0,0.0,0.0,0.0,0.0,0.0,0.0,0.0,0.0,0.0,0.0,0.0,0.0,0.0,0.0,0.0,0.0,0.0,0.0,0.0,0.0,0.0,0.0,0.0,0.0,0.0,0.0,0.0,0.0,0.0,0.0,0.0,0.0,0.0,0.0,0.0,0.0,0.0,0.0,0.0,0.0,0.0,0.0,0.0,0.0,0.0,0.0,0.0,0.0,0.0,0.0,0.0,0.0,0.0,0.0,0.0,0.0,0.0,0.0,0.0,0.0,0.0,0.0,0.0,0.0,0.0,0.0,0.0,0.0,0.0,0.0,0.0,0.0,0.0,0.0,0.0,0.0,0.0,0.0,0.0,0.0,0.0,0.0,0.0,0.0,0.0,0.0,0.0,0.0,0.0,0.0,0.0,0.0,0.0,0.0,0.0,0.0,0.0,0.0,0.0,0.0,0.0,0.0,0.0,0.0,0.0,0.0,0.0,0.0,0.0,0.0,0.0,0.0,0.0,0.0,0.0,0.0,0.0,0.0,0.0,0.0,0.0,0.0,0.0,0.0,0.0,0.0,0.0,0.0,0.0,0.0,0.0,0.0,0.0,0.0,0.0,0.0,0.0,0.0,0.0,0.0,0.0,0.0,0.0,0.0,0.0,0.0,0.0,0.0,0.0,0.0,0.0,0.0,0.0,0.0,0.0,0.0,0.0,0.0,0.0,0.0,0.0,0.0,0.0,0.0,0.0,0.0,0.0,0.0,0.0,0.0,0.0,0.0,0.0,0.0,0.0,0.0,0.0,0.0,0.0,0.0,0.0,0.0,0.0,0.0,0.0,0.0,0.0,0.0,0.0,0.0,0.0,0.0,0.0,0.0,0.0,0.0,0.0,0.0,0.0,0.0,0.0,0.0,0.0,0.0,0.0,0.0,0.0,0.0,0.0,0.0,0.0,0.0,0.0,0.0,0.0,0.0,0.0,0.0,0.0,0.0,0.0,0.0,0.0,0.0,0.0,0.0,0.0,0.0,0.0,0.0,0.0,0.0,0.0,0.0,0.0,0.0,0.0,0.0,0.0,0.0,0.0,0.0,0.0,0.0,0.0,0.0,0.0,0.0,0.0,0.0,0.0,0.0,0.0,0.0,0.0,0.0,0.0,0.0,0.0,0.0,0.0,0.0,0.0,0.0,0.0,0.0,0.0,0.0,0.0,0.0,0.0,0.0,0.0,0.0,0.0,0.0,0.0,0.0,0.0,0.0,0.0,0.0,0.0,0.0,0.0,0.0,0.0,0.0,0.0,0.0,0.0,0.0,0.0,0.0,0.0,0.0,0.0,0.0,0.0,0.0,0.0,0.0,0.0,0.0,0.0,0.0,0.0,0.0,0.0,0.0,0.0,0.0,0.0,0.0,0.0,0.0,0.0,0.0,0.0,0.0,0.0,0.0,0.0,0.0,0.0,0.0,0.0,0.0,0.0,0.0,0.0,0.0,0.0,0.0,0.0,0.0,0.0,0.0,0.0,0.0,0.0,0.0,0.0,0.0,0.0,0.0,0.0,0.0,0.0,0.0,0.0,0.0,0.0,0.0,0.0,0.0,0.0,0.0,0.0,0.0,0.0,0.0,0.0,0.0,0.0,0.0,0.0,0.0,0.0,0.0,0.0,0.0,0.0,0.0,0.0,0.0,0.0,0.0,0.0,0.0,0.0,0.0,0.0,0.0,0.0,0.0,0.0,0.0,0.0,0.0,0.0,0.0,0.0,0.0,0.0,0.0,0.0,0.0,0.0,0.0,0.0,0.0,0.0,0.0,0.0,0.0,0.0,0.0,0.0,0.0,0.0,0.0,0.0,0.0,0.0,0.0,0.0,0.0,0.0,0.0,0.0,0.0,0.0,0.0,0.0,0.0,0.0,0.0,0.0,0.0,0.0,0.0,0.0,0.0,0.0,0.0,0.0,0.0,0.0,0.0,0.0,0.0,0.0,0.0,0.0,0.0,0.0,0.0,0.0,0.0,0.0,0.0,0.0,0.0,0.0,0.0,0.0,0.0,0.0,0.0,0.0,0.0,0.0,0.0,0.0,0.0,0.0,0.0,0.0,0.0,0.0,0.0,0.0,0.0,0.0,0.0,0.0,0.0,0.0,0.0,0.0,0.0,0.0,0.0,0.0,0.0,0.0,0.0,0.0,0.0,0.0,0.0,0.0,0.0,0.0,0.0,0.0,0.0,0.0,0.0,0.0,0.0,0.0,0.0,0.0,0.0,0.0,0.0,0.0,0.0,0.0,0.0,0.0,0.0,0.0,0.0,0.0,0.0,0.0,0.0,0.0,0.0,0.0,0.0,0.0,0.0,0.0,0.0,0.0,0.0,0.0,0.0,0.0,0.0,0.0,0.0,0.0,0.0,0.0,0.0,0.0,0.0,0.0,0.0,0.0,0.0,0.0,0.0,0.0,0.0,0.0,0.0,0.0,0.0,0.0,0.0,0.0,0.0,0.0,0.0,0.0,0.0,0.0,0.0,0.0,0.0,0.0,0.0,0.0,0.0,0.0,0.0,0.0,0.0,0.0,0.0,0.0,0.0,0.0,0.0,0.0,0.0,0.0,0.0,0.0,0.0,0.0,0.0,0.0,0.0,0.0,0.0,0.0,0.0,0.0,0.0,0.0,0.0,0.0,0.0,0.0,0.0,0.0,0.0,0.0,0.0,0.0,0.0,0.0,0.0,0.0,0.0,0.0,0.0,0.0,0.0,0.0,0.0,0.0,0.0,0.0,0.0,0.0,0.0,0.0,0.0,0.0,0.0,0.0,0.0,0.0,0.0,0.0,0.0,0.0,0.0,0.0,0.0,0.0,0.0,0.0,0.0,0.0,0.0,0.0,0.0,0.0,0.0,0.0,0.0,0.0,0.0,0.0,0.0,0.0,0.0,0.0,0.0,0.0,0.0,0.0,0.0,0.0,0.0,0.0,0.0,0.0,0.0,0.0,0.0,0.0,0.0,0.0,0.0,0.0,0.0,0.0,0.0,0.0,0.0,0.0,0.0,0.0,0.0,0.0,0.0,0.0,0.0,0.0,0.0,0.0,0.0,0.0,0.0,0.0,0.0,0.0,0.0,0.0,0.0,0.0,0.0,0.0,0.0,0.0,0.0,0.0,0.0,0.0,0.0,0.0,0.0,0.0,0.0,0.0,0.0,0.0,0.0,0.0,0.0,0.0,0.0,0.0,0.0,0.0,0.0,0.0,0.0,0.0,0.0,0.0,0.0,0.0,0.0,0.0,0.0,0.0,0.0,0.0,0.0,0.0,0.0,0.0,0.0,0.0,0.0,0.0,0.0,0.0,0.0,0.0,0.0,0.0,0.0,0.0,0.0,0.0,0.0,0.0,0.0,0.0,0.0,0.0,0.0,0.0,0.0,0.0,0.0,0.0,0.0,0.0,0.0,0.0,0.0,0.0,0.0,0.0,0.0,0.0,0.0,0.0,0.0,0.0,0.0,0.0,0.0,0.0,0.0,0.0,0.0,0.0,0.0,0.0,0.0,0.0,0.0,0.0,0.0,0.0,0.0,0.0,0.0,0.0,0.0,0.0,0.0,0.0,0.0,0.0,0.0,0.0,0.0,0.0,0.0,0.0,0.0,0.0,0.0,0.0,0.0,0.0,0.0,0.0,0.0,0.0,0.0,0.0,0.0,0.0,0.0,0.0,0.0,0.0,0.0,0.0,0.0,0.0,0.0,0.0,0.0,0.0,0.0,0.0,0.0,0.0,0.0,0.0,0.0,0.0,0.0,0.0,0.0,0.0,0.0,0.0,0.0,0.0,0.0,0.0,0.0,0.0,0.0,0.0,0.0,0.0,0.0,0.0,0.0,0.0,0.0,0.0,0.0,0.0,0.0,0.0,0.0,0.0,0.0,0.0,0.0,0.0,0.0,0.0,0.0,0.0,0.0,0.0,0.0,0.0,0.0,0.0,0.0,0.0,0.0,0.0,0.0,0.0,0.0,0.0,0.0,0.0,0.0,0.0,0.0,0.0,0.0,0.0,0.0,0.0,0.0,0.0,0.0,0.0,0.0,0.0,0.0,0.0,0.0,-0.5878,0.0,0.0,0.0,-0.59,0.0,0.0,0.0,0.0,0.0,0.0,0.0,0.0,0.0,0.0,0.0,0.0,0.0,0.0,0.0,0.0,0.0,0.0,0.0,0.0,0.0,0.0,0.0,0.0,0.0,0.0,0.0,0.0,0.0,0.0,0.0,0.0,0.0,0.0,0.0,0.0,0.0,0.0,0.0,0.0,0.0,0.0,0.0,0.0,0.0,0.0,0.0,0.0,0.0,0.0,0.0,0.0,0.0,0.0,0.0,0.0,0.0,0.0,0.0,0.0,0.0,0.0,0.0,0.0,0.0,0.0,0.0,0.0,0.0,0.0,0.0,0.0,0.0,0.0,0.0,0.0,0.0,0.0,0.0,0.0,0.0,0.0,0.0,0.0,0.0,0.0,0.0,0.0,0.0,0.0,0.0,0.0,0.0,0.0,0.0,0.0,0.0,0.0,0.0,0.0,0.0,0.0,0.0,0.0,0.0,0.0,0.0,0.0,0.0,0.0,-0.5793,-0.5793,-0.5793,-0.5819,-0.59,0.0,0.0,0.0,0.0,0.0,0.0,0.0,0.0,0.0,0.0,0.0,0.0,0.0,0.0,0.0,0.0,0.0,0.0,0.0,0.0,0.0,0.0,0.0,0.0,0.0,0.0,0.0,0.0,0.0,0.0,0.0,0.0,0.0,0.0,0.0,0.0,0.0,0.0,0.0,0.0,0.0,0.0,0.0,0.0,0.0,0.0,0.0,0.0,0.0,0.0,0.0,0.0,0.0,0.0,0.0,0.0,0.0,0.0,0.0,0.0,0.0,0.0,0.0,0.0,0.0,0.0,0.0,0.0,0.0,0.0,0.0,0.0,0.0,0.0,0.0,0.0,0.0,0.0,0.0,0.0,0.0,0.0,0.0,0.0,0.0,0.0,0.0,0.0,0.0,0.0,0.0,0.0,0.0,0.0,0.0,0.0,0.0,0.0,0.0,0.0,0.0,0.0,0.0,0.0,0.0,0.0,0.0,0.0,0.0,0.0,0.0,0.0,-0.5793,-0.5837,-0.5918,0.0,0.0,0.0,0.0,0.0,0.0,0.0,0.0,0.0,0.0,0.0,0.0,0.0,0.0,0.0,0.0,0.0,0.0,0.0,0.0,0.0,0.0,0.0,0.0,0.0,0.0,0.0,0.0,0.0,0.0,0.0,0.0,0.0,0.0,0.0,0.0,0.0,0.0,0.0,0.0,0.0,0.0,0.0,0.0,0.0,0.0,0.0,0.0,0.0,0.0,0.0,0.0,0.0,0.0,0.0,0.0,0.0,0.0,0.0,0.0,0.0,0.0,0.0,0.0,0.0,0.0,0.0,0.0,0.0,0.0,0.0,0.0,0.0,0.0,0.0,0.0,0.0,0.0,0.0,0.0,0.0,0.0,0.0,0.0,0.0,0.0,0.0,0.0,0.0,0.0,0.0,0.0,0.0,0.0,0.0,0.0,0.0,0.0,0.0,0.0,0.0,0.0,0.0,0.0,0.0,0.0,0.0,0.0,0.0,0.0,-0.5793,-0.5793,-0.5804,0.0,-0.5991,0.0,0.0,0.0,0.0,0.0,0.0,0.0,0.0,0.0,0.0,0.0,0.0,0.0,0.0,0.0,0.0,0.0,0.0,0.0,0.0,0.0,0.0,0.0,0.0,0.0,0.0,0.0,0.0,0.0,0.0,0.0,0.0,0.0,0.0,0.0,0.0,0.0,0.0,0.0,0.0,0.0,0.0,0.0,0.0,0.0,0.0,0.0,0.0,0.0,0.0,0.0,0.0,0.0,0.0,0.0,0.0,0.0,0.0,0.0,0.0,0.0,0.0,0.0,0.0,0.0,0.0,0.0,0.0,0.0,0.0,0.0,0.0,0.0,0.0,0.0,0.0,0.0,0.0,0.0,0.0,0.0,0.0,0.0,0.0,0.0,0.0,0.0,0.0,0.0,0.0,0.0,0.0,0.0,0.0,0.0,0.0,0.0,0.0,0.0,0.0,0.0,0.0,0.0,0.0,0.0,0.0,0.0,0.0,0.0,0.0,-0.5936,-0.6202,-0.6261,-0.6195,0.0,0.0,0.0,0.0,0.0,0.0,0.0,0.0,0.0,0.0,0.0,0.0,0.0,0.0,0.0,0.0,0.0,0.0,0.0,0.0,0.0,0.0,0.0,0.0,0.0,0.0,0.0,0.0,0.0,0.0,0.0,0.0,0.0,0.0,0.0,0.0,0.0,0.0,0.0,0.0,0.0,0.0,0.0,0.0,0.0,0.0,0.0,0.0,0.0,0.0,0.0,0.0,0.0,0.0,0.0,0.0,0.0,0.0,0.0,0.0,0.0,0.0,0.0,0.0,0.0,0.0,0.0,0.0,0.0,0.0,0.0,0.0,0.0,0.0,0.0,0.0,0.0,0.0,0.0,0.0,0.0,0.0,0.0,0.0,0.0,0.0,0.0,0.0,0.0,0.0,0.0,0.0,0.0,0.0,0.0,0.0,0.0,0.0,0.0,0.0,0.0,0.0,0.0,0.0,0.0,0.0,0.0,0.0,0.0,0.0,-0.5933,-0.6156,-0.6476,-0.656,-0.6417,-0.602,0.0,0.0,0.0,0.0,0.0,0.0,0.0,0.0,0.0,0.0,0.0,0.0,0.0,0.0,0.0,0.0,0.0,0.0,0.0,0.0,0.0,0.0,0.0,0.0,0.0,0.0,0.0,0.0,0.0,0.0,0.0,0.0,0.0,0.0,0.0,0.0,0.0,0.0,0.0,0.0,0.0,0.0,0.0,0.0,0.0,0.0,0.0,0.0,0.0,0.0,0.0,0.0,0.0,0.0,0.0,0.0,0.0,0.0,0.0,0.0,0.0,0.0,0.0,0.0,0.0,0.0,0.0,0.0,0.0,0.0,0.0,0.0,0.0,0.0,0.0,0.0,0.0,0.0,0.0,0.0,0.0,0.0,0.0,0.0,0.0,0.0,0.0,0.0,0.0,0.0,0.0,0.0,0.0,0.0,0.0,0.0,0.0,0.0,0.0,0.0,0.0,0.0,0.0,0.0,0.0,0.0,0.0,0.0,-0.5834,-0.6242,-0.6474,-0.6519,-0.657,-0.6417,0.0,0.0,0.0,0.0,0.0,0.0,0.0,0.0,0.0,0.0,0.0,0.0,0.0,0.0,0.0,0.0,0.0,0.0,0.0,0.0,0.0,0.0,0.0,0.0,0.0,0.0,0.0,0.0,0.0,0.0,0.0,0.0,0.0,0.0,0.0,0.0,0.0,0.0,0.0,0.0,0.0,0.0,0.0,0.0,0.0,0.0,0.0,0.0,0.0,0.0,0.0,0.0,0.0,0.0,0.0,0.0,0.0,0.0,0.0,0.0,0.0,0.0,0.0,0.0,0.0,0.0,0.0,0.0,0.0,0.0,0.0,0.0,0.0,0.0,0.0,0.0,0.0,0.0,0.0,0.0,0.0,0.0,0.0,0.0,0.0,0.0,0.0,0.0,0.0,0.0,0.0,0.0,0.0,0.0,0.0,0.0,0.0,0.0,0.0,0.0,0.0,0.0,0.0,0.0,0.0,0.0,0.0,0.0,0.0,-0.6405,-0.7091,-0.7299,-0.6968,-0.7013,-0.689,0.0,0.0,0.0,0.0,0.0,0.0,0.0,0.0,0.0,0.0,0.0,0.0,0.0,0.0,0.0,0.0,0.0,0.0,0.0,0.0,0.0,0.0,0.0,0.0,0.0,0.0,0.0,0.0,0.0,0.0,0.0,0.0,0.0,0.0,0.0,0.0,0.0,0.0,0.0,0.0,0.0,0.0,0.0,0.0,0.0,0.0,0.0,0.0,0.0,0.0,0.0,0.0,0.0,0.0,0.0,0.0,0.0,0.0,0.0,0.0,0.0,0.0,0.0,0.0,0.0,0.0,0.0,0.0,0.0,0.0,0.0,0.0,0.0,0.0,0.0,0.0,0.0,0.0,0.0,0.0,0.0,0.0,0.0,0.0,0.0,0.0,0.0,0.0,0.0,0.0,0.0,0.0,0.0,0.0,0.0,0.0,0.0,0.0,0.0,0.0,0.0,0.0,0.0,0.0,0.0,0.0,0.0,0.0,0.0,-0.7201,-0.7715,-0.7815,-0.7521,-0.7368,-0.7147,0.0,0.0,0.0,0.0,0.0,0.0,0.0,0.0,0.0,0.0,0.0,0.0,0.0,0.0,0.0,0.0,0.0,0.0,0.0,0.0,0.0,0.0,0.0,0.0,0.0,0.0,0.0,0.0,0.0,0.0,0.0,0.0,0.0,0.0,0.0,0.0,0.0,0.0,0.0,0.0,0.0,0.0,0.0,0.0,0.0,0.0,0.0,0.0,0.0,0.0,0.0,0.0,0.0,0.0,0.0,0.0,0.0,0.0,0.0,0.0,0.0,0.0,0.0,0.0,0.0,0.0,0.0,0.0,0.0,0.0,0.0,0.0,0.0,0.0,0.0,0.0,0.0,0.0,0.0,0.0,0.0,0.0,0.0,0.0,0.0,0.0,0.0,0.0,0.0,0.0,0.0,0.0,0.0,0.0,0.0,0.0,0.0,0.0,0.0,0.0,0.0,0.0,0.0,0.0,0.0,0.0,0.0,0.0,-0.7521,-0.8243,-0.8133,-0.8101,-0.8122,-0.7648,-0.7214,0.0,0.0,0.0,0.0,0.0,0.0,0.0,0.0,0.0,0.0,0.0,0.0,0.0,0.0,0.0,0.0,0.0,0.0,0.0,0.0,0.0,0.0,0.0,0.0,0.0,0.0,0.0,0.0,0.0,0.0,0.0,0.0,0.0,0.0,0.0,0.0,0.0,0.0,0.0,0.0,0.0,0.0,0.0,0.0,0.0,0.0,0.0,0.0,0.0,0.0,0.0,0.0,0.0,0.0,0.0,0.0,0.0,0.0,0.0,0.0,0.0,0.0,0.0,0.0,0.0,0.0,0.0,0.0,0.0,0.0,0.0,0.0,0.0,0.0,0.0,0.0,0.0,0.0,0.0,0.0,0.0,0.0,0.0,0.0,0.0,0.0,0.0,0.0,0.0,0.0,0.0,0.0,0.0,0.0,0.0,0.0,0.0,0.0,0.0,0.0,0.0,0.0,0.0,0.0,0.0,0.0,0.0,0.0,0.0,-0.8922,-0.9145,-0.9215,-0.9119,-0.874,-0.8182,0.0,0.0,0.0,0.0,0.0,0.0,0.0,0.0,0.0,0.0,0.0,0.0,0.0,0.0,0.0,0.0,0.0,0.0,0.0,0.0,0.0,0.0,0.0,0.0,0.0,0.0,0.0,0.0,0.0,0.0,0.0,0.0,0.0,0.0,0.0,0.0,0.0,0.0,0.0,0.0,0.0,0.0,0.0,0.0,0.0,0.0,0.0,0.0,0.0,0.0,0.0,0.0,0.0,0.0,0.0,0.0,0.0,0.0,0.0,0.0,0.0,0.0,0.0,0.0,0.0,0.0,0.0,0.0,0.0,0.0,0.0,0.0,0.0,0.0,0.0,0.0,0.0,0.0,0.0,0.0,0.0,0.0,0.0,0.0,0.0,0.0,0.0,0.0,0.0,0.0,0.0,0.0,0.0,0.0,0.0,0.0,0.0,0.0,0.0,0.0,0.0,0.0,0.0,0.0,0.0,0.0,0.0,0.0,0.0,-1.0659,-1.0367,-1.0152,-1.0107,-0.9477,-0.8873,-0.831,0.0,0.0,0.0,0.0,0.0,0.0,0.0,0.0,0.0,0.0,0.0,0.0,0.0,0.0,0.0,0.0,0.0,0.0,0.0,0.0,0.0,0.0,0.0,0.0,0.0,0.0,0.0,0.0,0.0,0.0,0.0,0.0,0.0,0.0,0.0,0.0,0.0,0.0,0.0,0.0,0.0,0.0,0.0,0.0,0.0,0.0,0.0,0.0,0.0,0.0,0.0,0.0,0.0,0.0,0.0,0.0,0.0,0.0,0.0,0.0,0.0,0.0,0.0,0.0,0.0,0.0,0.0,0.0,0.0,0.0,0.0,0.0,0.0,0.0,0.0,0.0,0.0,0.0,0.0,0.0,0.0,0.0,0.0,0.0,0.0,0.0,0.0,0.0,0.0,0.0,0.0,0.0,0.0,0.0,0.0,0.0,0.0,0.0,0.0,0.0,0.0,0.0,0.0,0.0,0.0,0.0,0.0,0.0,-1.3191,-1.1854,-1.1117,-1.0975,-0.9915,-0.9383,0.0,0.0,0.0,0.0,0.0,0.0,0.0,0.0,0.0,0.0,0.0,0.0,0.0,0.0,0.0,0.0,0.0,0.0,0.0,0.0,0.0,0.0,0.0,0.0,0.0,0.0,0.0,0.0,0.0,0.0,0.0,0.0,0.0,0.0,0.0,0.0,0.0,0.0,0.0,0.0,0.0,0.0,0.0,0.0,0.0,0.0,0.0,0.0,0.0,0.0,0.0,0.0,0.0,0.0,0.0,0.0,0.0,0.0,0.0,0.0,0.0,0.0,0.0,0.0,0.0,0.0,0.0,0.0,0.0,0.0,0.0,0.0,0.0,0.0,0.0,0.0,0.0,0.0,0.0,0.0,0.0,0.0,0.0,0.0,0.0,0.0,0.0,0.0,0.0,0.0,0.0,0.0,0.0,0.0,0.0,0.0,0.0,0.0,0.0,0.0,0.0,0.0,0.0,0.0,0.0,0.0,0.0,0.0,0.0,-1.3602,-1.3935,-1.349,-1.2275,-1.1219,-1.035,0.0,0.0,0.0,0.0,0.0,0.0,0.0,0.0,0.0,0.0,0.0,0.0,0.0,0.0,0.0,0.0,0.0,0.0,0.0,0.0,0.0,0.0,0.0,0.0,0.0,0.0,0.0,0.0,0.0,0.0,0.0,0.0,0.0,0.0,0.0,0.0,0.0,0.0,0.0,0.0,0.0,0.0,0.0,0.0,0.0,0.0,0.0,0.0,0.0,0.0,0.0,0.0,0.0,0.0,0.0,0.0,0.0,0.0,0.0,0.0,0.0,0.0,0.0,0.0,0.0,0.0,0.0,0.0,0.0,0.0,0.0,0.0,0.0,0.0,0.0,0.0,0.0,0.0,0.0,0.0,0.0,0.0,0.0,0.0,0.0,0.0,0.0,0.0,0.0,0.0,0.0,0.0,0.0,0.0,0.0,0.0,0.0,0.0,0.0,0.0,0.0,0.0,0.0,0.0,0.0,0.0,0.0,0.0,-1.3762,-1.469,-1.5184,-1.4991,-1.4175,-1.2821,-1.1628,0.0,0.0,0.0,0.0,0.0,0.0,0.0,0.0,0.0,0.0,0.0,0.0,0.0,0.0,0.0,0.0,0.0,0.0,0.0,0.0,0.0,0.0,0.0,0.0,0.0,0.0,0.0,0.0,0.0,0.0,0.0,0.0,0.0,0.0,0.0,0.0,0.0,0.0,0.0,0.0,0.0,0.0,0.0,0.0,0.0,0.0,0.0,0.0,0.0,0.0,0.0,0.0,0.0,0.0,0.0,0.0,0.0,0.0,0.0,0.0,0.0,0.0,0.0,0.0,0.0,0.0,0.0,0.0,0.0,0.0,0.0,0.0,0.0,0.0,0.0,0.0,0.0,0.0,0.0,0.0,0.0,0.0,0.0,0.0,0.0,0.0,0.0,0.0,0.0,0.0,0.0,0.0,0.0,0.0,0.0,0.0,0.0,0.0,0.0,0.0,0.0,0.0,0.0,0.0,0.0,0.0,0.0,0.0,-1.4461,-1.5914,-1.5942,-1.6032,-1.6192,-1.4354,-1.2908,0.0,0.0,0.0,0.0,0.0,0.0,0.0,0.0,0.0,0.0,0.0,0.0,0.0,0.0,0.0,0.0,0.0,0.0,0.0,0.0,0.0,0.0,0.0,0.0,0.0,0.0,0.0,0.0,0.0,0.0,0.0,0.0,0.0,0.0,0.0,0.0,0.0,0.0,0.0,0.0,0.0,0.0,0.0,0.0,0.0,0.0,0.0,0.0,0.0,0.0,0.0,0.0,0.0,0.0,0.0,0.0,0.0,0.0,0.0,0.0,0.0,0.0,0.0,0.0,0.0,0.0,0.0,0.0,0.0,0.0,0.0,0.0,0.0,0.0,0.0,0.0,0.0,0.0,0.0,0.0,0.0,0.0,0.0,0.0,0.0,0.0,0.0,0.0,0.0,0.0,0.0,0.0,0.0,0.0,0.0,0.0,0.0,0.0,0.0,0.0,0.0,0.0,0.0,0.0,0.0,0.0,0.0,0.0,-1.524,-1.6366,-1.7101,-1.722,-1.6689,-1.4676,-1.333,0.0,0.0,0.0,0.0,0.0,0.0,0.0,0.0,0.0,0.0,0.0,0.0,0.0,0.0,0.0,0.0,0.0,0.0,0.0,0.0,0.0,0.0,0.0,0.0,0.0,0.0,0.0,0.0,0.0,0.0,0.0,0.0,0.0,0.0,0.0,0.0,0.0,0.0,0.0,0.0,0.0,0.0,0.0,0.0,0.0,0.0,0.0,0.0,-1.2084,0.0,0.0,0.0,0.0,0.0,0.0,0.0,0.0,0.0,0.0,0.0,0.0,0.0,0.0,0.0,0.0,0.0,0.0,0.0,0.0,0.0,0.0,0.0,0.0,0.0,0.0,0.0,0.0,0.0,0.0,0.0,0.0,0.0,0.0,0.0,0.0,0.0,0.0,0.0,0.0,0.0,0.0,0.0,0.0,0.0,0.0,0.0,0.0,0.0,0.0,0.0,0.0,0.0,0.0,0.0,0.0,0.0,0.0,0.0,-1.6131,-1.7142,-1.7807,-1.793,-1.7431,-1.577,-1.4366,0.0,0.0,0.0,0.0,0.0,0.0,0.0,0.0,0.0,0.0,0.0,0.0,0.0,0.0,0.0,0.0,0.0,0.0,0.0,0.0,0.0,0.0,0.0,0.0,0.0,0.0,0.0,0.0,0.0,0.0,0.0,0.0,0.0,0.0,0.0,0.0,0.0,0.0,0.0,0.0,0.0,0.0,0.0,0.0,0.0,0.0,0.0,0.0,0.0,0.0,0.0,0.0,0.0,0.0,0.0,0.0,0.0,0.0,0.0,0.0,0.0,0.0,0.0,0.0,0.0,0.0,0.0,0.0,0.0,0.0,0.0,0.0,0.0,0.0,0.0,0.0,0.0,0.0,0.0,0.0,0.0,0.0,0.0,0.0,0.0,0.0,0.0,0.0,0.0,0.0,0.0,0.0,0.0,0.0,0.0,0.0,0.0,0.0,0.0,0.0,0.0,0.0,0.0,0.0,0.0,0.0,0.0,-1.5756,-1.6928,-1.8064,-1.8323,-1.8414,-1.8393,-1.7042,-1.5449,-1.3686,0.0,0.0,0.0,0.0,0.0,0.0,0.0,0.0,0.0,0.0,0.0,0.0,0.0,0.0,0.0,0.0,0.0,0.0,0.0,0.0,0.0,0.0,0.0,0.0,0.0,0.0,0.0,0.0,0.0,0.0,0.0,0.0,0.0,0.0,0.0,0.0,0.0,0.0,-1.1477,-1.2466,0.0,0.0,0.0,0.0,0.0,0.0,0.0,0.0,-1.2993,0.0,0.0,0.0,0.0,0.0,0.0,0.0,0.0,0.0,0.0,0.0,0.0,0.0,0.0,0.0,0.0,0.0,0.0,0.0,0.0,0.0,0.0,0.0,0.0,0.0,0.0,0.0,0.0,0.0,0.0,0.0,0.0,0.0,0.0,0.0,0.0,0.0,0.0,0.0,0.0,0.0,0.0,0.0,0.0,0.0,0.0,0.0,0.0,0.0,0.0,0.0,0.0,0.0,0.0,0.0,0.0,-1.4898,-1.6069,-1.7412,-1.9009,-1.8959,-1.9031,-1.9301,-1.765,-1.605,-1.4654,0.0,0.0,0.0,0.0,0.0,0.0,0.0,0.0,0.0,0.0,0.0,0.0,0.0,0.0,0.0,0.0,0.0,0.0,0.0,0.0,0.0,0.0,0.0,0.0,0.0,0.0,0.0,0.0,0.0,0.0,0.0,0.0,0.0,0.0,0.0,0.0,0.0,0.0,0.0,-1.3863,-1.5149,0.0,0.0,0.0,0.0,0.0,0.0,0.0,0.0,-1.3758,0.0,0.0,0.0,0.0,0.0,0.0,0.0,0.0,0.0,0.0,0.0,0.0,0.0,0.0,0.0,0.0,0.0,0.0,0.0,0.0,0.0,0.0,0.0,0.0,0.0,0.0,0.0,0.0,0.0,0.0,0.0,0.0,0.0,0.0,0.0,0.0,0.0,0.0,0.0,0.0,0.0,0.0,0.0,0.0,0.0,0.0,0.0,0.0,0.0,0.0,0.0,0.0,0.0,0.0,0.0,-1.5584,-1.6848,-1.829,-1.9998,-1.9501,-1.942,-1.9789,-1.7971,-1.6327,0.0,0.0,0.0,0.0,0.0,0.0,0.0,0.0,0.0,0.0,0.0,0.0,0.0,0.0,0.0,0.0,0.0,0.0,0.0,0.0,0.0,0.0,0.0,0.0,0.0,0.0,0.0,0.0,0.0,0.0,0.0,0.0,0.0,0.0,0.0,0.0,0.0,0.0,0.0,0.0,-1.5168,-1.6271,-1.7103,0.0,0.0,0.0,0.0,0.0,0.0,-1.6266,-1.5717,0.0,0.0,0.0,0.0,0.0,0.0,0.0,0.0,0.0,0.0,0.0,0.0,0.0,0.0,0.0,0.0,0.0,0.0,0.0,0.0,0.0,0.0,0.0,0.0,0.0,0.0,0.0,0.0,0.0,0.0,0.0,0.0,0.0,0.0,0.0,0.0,0.0,0.0,0.0,0.0,0.0,0.0,0.0,0.0,0.0,0.0,0.0,0.0,0.0,0.0,0.0,0.0,0.0,0.0,0.0,-1.6285,-1.7516,-1.9083,-2.0926,-1.9998,-1.9729,-2.0333,-1.831,-1.6525,0.0,0.0,0.0,0.0,0.0,0.0,0.0,0.0,0.0,0.0,0.0,0.0,0.0,0.0,0.0,0.0,0.0,0.0,0.0,0.0,0.0,0.0,0.0,0.0,0.0,0.0,0.0,0.0,0.0,0.0,0.0,0.0,0.0,0.0,0.0,0.0,0.0,0.0,0.0,0.0,0.0,-1.7141,-1.7949,-1.8206,0.0,0.0,0.0,0.0,-1.8198,-1.8149,0.0,0.0,0.0,0.0,0.0,0.0,0.0,0.0,0.0,0.0,0.0,0.0,0.0,0.0,0.0,0.0,0.0,0.0,0.0,0.0,0.0,0.0,0.0,0.0,0.0,0.0,0.0,0.0,0.0,0.0,0.0,0.0,0.0,0.0,0.0,0.0,0.0,0.0,0.0,0.0,0.0,0.0,0.0,0.0,0.0,0.0,0.0,0.0,0.0,0.0,0.0,0.0,0.0,0.0,0.0,0.0,-1.6485,-1.765,-1.9397,-2.1751,-2.0459,-2.0214,-2.1287,-1.8809,-1.6799,0.0,0.0,0.0,0.0,0.0,0.0,0.0,0.0,0.0,0.0,0.0,0.0,0.0,0.0,0.0,0.0,0.0,0.0,0.0,0.0,0.0,0.0,0.0,0.0,0.0,0.0,0.0,0.0,0.0,0.0,0.0,0.0,0.0,0.0,0.0,0.0,0.0,0.0,0.0,0.0,0.0,-1.7979,-1.8838,-1.961,-2.0111,0.0,0.0,-1.9866,-1.9158,-1.9051,0.0,0.0,0.0,0.0,0.0,0.0,0.0,0.0,0.0,0.0,0.0,0.0,0.0,0.0,0.0,0.0,0.0,0.0,0.0,0.0,0.0,0.0,0.0,0.0,0.0,0.0,0.0,0.0,0.0,0.0,0.0,0.0,0.0,0.0,0.0,0.0,0.0,0.0,0.0,0.0,0.0,0.0,0.0,0.0,0.0,0.0,0.0,0.0,0.0,0.0,0.0,0.0,0.0,0.0,0.0,-1.3919,-1.6712,-1.8275,-2.0118,-2.22,-2.1552,-2.1349,-2.1635,-1.9445,-1.7362,0.0,0.0,0.0,0.0,0.0,0.0,0.0,0.0,0.0,0.0,0.0,0.0,0.0,0.0,0.0,0.0,0.0,0.0,0.0,0.0,0.0,0.0,0.0,0.0,0.0,0.0,0.0,0.0,0.0,0.0,0.0,0.0,0.0,0.0,0.0,0.0,0.0,0.0,0.0,0.0,0.0,0.0,-2.0372,-2.1333,0.0,0.0,0.0,-2.175,-2.141,0.0,0.0,0.0,0.0,0.0,0.0,0.0,0.0,0.0,0.0,0.0,0.0,0.0,0.0,0.0,0.0,0.0,0.0,0.0,0.0,0.0,0.0,0.0,0.0,0.0,0.0,0.0,0.0,0.0,0.0,0.0,0.0,0.0,0.0,0.0,0.0,0.0,0.0,0.0,0.0,0.0,0.0,0.0,0.0,0.0,0.0,0.0,0.0,0.0,0.0,0.0,0.0,0.0,0.0,0.0,0.0,0.0,-1.6873,-1.8797,-2.0663,-2.2493,-2.2474,-2.2248,-2.1948,-1.9965,0.0,0.0,0.0,0.0,0.0,0.0,0.0,0.0,0.0,0.0,0.0,0.0,0.0,0.0,0.0,0.0,0.0,0.0,0.0,0.0,0.0,0.0,0.0,0.0,0.0,0.0,0.0,-0.6185,0.0,0.0,0.0,0.0,0.0,0.0,0.0,0.0,0.0,0.0,0.0,0.0,0.0,0.0,-1.9966,-2.1475,-2.2637,-2.3405,0.0,0.0,-2.365,-2.366,-2.2972,-2.2,0.0,0.0,0.0,0.0,0.0,0.0,0.0,0.0,0.0,0.0,0.0,0.0,0.0,0.0,0.0,0.0,0.0,0.0,0.0,0.0,0.0,0.0,0.0,0.0,0.0,0.0,0.0,0.0,0.0,0.0,0.0,0.0,0.0,0.0,0.0,0.0,0.0,0.0,0.0,0.0,0.0,0.0,0.0,0.0,0.0,0.0,0.0,0.0,0.0,0.0,0.0,0.0,0.0,0.0,-1.4074,-1.685,-1.8885,-2.0876,-2.2796,-2.2682,-2.2534,-2.2421,-2.0331,-1.8433,0.0,0.0,0.0,0.0,0.0,0.0,0.0,0.0,0.0,0.0,0.0,0.0,0.0,0.0,0.0,0.0,0.0,0.0,0.0,0.0,0.0,0.0,0.0,0.0,0.0,0.0,0.0,0.0,0.0,0.0,0.0,0.0,0.0,0.0,0.0,0.0,0.0,0.0,0.0,0.0,0.0,-2.0636,-2.1578,-2.3127,-2.4484,0.0,-2.5401,-2.5429,-2.542,-2.4748,-2.3361,-2.0912,0.0,0.0,0.0,0.0,0.0,0.0,0.0,0.0,0.0,0.0,0.0,0.0,0.0,0.0,0.0,0.0,0.0,0.0,0.0,0.0,0.0,0.0,0.0,0.0,0.0,0.0,0.0,0.0,0.0,0.0,0.0,0.0,0.0,0.0,0.0,0.0,0.0,0.0,0.0,0.0,0.0,0.0,0.0,0.0,0.0,0.0,0.0,0.0,0.0,0.0,0.0,0.0,0.0,-1.4253,-1.7125,-1.9538,-2.1552,-2.308,-2.3792,-2.3696,-2.2765,-2.1416,-1.9586,0.0,0.0,0.0,0.0,0.0,0.0,0.0,0.0,0.0,0.0,0.0,0.0,0.0,0.0,0.0,0.0,0.0,0.0,0.0,0.0,0.0,0.0,0.0,0.0,0.0,0.0,0.0,0.0,-0.9071,-0.9561,-0.9944,0.0,0.0,0.0,0.0,0.0,0.0,0.0,0.0,0.0,0.0,-2.1888,-2.377,-2.5064,0.0,0.0,-2.7155,-2.7015,-2.6476,-2.5714,-2.4664,-2.3163,-2.2049,0.0,0.0,0.0,0.0,0.0,0.0,0.0,0.0,0.0,0.0,0.0,0.0,0.0,0.0,0.0,0.0,0.0,0.0,0.0,0.0,0.0,0.0,0.0,0.0,0.0,0.0,0.0,0.0,0.0,0.0,0.0,0.0,0.0,0.0,0.0,0.0,0.0,0.0,0.0,0.0,0.0,0.0,0.0,0.0,0.0,0.0,0.0,0.0,0.0,0.0,0.0,0.0,-1.4702,-1.7609,-2.013,-2.2021,-2.3323,-2.458,-2.4627,-2.3306,-2.2291,-2.0677,0.0,0.0,0.0,0.0,0.0,0.0,0.0,0.0,0.0,0.0,0.0,0.0,0.0,0.0,0.0,0.0,0.0,0.0,0.0,0.0,0.0,0.0,0.0,0.0,0.0,0.0,0.0,0.0,-0.9941,-1.0258,-1.0108,0.0,0.0,0.0,0.0,0.0,0.0,0.0,0.0,0.0,0.0,-2.3487,-2.5255,-2.6459,-2.7496,-2.8357,-2.8333,-2.8071,-2.7746,-2.7004,-2.6172,-2.5314,0.0,0.0,0.0,0.0,0.0,0.0,0.0,0.0,0.0,0.0,0.0,0.0,0.0,0.0,0.0,0.0,0.0,0.0,0.0,0.0,0.0,0.0,0.0,0.0,0.0,0.0,0.0,-0.6027,0.0,0.0,-0.5916,0.0,0.0,0.0,0.0,0.0,0.0,0.0,0.0,0.0,0.0,0.0,0.0,0.0,0.0,0.0,0.0,0.0,0.0,0.0,0.0,0.0,0.0,-1.5501,-1.835,-2.0517,-2.2198,-2.3395,-2.4834,-2.5115,-2.4179,-2.2761,-2.1609,-2.0782,0.0,0.0,0.0,0.0,0.0,0.0,0.0,0.0,0.0,0.0,0.0,0.0,0.0,0.0,0.0,0.0,0.0,0.0,0.0,0.0,0.0,0.0,0.0,0.0,0.0,0.0,-1.1042,-1.1233,-1.0966,0.0,0.0,0.0,0.0,0.0,0.0,0.0,0.0,0.0,-2.0216,-2.3294,-2.5441,-2.5561,-2.6997,-2.8395,-2.9244,-2.8728,-2.8504,-2.9283,-2.8743,-2.7969,0.0,0.0,0.0,0.0,0.0,0.0,0.0,0.0,0.0,0.0,0.0,0.0,0.0,0.0,0.0,0.0,0.0,0.0,0.0,0.0,0.0,0.0,0.0,0.0,0.0,0.0,0.0,-0.8865,-0.8742,0.0,0.0,0.0,0.0,0.0,0.0,0.0,0.0,0.0,0.0,0.0,-1.523,-1.59,0.0,0.0,0.0,0.0,0.0,0.0,0.0,0.0,0.0,0.0,0.0,0.0,-1.6192,-1.851,-2.1139,-2.2848,-2.3652,-2.5072,-2.5428,-2.4639,-2.4097,-2.2781,-2.0632,0.0,0.0,0.0,0.0,0.0,0.0,0.0,0.0,0.0,0.0,0.0,0.0,0.0,0.0,0.0,0.0,0.0,0.0,0.0,0.0,0.0,0.0,0.0,0.0,0.0,-1.1711,0.0,0.0,0.0,0.0,0.0,0.0,0.0,0.0,0.0,0.0,0.0,-2.0404,-2.2701,-2.4432,-2.6137,-2.785,-2.8589,-2.9271,0.0,0.0,0.0,0.0,0.0,0.0,0.0,0.0,0.0,0.0,0.0,0.0,0.0,0.0,-2.5258,-2.2691,-2.2192,-2.2076,-2.1754,0.0,0.0,0.0,0.0,0.0,0.0,0.0,0.0,0.0,0.0,0.0,0.0,0.0,0.0,-1.1163,-1.1278,-1.0554,0.0,0.0,0.0,0.0,0.0,0.0,0.0,0.0,-1.5637,-1.6858,-1.7896,-1.8394,-1.8788,0.0,-1.8185,-1.6738,0.0,0.0,0.0,0.0,0.0,0.0,0.0,0.0,-1.7367,-1.947,-2.1736,-2.3354,-2.4248,-2.5382,-2.5688,-2.5193,-2.4966,-2.3605,-2.1026,-1.9339,-1.7411,0.0,0.0,0.0,0.0,0.0,0.0,0.0,0.0,0.0,0.0,0.0,0.0,0.0,0.0,0.0,0.0,0.0,0.0,0.0,0.0,0.0,0.0,0.0,-1.2966,0.0,0.0,0.0,0.0,0.0,0.0,0.0,0.0,0.0,-1.795,-2.0162,-2.2505,-2.4452,-2.6197,-2.7903,-2.9617,0.0,0.0,0.0,0.0,0.0,0.0,0.0,-3.068,-3.016,-3.0281,-3.0273,-2.9711,-3.0125,-3.0677,-3.1187,0.0,0.0,-2.6515,-2.5722,-2.5662,-2.5679,-2.634,-2.7103,-2.762,-2.8422,-2.9276,0.0,0.0,0.0,0.0,0.0,0.0,0.0,0.0,-1.2991,-1.303,0.0,-1.2786,0.0,0.0,0.0,0.0,-1.3791,-1.4605,0.0,0.0,-1.8153,-1.9448,-2.0855,-2.0482,-2.0705,-2.1404,-2.0112,-1.948,-1.9351,-1.6454,0.0,0.0,0.0,0.0,0.0,0.0,-1.8937,-2.1073,-2.2404,-2.3732,-2.5044,-2.5683,-2.599,-2.5901,-2.5372,-2.4198,-2.2241,-2.1345,-1.9932,-1.7779,-1.4791,0.0,0.0,0.0,0.0,0.0,0.0,0.0,0.0,0.0,0.0,0.0,0.0,0.0,0.0,0.0,0.0,0.0,0.0,0.0,0.0,-1.3368,0.0,0.0,0.0,0.0,0.0,0.0,0.0,0.0,0.0,-2.1517,-2.0847,-2.286,-2.4736,-2.5596,0.0,0.0,0.0,0.0,-3.3258,-3.3315,-3.3355,-3.3375,-3.3373,-3.3429,-3.3454,-3.3441,0.0,0.0,-3.2335,-3.3696,-3.4753,-3.4783,-3.5402,-3.4968,-3.1763,-3.0948,-3.0775,-3.0808,-3.1343,-3.1961,-3.2089,-3.266,-3.3561,-1.9038,0.0,0.0,0.0,0.0,-1.5981,-1.6026,-1.6111,-1.5893,-1.5799,-1.5854,-1.5614,0.0,0.0,0.0,0.0,0.0,0.0,-1.792,-1.9022,-2.0345,-2.1556,-2.2622,-2.3158,-2.3528,-2.371,-2.2924,-2.2591,-2.2642,-2.0732,-1.8843,-1.7108,0.0,0.0,0.0,0.0,-2.034,-2.1927,-2.3201,-2.4279,-2.5146,-2.5806,-2.617,-2.6243,-2.5715,-2.524,-2.4802,-2.3056,-2.1618,-2.0477,-1.7956,0.0,0.0,0.0,0.0,0.0,0.0,0.0,0.0,0.0,0.0,0.0,0.0,0.0,0.0,0.0,0.0,0.0,0.0,0.0,-1.5696,-1.629,-1.6572,0.0,0.0,0.0,0.0,0.0,0.0,0.0,0.0,0.0,-2.5789,-2.6521,-2.7569,0.0,0.0,-3.1841,-3.247,-3.346,-3.4156,-3.4231,-3.475,0.0,-3.5157,-3.5208,-3.5248,-3.5256,-3.5561,-3.6012,-3.6612,-3.7125,-3.76,-3.8171,-3.8505,-3.8519,-3.8182,-3.6047,-3.4529,-3.4379,-3.454,-3.4921,-3.5499,-3.6295,-3.7159,-2.189,-2.0319,-1.935,-1.8979,-1.9005,-1.9005,-1.9116,-1.9279,-1.8974,-1.8935,-1.905,-1.8458,-1.8173,-1.8097,-1.7474,0.0,0.0,0.0,-1.9965,-2.0655,-2.2161,-2.3321,-2.418,-2.4516,-2.4859,-2.5145,-2.4557,-2.4372,-2.4483,-2.3589,-2.2467,-2.1074,0.0,-1.9391,-1.9836,-2.0676,-2.1623,-2.2733,-2.4003,-2.4963,-2.5612,-2.6009,-2.6312,-2.6505,-2.6285,-2.6107,-2.6,-2.4499,-2.3206,-2.2248,-2.0766,-1.8758,0.0,0.0,0.0,0.0,0.0,0.0,0.0,0.0,0.0,0.0,0.0,-0.5792,-0.6613,0.0,0.0,0.0,-1.3841,-1.6392,-1.7785,-1.8332,0.0,0.0,0.0,0.0,0.0,0.0,0.0,-2.4824,-2.6553,-2.8262,-2.9933,-3.0749,-3.1312,-3.1681,-3.2769,-3.3837,-3.4692,0.0,-3.6048,-3.6086,-3.654,-3.6904,-3.6935,-3.6982,-3.7097,-3.7468,-3.8532,-3.945,-3.9998,-4.0329,-4.0721,-4.1159,-4.1318,-4.1461,-4.2007,-4.0344,-3.8676,-3.8026,-3.8148,-3.8548,-3.9077,-3.9855,-4.0632,-2.3899,-2.3934,-2.2552,-2.188,-2.1782,-2.1812,-2.2176,-2.2735,-2.2,-2.2067,-2.2573,-2.122,-2.0554,-2.0456,-1.9927,0.0,-1.975,-2.1233,-2.1999,-2.2239,-2.3644,-2.476,-2.5562,-2.5048,-2.5224,-2.5951,-2.5433,-2.5207,-2.5265,-2.5264,-2.5292,-2.5205,-2.2389,-2.0947,-2.0993,-2.2091,-2.296,-2.3558,-2.4725,-2.5614,-2.6279,-2.633,-2.6469,-2.6708,-2.6892,-2.6794,-2.6328,-2.5725,-2.4752,-2.3415,-2.3098,-2.1592,-1.8557,0.0,0.0,0.0,0.0,0.0,0.0,0.0,0.0,0.0,0.0,0.0,0.0,0.0,0.0,-1.3563,-1.6692,0.0,-1.9077,-2.0009,0.0,0.0,0.0,-2.2524,-2.3331,-2.4954,-2.665,-2.8314,0.0,0.0,-3.339,-3.5002,-3.5488,-3.4089,-3.5138,-3.6323,-3.7178,-3.8033,-3.8613,-3.8692,-3.879,-3.885,-3.9059,-3.9057,-3.9316,-4.0031,-4.146,-4.2323,-4.2422,-4.2986,-4.3573,-4.3596,-4.3676,-4.3721,-4.3799,-4.3656,-4.3305,-4.1675,-4.1855,-4.2307,-4.2249,-4.2864,-4.3467,-2.5409,-2.5483,-2.524,-2.4447,-2.3455,-2.3455,-2.3489,-2.3605,-2.3424,-2.3408,-2.3473,-2.3096,-2.2686,-2.2207,-2.2681,-2.258,-2.2129,-2.3071,-2.3897,-2.4561,-2.4945,-2.558,-2.6387,-2.6351,-2.6434,-2.6636,-2.6593,-2.6633,-2.6692,-2.6199,-2.5981,-2.5982,-2.4653,-2.3957,-2.3947,-2.4104,-2.4458,-2.5067,-2.5228,-2.5631,-2.6262,-2.6452,-2.664,-2.6842,-2.7055,-2.7175,-2.726,-2.669,-2.5976,-2.509,-2.3981,-2.2162,-1.957,-1.8023,0.0,0.0,0.0,0.0,0.0,0.0,0.0,0.0,0.0,-0.9625,-1.051,0.0,-1.4669,0.0,-1.9037,-2.1614,-2.252,-2.3544,0.0,0.0,-2.5654,-2.6657,-2.6876,-2.8424,-3.0146,-3.1868,-3.2963,-3.4245,-3.5974,-3.712,-3.813,-3.8926,-3.8324,-3.8091,-3.8965,-3.9781,-4.0576,-4.1221,-4.1832,-4.2354,-4.2273,-4.244,-4.2466,-4.2747,-4.3136,-4.3379,-4.3398,-4.356,-4.3884,-4.4431,-4.4571,-4.4851,-4.5423,-4.5572,-4.5436,-4.4961,-4.409,-4.3276,-4.33,-4.3953,-4.4498,-2.597,-2.6079,-2.6151,-2.574,-2.4978,-2.4978,-2.496,-2.4926,-2.4942,-2.4891,-2.4857,-2.4545,-2.405,-2.3436,-2.3915,-2.3929,-2.3596,-2.4264,-2.4879,-2.5413,-2.5749,-2.6168,-2.664,-2.6759,-2.6842,-2.6893,-2.6975,-2.7055,-2.7085,-2.6722,-2.6578,-2.6592,-2.6151,-2.5884,-2.5822,-2.5357,-2.5249,-2.5511,-2.5665,-2.5965,-2.6365,-2.6555,-2.6759,-2.7007,-2.7198,-2.7448,-2.7694,-2.7123,-2.6508,-2.5793,-2.4413,-2.2841,-2.1072,-1.9963,-1.8498,0.0,0.0,0.0,0.0,0.0,0.0,0.0,0.0,0.0,0.0,0.0,-1.7869,-1.9215,-2.2122,-2.4378,-2.5451,-2.6467,-2.7275,-2.7729,-2.8977,-2.9965,-3.0367,-3.1928,-3.3507,-3.4828,-3.5721,-3.6887,-3.8557,-3.9198,-4.014,-4.182,-4.1256,-4.0839,-4.1296,-4.1781,-4.2267,-4.2816,-4.3292,-4.3619,-4.3617,-4.3961,-4.4246,-4.4302,-4.4596,-4.4863,-4.4855,-4.4862,-4.5004,-4.544,-4.5504,-4.5624,-4.6118,-4.6209,-4.6209,-4.6079,-4.5448,-4.4837,-4.4764,-4.5114,-4.5426,-2.6155,-2.6352,-2.6253,-2.6203,-2.6203,-2.6203,-2.6203,-2.6203,-2.6203,-2.6203,-2.617,-2.5578,-2.5013,-2.4413,-2.4543,-2.4607,-2.4625,-2.5113,-2.5414,-2.5548,-2.6184,-2.652,-2.6623,-2.6674,-2.6742,-2.6876,-2.6876,-2.6909,-2.6975,-2.6992,-2.6992,-2.6992,-2.6975,-2.6942,-2.6876,-2.6115,-2.5646,-2.5547,-2.6031,-2.6382,-2.652,-2.6657,-2.6825,-2.7117,-2.7355,-2.7604,-2.7801,-2.7396,-2.6834,-2.6097,-2.4829,-2.3684,-2.2733,-2.1548,-2.03,0.0,-1.7559,0.0,0.0,0.0,0.0,0.0,0.0,0.0,0.0,-1.8733,-2.1294,-2.3696,-2.5563,-2.7056,-2.8126,-2.9117,-3.0076,-3.0983,-3.1867,-3.278,-3.3711,-3.5166,-3.6518,-3.7469,-3.8266,-3.9353,-4.0927,-4.1238,-4.1888,-4.3267,-4.351,-4.352,-4.3773,-4.3676,-4.3675,-4.3875,-4.3922,-4.4153,-4.4163,-4.4643,-4.5099,-4.5211,-4.5685,-4.6287,-4.619,-4.6217,-4.6257,-4.6269,-4.6177,-4.6187,-4.6209,-4.6287,-4.6398,-4.6443,-4.6456,-4.6436,-4.6157,-4.6079,-4.6196,-2.6862,-2.7068,-2.6452,-2.6203,-2.6203,-2.6203,-2.6203,-2.6203,-2.6203,-2.6203,-2.6187,-2.6127,-2.6064,-2.6067,-2.6118,-2.6135,-2.6101,-2.62,-2.6216,-2.613,-2.6367,-2.6554,-2.6606,-2.6674,-2.6691,-2.6742,-2.6842,-2.691,-2.6926,-2.6992,-2.6992,-2.6992,-2.6959,-2.6926,-2.6876,0.0,0.0,0.0,-2.6264,-2.6365,-2.6572,-2.6792,-2.6957,-2.7181,-2.7465,0.0,-2.7953,-2.8002,-2.7771,-2.7148,-2.6307,0.0,0.0,0.0,0.0,0.0,0.0,0.0,0.0,0.0,0.0,0.0,-2.2274,-2.2445,-2.0362,-2.2758,-2.5317,-2.738,-2.8703,-2.9851,-3.0852,-3.1815,-3.2725,-3.3673,-3.4523,-3.541,-3.6297,-3.7272,-3.847,-3.9995,-4.0335,-4.1082,-4.2656,-4.3005,-4.3404,-4.4346,-4.454,-4.486,-4.5481,-4.4947,-4.4868,-4.5515,-4.557,-4.5663,-4.5728,-4.5806,-4.5864,-4.6021,-4.6101,-4.628,-4.6289,-4.6295,-4.6316,-4.6327,-4.6303,-4.6299,-4.6265,-4.6747,-4.7254,-4.7255,-4.7795,-4.7892,-4.6514,-4.6215,-4.6196,-2.7334,-2.7172,-2.6882,-2.6535,0.0,-2.6203,-2.6203,-2.6203,-2.6203,-2.6203,-2.622,-2.6277,-2.6347,-2.6399,-2.652,-2.652,-2.6485,-2.6434,-2.6382,-2.6295,-2.6382,-2.6434,-2.6452,-2.6589,-2.6657,-2.664,-2.6775,-2.6792,-2.6792,-2.6808,-2.6842,-2.6859,-2.6825,-2.6809,-2.6792,-2.664,-2.6468,-2.6295,-2.6347,-2.6486,-2.6657,-2.6875,-2.712,-2.7355,-2.7569,0.0,0.0,0.0,0.0,0.0,0.0,0.0,0.0,0.0,0.0,-2.3584,-2.3162,-2.2721,-2.2282,-2.3051,-2.3713,-2.4229,-2.658,-2.7078,-2.4719,-2.6433,-2.8269,-2.9788,-3.0882,-3.1891,-3.2894,-3.3817,-3.4768,-3.5688,-3.6578,-3.742,-3.8291,-3.9118,-4.013,-4.1315,-4.1927,-4.2694,-4.3957,-4.4151,-4.4501,-4.5278,-4.5453,-4.5587,-4.5982,-4.576,-4.5674,-4.6127,-4.6208,-4.6196,-4.6196,-4.6209,-4.6209,-4.6211,-4.6269,-4.6293,-4.6289,-4.63,-4.6436,-4.68,-4.6956,-4.703,-4.7431,-4.7855,-4.8123,-4.817,-4.8496,-4.8568,-4.7639,-4.7489,-4.7482,-2.7837,-2.7311,-2.7276,-2.6866,-2.6203,-2.6203,-2.6203,-2.6203,-2.6203,0.0,0.0,-2.6277,-2.6312,-2.6295,-2.6434,-2.6485,-2.645,-2.6347,-2.6312,-2.6295,-2.6295,-2.6312,-2.6295,-2.6486,-2.6572,-2.6623,-2.664,-2.6708,-2.6708,-2.6708,-2.6708,-2.6708,-2.6708,-2.6708,-2.6674,-2.664,-2.6521,-2.6365,-2.6468,-2.6606,-2.6742,-2.7006,-2.7213,-2.7478,-2.7701,-2.7933,-2.8237,-2.8345,-2.8167,-2.7674,-2.7689,-2.7449,-2.6896,-2.6836,-2.6525,-2.5931,-2.5875,-2.5633,-2.5151,-2.5893,-2.6804,-2.7848,-2.9927,-3.0452,-2.8762,-2.9607,-3.0629,-3.1702,-3.2556,-3.3513,-3.4627,-3.5444,-3.6367,-3.7414,-3.8199,-3.9013,-3.9993,-4.0703,-4.149,-4.249,-4.3267,-4.4054,-4.487,-4.5006,-4.5259,-4.5909,-4.6035,-4.613,-4.6181,-4.6115,-4.606,-4.6193,-4.6208,-4.6196,-4.6203,-4.6209,-4.6209,-4.6206,-4.6245,-4.6287,-4.6305,-4.6305,-4.6638,-4.7393,-4.7588,-4.7897,-4.8591,-4.8884,-4.9016,-4.9025,-4.9157,-4.9268,-4.925,-4.9257,-4.9126,-2.8575,-2.802,-2.7507,-2.6866,-2.6203,-2.6203,-2.6203,-2.6203,-2.6203,-2.6203,-2.6203,-2.6277,-2.6312,-2.6295,-2.645,-2.6434,-2.6347,-2.6295,-2.6277,-2.6203,-2.6277,-2.6312,-2.6295,-2.6434,-2.6554,-2.6606,-2.6606,-2.6657,-2.6691,-2.6708,-2.6708,-2.6708,-2.6708,-2.6674,-2.6623,-2.6623,-2.6572,-2.6572,-2.6657,-2.6708,-2.6876,-2.707,-2.7324,-2.7587,-2.7701,-2.7968,-2.8272,-2.8345,-2.8464,-2.8578,-2.8022,-2.7732,-2.7777,-2.7267,-2.6879,-2.6897,-2.6877,-2.7155,-2.7809,-2.8688,-2.9906,-3.1393,-3.1977,-3.1749,-3.0825,-3.1555,-3.2526,-3.3521,-3.3829,-3.47,-3.6284,-3.6684,-3.7463,-3.8947,-3.9374,-4.013,-4.1558,-4.1908,-4.2617,-4.4122,-4.454,-4.4928,-4.5589,-4.5763,-4.5823,-4.6046,-4.6122,-4.6138,-4.6189,-4.6215,-4.6189,-4.6215,-4.6196,-4.6196,-4.6196,-4.6203,-4.6196,-4.6201,-4.6216,-4.6238,-4.6301,-4.6289,-4.6651,-4.7474,-4.7686,-4.8017,-4.8755,-4.9439,-4.9825,-4.9933,-5.0401,-5.0845,-5.0829,-5.081,-5.0446,-2.9313,-2.8648,-2.8136,-2.7483,-2.6766,-2.6385,-2.6203,-2.6203,-2.6203,-2.6203,-2.622,-2.6222,-2.6258,-2.6258,-2.631,-2.631,-2.6258,-2.6258,-2.6222,-2.622,-2.6222,-2.6258,-2.6241,-2.6347,-2.6434,-2.6435,-2.6503,-2.6572,-2.6623,-2.6657,-2.6674,-2.6708,-2.6708,-2.6674,-2.6657,-2.6657,-2.6708,-2.6742,-2.6708,-2.6808,-2.699,-2.7198,-2.7448,-2.7689,-2.7864,-2.8081,-2.8336,-2.845,-2.8594,-2.8791,-2.8581,-2.8721,-2.9302,-2.9111,-2.9211,-2.9757,-2.987,-3.0058,-3.049,-3.1355,-3.2203,-3.3015,-3.3488,-3.3638,-3.3239,-3.3197,-3.3623,-3.4588,-3.4798,-3.5406,-3.6767,-3.7392,-3.8219,-3.9471,-4.0034,-4.0849,-4.1985,-4.2656,-4.3413,-4.4588,-4.5181,-4.5589,-4.5958,-4.5977,-4.6017,-4.6084,-4.6111,-4.6181,-4.6196,-4.6196,-4.6196,-4.6196,-4.6196,-4.6196,-4.6196,-4.6196,-4.6209,-4.6209,-4.6206,-4.623,-4.6273,-4.6287,-4.6851,-4.7985,-4.8271,-4.8798,-4.9872,-5.0496,-5.0746,-5.0844,-5.1074,-5.1381,-5.1391,-5.1349,-5.1018,-2.9763,-2.9083,-2.8553,-2.7876,-2.6998,-2.6452,-2.6203,-2.6203,-2.6203,-2.6203,-2.6203,-2.6203,-2.6203,-2.6203,-2.6203,-2.6203,-2.6203,-2.6203,-2.6203,-2.6203,-2.6203,-2.6203,-2.6203,-2.6258,-2.6277,-2.6295,-2.6382,-2.6485,-2.6572,-2.6589,-2.6606,-2.6674,-2.6708,-2.6708,-2.6708,-2.6708,-2.6775,-2.6893,-2.6825,-2.6875,-2.7117,-2.7324,-2.7569,-2.7789,-2.8007,-2.8209,-2.8398,-2.8554,-2.8662,-2.8785,-2.9182,-2.971,-3.0457,-3.0809,-3.1308,-3.2011,-3.2164,-3.2355,-3.2619,-3.3412,-3.3923,-3.3979,-3.4548,-3.4927,-3.4944,-3.4448,-3.4401,-3.5162,-3.5508,-3.6119,-3.7146,-3.805,-3.8937,-3.9801,-4.0461,-4.1315,-4.2354,-4.3112,-4.3938,-4.4889,-4.5627,-4.5977,-4.5977,-4.5977,-4.6027,-4.6093,-4.6154,-4.6196,-4.6196,-4.6196,-4.6196,-4.6196,-4.6196,-4.6196,-4.6196,-4.6196,-4.6203,-4.6203,-4.6201,-4.6221,-4.6264,-4.6303,-4.6992,-4.8345,-4.8782,-4.9423,-5.0906,-5.1355,-5.1336,-5.1316,-5.1355,-5.139,-5.1391,-5.1349,-5.1284,-2.9678,-2.9042,-2.8474,-2.7465,-2.6369,-2.6253,-2.6203,-2.6203,-2.6203,-2.6203,-2.6203,-2.6203,-2.6203,-2.6203,-2.6203,-2.6203,-2.6203,-2.6203,-2.6203,-2.6203,-2.6203,-2.6203,-2.6203,-2.6203,-2.6258,-2.6295,-2.6347,-2.6382,-2.6485,-2.652,-2.6554,-2.6606,-2.6674,-2.6708,-2.6708,-2.6708,-2.6775,-2.6893,-2.6942,-2.7055,-2.7198,-2.7448,-2.7659,-2.7789,-2.8053,-2.8264,-2.8398,-2.8536,-2.8662,-2.8883,-2.9677,-3.0305,-3.0649,-3.139,-3.1963,-3.2142,-3.224,-3.2657,-3.3525,-3.4321,-3.4756,-3.4794,-3.4832,-3.4927,-3.5001,-3.4981,-3.503,-3.5372,-3.6065,-3.6928,-3.7977,-3.8883,-3.9732,-4.0528,-4.0811,-4.1538,-4.2986,-4.3442,-4.4093,-4.5725,-4.5919,-4.5977,-4.5977,-4.6007,-4.6027,-4.6093,-4.6154,-4.6196,-4.6196,-4.6196,-4.6196,-4.6196,-4.6196,-4.6196,-4.6196,-4.6196,-4.6203,-4.6203,-4.6195,-4.6216,-4.6257,-4.6376,-4.6855,-4.8375,-4.8828,-4.9462,-5.0731,-5.1394,-5.1394,-5.1394,-5.139,-5.1386,-5.1386,-5.1343,-5.1303,-2.9897,-2.9648,-2.8655,-2.7432,-2.6267,-2.6203,-2.6203,-2.6203,-2.6203,-2.6203,-2.6203,-2.6203,-2.6203,-2.6203,-2.6203,-2.6203,-2.6203,-2.6203,-2.6203,-2.6203,-2.6203,-2.6203,-2.6203,-2.6203,-2.6203,-2.6222,-2.6222,-2.6277,-2.6399,-2.6434,-2.652,-2.6589,-2.6623,-2.6674,-2.6708,-2.6708,-2.6775,-2.6959,-2.7023,-2.7184,-2.7355,-2.7509,-2.7707,-2.7911,-2.8136,-2.8318,-2.8406,-2.8612,-2.8737,-2.8846,-2.9816,-3.0646,-3.1284,-3.2213,-3.2975,-3.3573,-3.375,-3.3998,-3.4396,-3.4718,-3.4908,-3.4908,-3.4908,-3.4908,-3.4945,-3.5038,-3.5126,-3.5288,-3.6102,-3.7098,-3.8041,-3.8984,-3.9904,-4.0654,-4.0878,-4.1577,-4.3267,-4.3481,-4.4151,-4.5686,-4.5977,-4.5977,-4.6007,-4.6027,-4.6056,-4.6102,-4.6154,-4.6196,-4.6196,-4.6196,-4.6196,-4.6196,-4.6196,-4.6196,-4.6196,-4.6196,-4.6203,-4.6209,-4.6203,-4.6226,-4.6225,-4.6264,-4.6868,-4.8554,-4.8836,-4.9544,-5.1082,-5.1355,-5.1394,-5.1394,-5.1386,-5.1396,-5.1349,-5.1317,-5.1303,-3.0033,-2.9933,-2.8746,-2.7432,-2.6236,-2.6203,-2.6203,-2.6203,-2.6203,-2.6203,-2.6203,-2.6203,-2.6203,-2.6203,-2.6203,-2.6203,-2.6203,-2.6203,-2.6203,-2.6203,-2.6203,-2.6203,-2.6203,-2.6203,-2.6203,-2.6203,-2.6203,-2.6222,-2.6277,-2.6382,-2.6468,-2.6521,-2.6537,-2.6606,-2.6691,-2.6691,-2.6792,-2.6975,-2.7055,-2.7198,-2.7465,-2.7587,-2.7719,-2.7996,-2.8219,-2.8353,-2.8424,-2.8681,-2.8804,-2.8846,-3.0023,-3.1038,-3.1745,-3.2866,-3.3877,-3.4593,-3.4788,-3.4868,-3.4906,-3.4908,-3.4908,-3.4908,-3.4908,-3.4908,-3.4927,-3.5001,-3.5186,-3.5526,-3.6383,-3.7367,-3.802,-3.9129,-4.0084,-4.0729,-4.0849,-4.1607,-4.3219,-4.3481,-4.4151,-4.5666,-4.5977,-4.5977,-4.6007,-4.6066,-4.6113,-4.6122,-4.6154,-4.6196,-4.6196,-4.6196,-4.6196,-4.6196,-4.6196,-4.6196,-4.6196,-4.6196,-4.6196,-4.6203,-4.6216,-4.6215,-4.627,-4.6386,-4.6993,-4.8593,-4.8918,-4.9664,-5.0984,-5.1355,-5.139,-5.1386,-5.1377,-5.1361,-5.1323,-5.131,-5.1296,-2.9814,-2.9805,-2.869,-2.7432,-2.622,-2.6203,-2.6203,-2.6203,-2.6203,-2.6203,-2.6203,-2.6203,-2.6203,-2.6203,-2.6203,-2.6203,-2.6203,-2.6203,-2.6203,-2.6203,-2.6203,-2.6203,-2.6203,-2.6203,-2.6203,-2.6203,-2.6203,-2.622,-2.6203,-2.6277,-2.633,-2.6347,-2.6434,-2.652,-2.6606,-2.6606,-2.6742,-2.6942,-2.7007,-2.7169,-2.7465,-2.7612,-2.7789,-2.8014,-2.8246,-2.838,-2.8424,-2.8662,-2.8804,-2.8804,-3.052,-3.157,-3.183,-3.3366,-3.442,-3.4666,-3.4687,-3.4768,-3.4887,-3.4908,-3.4908,-3.4908,-3.4908,-3.4908,-3.4908,-3.4964,-3.5342,-3.6158,-3.7061,-3.7801,-3.8204,-3.958,-4.0544,-4.0757,-4.0848,-4.1704,-4.3238,-4.3442,-4.4248,-4.553,-4.5938,-4.5977,-4.5977,-4.6066,-4.6113,-4.6102,-4.6154,-4.6196,-4.6196,-4.6196,-4.6196,-4.6196,-4.6196,-4.6196,-4.6196,-4.6196,-4.6196,-4.6203,-4.6209,-4.6209,-4.6523,-4.6932,-4.7835,-4.8688,-4.9373,-5.0144,-5.1011,-5.139,-5.1386,-5.1377,-5.1341,-5.1297,-5.131,-5.1296,-5.13,-2.9324,-2.8682,-2.8352,-2.7432,-2.627,-2.6203,-2.6203,-2.6203,-2.6203,-2.6203,-2.6203,-2.6203,-2.6203,-2.6203,-2.6203,-2.6203,-2.6203,-2.6203,-2.6203,-2.6203,-2.6203,-2.6203,-2.6203,-2.6203,-2.6203,-2.6203,-2.6203,-2.6203,-2.6203,-2.6222,-2.6241,-2.6279,-2.633,-2.6417,-2.652,-2.6589,-2.6657,-2.6808,-2.6973,-2.7184,-2.7417,-2.7659,-2.7818,-2.8014,-2.8246,-2.8424,-2.8424,-2.8612,-2.8761,-2.8804,-3.0497,-3.1531,-3.1844,-3.3444,-3.4517,-3.4623,-3.4685,-3.4747,-3.4829,-3.4888,-3.4908,-3.4908,-3.4908,-3.4908,-3.4927,-3.502,-3.5398,-3.6252,-3.725,-3.8031,-3.8839,-3.9951,-4.0732,-4.0792,-4.0876,-4.1344,-4.2422,-4.3151,-4.3957,-4.5025,-4.5627,-4.5977,-4.5988,-4.6047,-4.6093,-4.6122,-4.6154,-4.6196,-4.6196,-4.6196,-4.6196,-4.6196,-4.6196,-4.6196,-4.6196,-4.6196,-4.6196,-4.6196,-4.6209,-4.6203,-4.6401,-4.7079,-4.7939,-4.8742,-4.957,-5.0439,-5.1187,-5.1386,-5.1401,-5.1366,-5.1323,-5.1303,-5.1296,-5.1308,-5.13,-2.9016,-2.8061,-2.8066,-2.7361,-2.6198,-2.6168,-2.6203,-2.6203,-2.6203,-2.6203,-2.6203,-2.6203,-2.6203,-2.6203,-2.6203,-2.6203,-2.6203,-2.6203,-2.6203,-2.6203,-2.6203,-2.6203,-2.6203,-2.6203,-2.6203,-2.6203,-2.6203,-2.6203,-2.6203,-2.6203,-2.6222,-2.6277,-2.6277,-2.6329,-2.6434,-2.652,-2.6606,-2.6742,-2.694,-2.7184,-2.7386,-2.7659,-2.7864,-2.8025,-2.8264,-2.8424,-2.8424,-2.8587,-2.8737,-2.8992,-3.0229,-3.1341,-3.2164,-3.3355,-3.4233,-3.4524,-3.4645,-3.4727,-3.4788,-3.4849,-3.487,-3.4908,-3.4908,-3.4908,-3.4908,-3.5001,-3.5588,-3.6556,-3.7366,-3.8303,-3.9407,-4.0256,-4.0694,-4.0788,-4.0846,-4.1237,-4.2102,-4.2694,-4.3569,-4.4617,-4.5249,-4.5667,-4.5978,-4.6084,-4.6141,-4.613,-4.6181,-4.6196,-4.6196,-4.6196,-4.6196,-4.6196,-4.6196,-4.6196,-4.6196,-4.6196,-4.6196,-4.6196,-4.6203,-4.6196,-4.6449,-4.7187,-4.799,-4.8814,-4.9687,-5.0559,-5.1089,-5.1323,-5.1386,-5.1369,-5.133,-5.1296,-5.1308,-5.13,-5.13,-2.899,-2.7981,-2.7947,-2.723,-2.6109,-2.6115,-2.6203,-2.6203,-2.6203,-2.6203,-2.6203,-2.6203,-2.6203,-2.6203,-2.6203,-2.6203,-2.6203,-2.6203,-2.6203,-2.6203,-2.6203,-2.6203,-2.6203,-2.6203,-2.6203,-2.6203,-2.6203,-2.6203,-2.6203,-2.6203,-2.6203,-2.622,-2.6203,-2.6222,-2.6295,-2.6415,-2.6554,-2.6725,-2.6892,-2.712,-2.7386,-2.7582,-2.7806,-2.7996,-2.8264,-2.8424,-2.8424,-2.8623,-2.8791,-2.8919,-2.9783,-3.112,-3.2539,-3.3067,-3.3552,-3.4252,-3.4505,-3.4628,-3.4768,-3.4809,-3.483,-3.4889,-3.4908,-3.4908,-3.4946,-3.5002,-3.5646,-3.6994,-3.7672,-3.8446,-3.9857,-4.0462,-4.0648,-4.0776,-4.0804,-4.1188,-4.1859,-4.218,-4.285,-4.4287,-4.4773,-4.5162,-4.5813,-4.5996,-4.6002,-4.6127,-4.6181,-4.6196,-4.6196,-4.6196,-4.6196,-4.6196,-4.6196,-4.6196,-4.6196,-4.6196,-4.6196,-4.6196,-4.6196,-4.6229,-4.6546,-4.7148,-4.806,-4.8926,-5.0215,-5.1081,-5.1199,-5.1391,-5.1355,-5.1343,-5.1323,-5.1308,-5.13,-5.13,-5.13,-2.8742,-2.781,-2.7883,-2.7169,-2.6056,-2.6026,-2.6115,-2.6168,-2.6203,-2.6203,-2.6203,-2.6203,-2.6203,-2.6203,-2.6203,-2.6203,-2.6203,-2.6203,-2.6203,-2.6203,-2.6203,-2.6203,-2.6203,-2.6203,-2.6203,-2.6203,-2.6203,-2.6203,-2.6203,-2.6203,-2.6203,-2.6203,-2.6203,-2.6203,-2.6239,-2.6345,-2.6434,-2.6572,-2.6809,-2.7023,-2.7261,-2.7552,-2.7806,-2.7996,-2.8246,-2.8424,-2.8442,-2.9068,-2.9214,-2.8809,-3.0129,-3.1274,-3.195,-3.2222,-3.2742,-3.3521,-3.3754,-3.4099,-3.4711,-3.4788,-3.4849,-3.4908,-3.4908,-3.4927,-3.4984,-3.502,-3.5568,-3.6706,-3.7419,-3.8364,-3.9336,-4.0211,-4.0571,-4.0725,-4.0792,-4.0906,-4.1345,-4.183,-4.2685,-4.3607,-4.3909,-4.4297,-4.4948,-4.523,-4.5471,-4.5994,-4.6107,-4.6142,-4.6196,-4.6196,-4.6196,-4.6196,-4.6196,-4.6196,-4.6196,-4.6196,-4.6203,-4.6203,-4.6203,-4.6209,-4.6546,-4.7128,-4.804,-4.9143,-5.0449,-5.1174,-5.1308,-5.1366,-5.1349,-5.131,-5.1316,-5.1308,-5.13,-5.13,-5.13,-2.877,-2.8043,-2.7875,-2.7254,-2.6348,-2.6122,-2.6079,-2.6168,-2.6203,-2.6203,-2.6203,-2.6203,-2.6203,-2.6203,-2.6203,-2.6203,-2.6203,-2.6203,-2.6203,-2.6203,-2.6203,-2.6203,-2.6203,-2.6203,-2.6203,-2.6203,-2.6203,-2.6203,-2.6203,-2.6203,-2.6203,-2.6203,-2.6203,-2.6203,-2.6203,-2.626,-2.6382,-2.652,-2.6759,-2.7007,-2.723,-2.7522,-2.7806,-2.8014,-2.8246,-2.8398,-2.846,-2.9321,-2.9461,-2.9003,-2.9813,-3.0613,-3.1127,-3.1136,-3.1544,-3.2598,-3.3208,-3.3686,-3.4259,-3.46,-3.4849,-3.4889,-3.4908,-3.4946,-3.4984,-3.5058,-3.5488,-3.6341,-3.6977,-3.7865,-3.8972,-3.9692,-4.0268,-4.0688,-4.0761,-4.0828,-4.0976,-4.1374,-4.2063,-4.2753,-4.3015,-4.3442,-4.4035,-4.4365,-4.4694,-4.5412,-4.5671,-4.594,-4.6052,-4.6215,-4.6196,-4.6196,-4.6196,-4.6196,-4.6196,-4.6196,-4.6203,-4.6209,-4.6209,-4.6203,-4.6357,-4.7069,-4.7899,-4.9135,-5.0424,-5.0949,-5.1132,-5.1297,-5.1336,-5.1323,-5.123,-5.1308,-5.13,-5.13,-5.13,-2.8846,-2.8528,-2.7978,-2.7436,-2.6793,-2.6332,-2.6125,-2.6168,-2.6168,-2.6203,-2.6203,-2.6203,-2.6203,-2.6203,-2.6203,-2.6203,-2.6203,-2.6203,-2.6203,-2.6203,-2.6203,-2.6203,-2.6203,-2.6203,-2.6168,-2.6168,-2.6151,-2.6168,-2.6132,-2.6132,-2.6168,-2.6168,-2.6168,-2.6168,-2.6203,-2.626,-2.6382,-2.652,-2.6759,-2.699,-2.7181,-2.7552,-2.7806,-2.8014,-2.8264,-2.8424,-2.8532,-2.915,-2.9406,-2.8919,-2.9095,-2.9554,-3.0087,-2.9795,-3.0367,-3.1808,-3.2756,-3.3216,-3.3618,-3.4204,-3.4696,-3.487,-3.4908,-3.4927,-3.5003,-3.5095,-3.5373,-3.6112,-3.6537,-3.7271,-3.8511,-3.9287,-3.981,-4.0539,-4.0773,-4.0839,-4.0878,-4.0966,-4.1393,-4.1946,-4.2179,-4.246,-4.3287,-4.348,-4.3906,-4.4498,-4.4806,-4.5153,-4.5726,-4.5916,-4.6098,-4.6157,-4.6196,-4.6196,-4.6196,-4.6196,-4.6203,-4.6216,-4.6203,-4.6215,-4.6333,-4.7025,-4.7614,-4.8867,-4.9873,-5.043,-5.0776,-5.0777,-5.092,-5.0938,-5.0989,-5.1203,-5.13,-5.1281,-5.1222,-2.8619,-2.8327,-2.8367,-2.7786,-2.6873,-2.67,-2.6421,-2.6112,-2.6168,-2.6187,-2.6203,-2.6203,-2.6203,-2.6203,-2.6203,-2.6203,-2.6203,-2.6203,-2.6203,-2.6203,-2.6203,-2.6203,-2.6203,-2.6203,-2.6168,-2.6079,-2.6079,-2.6043,-2.597,-2.6007,-2.6007,-2.6063,-2.6079,-2.6115,-2.6203,-2.6222,-2.6329,-2.6468,-2.6674,-2.6908,-2.7213,-2.7522,-2.7789,-2.7996,-2.8246,-2.8398,-2.8424,-2.8717,-2.9207,-2.9605,-2.9059,-2.9007,-2.9474,-2.9437,-2.9897,-3.0856,-3.1425,-3.2201,-3.3221,-3.3732,-3.4168,-3.4813,-3.4889,-3.4946,-3.5078,-3.5095,-3.524,-3.5632,-3.6131,-3.6753,-3.7417,-3.8556,-3.9669,-4.0571,-4.0749,-4.082,-4.0878,-4.0907,-4.1024,-4.1218,-4.1266,-4.1733,-4.2286,-4.2616,-4.2898,-4.3616,-4.3973,-4.4261,-4.4939,-4.5266,-4.5319,-4.5981,-4.6176,-4.6196,-4.6196,-4.6196,-4.6203,-4.6203,-4.6215,-4.6226,-4.6468,-4.6976,-4.7441,-4.8133,-4.8825,-4.9421,-4.9678,-4.9802,-5.0056,-5.0365,-5.0677,-5.0833,-5.1125,-5.1222,-5.1106,-2.8638,-2.8564,-2.8558,-2.8178,-2.7607,-2.7127,-2.6651,-2.6381,-2.6162,-2.6099,-2.6115,-2.6168,-2.6203,-2.6203,-2.6203,-2.6203,-2.6203,-2.6203,-2.6203,-2.6168,-2.6115,-2.6115,-2.6115,-2.6115,-2.6079,-2.5954,-2.5954,-2.5934,-2.5934,-2.5934,-2.5917,-2.5954,-2.5974,-2.601,-2.6115,-2.6168,-2.631,-2.6468,-2.6657,-2.6858,-2.7181,-2.7552,-2.7806,-2.7996,-2.8219,-2.8398,-2.8432,-2.8536,-2.8898,-2.9234,-2.9022,-2.8887,-2.9178,-2.9289,-2.9615,-3.0202,-3.06,-3.1392,-3.2297,-3.3033,-3.3752,-3.4301,-3.4605,-3.4927,-3.504,-3.5095,-3.5126,-3.5305,-3.5771,-3.6166,-3.6784,-3.7983,-3.9187,-4.001,-4.0292,-4.047,-4.0811,-4.0898,-4.0888,-4.0888,-4.0927,-4.1043,-4.1626,-4.1646,-4.2102,-4.2684,-4.3002,-4.3525,-4.4133,-4.4311,-4.4637,-4.5299,-4.5748,-4.5728,-4.5962,-4.6079,-4.6151,-4.617,-4.624,-4.6249,-4.6446,-4.6833,-4.7127,-4.752,-4.7966,-4.8357,-4.8697,-4.9016,-4.9308,-4.9664,-5.0092,-5.0248,-5.0346,-5.0618,-5.056,-2.8763,-2.9028,-2.8666,-2.8581,-2.8505,-2.7551,-2.7013,-2.6798,-2.6348,-2.6109,-2.6043,-2.6132,-2.6168,-2.6168,-2.6168,-2.6203,-2.6203,-2.6203,-2.6168,-2.6168,-2.6079,-2.5974,-2.5954,-2.599,-2.597,-2.586,-2.5844,-2.5824,-2.5787,-2.5824,-2.5844,-2.5844,-2.5954,-2.6026,-2.6063,-2.6132,-2.631,-2.6468,-2.6607,-2.6858,-2.7164,-2.7522,-2.7806,-2.7996,-2.8219,-2.838,-2.8484,-2.8562,-2.8717,-2.8804,-2.8804,-2.8929,-2.9156,-2.9304,-2.9448,-2.9622,-3.0206,-3.0733,-3.1186,-3.2391,-3.324,-3.3507,-3.4131,-3.4737,-3.4737,-3.4773,-3.4916,-3.5176,-3.5242,-3.5768,-3.6554,-3.7502,-3.8317,-3.9122,-3.9359,-3.9793,-4.0391,-4.0772,-4.0907,-4.0907,-4.0907,-4.0888,-4.0888,-4.0966,-4.1218,-4.1888,-4.2177,-4.2611,-4.3133,-4.3428,-4.3909,-4.4579,-4.491,-4.5124,-4.5533,-4.5942,-4.606,-4.6137,-4.6241,-4.6276,-4.6285,-4.6562,-4.6788,-4.7081,-4.7294,-4.761,-4.8002,-4.8301,-4.858,-4.8826,-4.9157,-4.906,-4.8982,-4.9391,-4.9527,-2.8558,-2.8951,-2.8963,-2.8809,-2.8651,-2.8415,-2.7768,-2.6824,-2.6765,-2.6384,-2.6032,-2.599,-2.6026,-2.6063,-2.6168,-2.6203,-2.6168,-2.6168,-2.6168,-2.6026,-2.6026,-2.5901,-2.5828,-2.5844,-2.5824,-2.5728,-2.5637,-2.5562,-2.5486,-2.5508,-2.5546,-2.5675,-2.586,-2.5954,-2.6026,-2.6115,-2.631,-2.6485,-2.6607,-2.6858,-2.7181,-2.7504,-2.7806,-2.7996,-2.8246,-2.8406,-2.851,-2.8562,-2.8637,-2.8694,-2.8767,-2.89,-2.9089,-2.9304,-2.9409,-2.947,-2.968,-3.017,-3.0847,-3.1355,-3.1864,-3.2543,-3.2902,-3.3242,-3.3923,-3.4016,-3.4428,-3.4954,-3.525,-3.556,-3.643,-3.6815,-3.7448,-3.8132,-3.844,-3.8574,-3.8969,-4.0023,-4.0635,-4.082,-4.084,-4.0888,-4.0888,-4.0888,-4.1043,-4.1208,-4.1449,-4.1746,-4.212,-4.2551,-4.3104,-4.3741,-4.3936,-4.4208,-4.4878,-4.5345,-4.5676,-4.5938,-4.6131,-4.6287,-4.6289,-4.6303,-4.6541,-4.6542,-4.647,-4.6864,-4.7314,-4.7515,-4.7754,-4.7988,-4.8202,-4.8241,-4.8319,-4.8495,-4.8436,-2.8414,-2.8795,-2.8982,-2.9053,-2.8898,-2.8678,-2.8041,-2.7227,-2.6879,-2.6389,-2.5922,-2.5901,-2.5937,-2.6026,-2.6079,-2.6115,-2.6079,-2.6043,-2.6043,-2.5954,-2.5901,-2.5791,-2.5659,-2.5659,-2.5584,-2.5486,-2.5486,-2.5371,-2.5317,-2.5317,-2.5432,-2.5524,-2.5696,-2.5844,-2.5954,-2.6115,-2.631,-2.6485,-2.664,-2.6858,-2.7181,-2.7522,-2.7836,-2.8071,-2.8291,-2.8406,-2.8476,-2.858,-2.8612,-2.8662,-2.8687,-2.8828,-2.9044,-2.9262,-2.937,-2.9392,-2.9451,-2.968,-3.0169,-3.0658,-3.111,-3.16,-3.1996,-3.2506,-3.2939,-3.3125,-3.3596,-3.4293,-3.4628,-3.4974,-3.5902,-3.6046,-3.6512,-3.7198,-3.7475,-3.7649,-3.8201,-3.9057,-3.9878,-4.0121,-4.0238,-4.051,-4.0665,-4.0752,-4.0907,-4.1043,-4.1107,-4.1365,-4.1354,-4.1785,-4.2227,-4.2708,-4.2922,-4.3332,-4.4098,-4.467,-4.5175,-4.5562,-4.5963,-4.6152,-4.6301,-4.6287,-4.6327,-4.6294,-4.6284,-4.6248,-4.6645,-4.6807,-4.6956,-4.7014,-4.7209,-4.7482,-4.756,-4.7404,-4.7299,-2.8332,-2.8589,-2.8905,-2.9137,-2.9134,-2.8738,-2.814,-2.7426,-2.6953,-2.638,-2.5777,-2.5807,-2.5881,-2.5954,-2.599,-2.599,-2.599,-2.5917,-2.5881,-2.5824,-2.5754,-2.5642,-2.5524,-2.5448,-2.5355,-2.5339,-2.5278,-2.5256,-2.5201,-2.524,-2.5278,-2.5394,-2.5589,-2.5791,-2.5917,-2.6115,-2.631,-2.6485,-2.6657,-2.6891,-2.7181,-2.7522,-2.7853,-2.8126,-2.8318,-2.8398,-2.845,-2.8528,-2.8587,-2.8587,-2.8587,-2.8755,-2.8947,-2.9175,-2.9328,-2.9291,-2.9351,-2.9448,-2.9658,-3.0088,-3.0523,-3.0715,-3.126,-3.1807,-3.2071,-3.2256,-3.2707,-3.3234,-3.3701,-3.4085,-3.4932,-3.5094,-3.5556,-3.6229,-3.6507,-3.6881,-3.7469,-3.7788,-3.8244,-3.9169,-3.9432,-3.9665,-4.0199,-4.0519,-4.0713,-4.0878,-4.0932,-4.0996,-4.1003,-4.1116,-4.1643,-4.1851,-4.2065,-4.252,-4.3266,-4.4072,-4.4557,-4.5078,-4.5595,-4.5937,-4.6173,-4.6273,-4.6255,-4.6231,-4.622,-4.6203,-4.6209,-4.6417,-4.6429,-4.6215,-4.6352,-4.678,-4.6644,-4.6254,-4.6337,-2.8201,-2.846,-2.8621,-2.8795,-2.8951,-2.8965,-2.8326,-2.7376,-2.7205,-2.6559,-2.5535,-2.5584,-2.5712,-2.5754,-2.5881,-2.5934,-2.5897,-2.586,-2.5787,-2.5675,-2.5584,-2.5524,-2.5333,-2.5178,-2.5084,-2.5084,-2.5045,-2.4966,-2.4966,-2.5005,-2.5162,-2.5317,-2.5551,-2.5738,-2.5954,-2.6151,-2.6347,-2.652,-2.6708,-2.694,-2.7181,-2.7509,-2.7795,-2.8109,-2.8273,-2.838,-2.8432,-2.851,-2.8587,-2.8587,-2.8587,-2.8662,-2.8767,-2.897,-2.9108,-2.92,-2.9265,-2.9307,-2.9402,-2.9502,-2.9636,-2.9715,-3.0056,-3.0527,-3.0979,-3.1298,-3.1746,-3.2383,-3.2863,-3.323,-3.4106,-3.4297,-3.4672,-3.5273,-3.5686,-3.5825,-3.6034,-3.6293,-3.6822,-3.8003,-3.8394,-3.884,-3.948,-4.0053,-4.0325,-4.0586,-4.0855,-4.0929,-4.0996,-4.1038,-4.124,-4.1305,-4.1286,-4.1838,-4.2454,-4.3298,-4.3992,-4.4536,-4.5071,-4.5583,-4.5854,-4.6128,-4.6206,-4.6201,-4.6209,-4.6196,-4.6209,-4.6203,-4.6196,-4.6196,-4.6196,-4.6215,-4.6208,-4.6181,-4.6138,-2.7955,-2.8217,-2.8332,-2.851,-2.8748,-2.8795,-2.8151,-2.7162,-2.7105,-2.6452,-2.5582,-2.5432,-2.5562,-2.5659,-2.5754,-2.577,-2.5749,-2.5659,-2.5562,-2.5448,-2.5371,-2.5278,-2.5139,-2.4982,-2.4846,-2.4766,-2.4726,-2.4766,-2.4838,-2.4862,-2.5045,-2.5278,-2.553,-2.5717,-2.5917,-2.617,-2.6347,-2.652,-2.6759,-2.699,-2.723,-2.7569,-2.7911,-2.8081,-2.8246,-2.8353,-2.8406,-2.8484,-2.8562,-2.8587,-2.8587,-2.8637,-2.8712,-2.8785,-2.8881,-2.9085,-2.9197,-2.924,-2.924,-2.9286,-2.9326,-2.9368,-2.9451,-2.97,-3.0077,-3.0377,-3.0825,-3.159,-3.2409,-3.2775,-3.3261,-3.3655,-3.4167,-3.4596,-3.5032,-3.5326,-3.5446,-3.5509,-3.6144,-3.6961,-3.7355,-3.7967,-3.8848,-3.9373,-3.982,-4.0246,-4.068,-4.0871,-4.0957,-4.1045,-4.111,-4.111,-4.113,-4.1356,-4.1875,-4.2504,-4.3231,-4.3827,-4.441,-4.4934,-4.5421,-4.5631,-4.5986,-4.6215,-4.6203,-4.6053,-4.6203,-4.6196,-4.6196,-4.6196,-4.6208,-4.6201,-4.6193,-4.6158,-4.6122,-2.7725,-2.7955,-2.8088,-2.8284,-2.8477,-2.8525,-2.7845,-2.692,-2.682,-2.6204,-2.5179,-2.5224,-2.5394,-2.5508,-2.5584,-2.5584,-2.554,-2.5394,-2.5317,-2.524,-2.5123,-2.4989,-2.4886,-2.4782,-2.4661,-2.4564,-2.4457,-2.4523,-2.4701,-2.4742,-2.4982,-2.524,-2.5492,-2.568,-2.5917,-2.6206,-2.6364,-2.6554,-2.6792,-2.7023,-2.7324,-2.7719,-2.8042,-2.8081,-2.8219,-2.8345,-2.8353,-2.8432,-2.851,-2.858,-2.8587,-2.8637,-2.8644,-2.8644,-2.8737,-2.8923,-2.9044,-2.9112,-2.9112,-2.9134,-2.9156,-2.9218,-2.9267,-2.9394,-2.9551,-2.9814,-3.0131,-3.0909,-3.1499,-3.2111,-3.2374,-3.2997,-3.3582,-3.4148,-3.4642,-3.5132,-3.5326,-3.5449,-3.5547,-3.6115,-3.6433,-3.7095,-3.7995,-3.8421,-3.881,-3.9827,-4.0279,-4.0723,-4.0836,-4.1032,-4.111,-4.111,-4.1117,-4.1109,-4.1412,-4.171,-4.237,-4.2925,-4.3496,-4.4042,-4.459,-4.5055,-4.5396,-4.5637,-4.5768,-4.5657,-4.5923,-4.6176,-4.6196,-4.6215,-4.6201,-4.6185,-4.6158,-4.6141,-4.6095,-2.7625,-2.7675,-2.7905,-2.8054,-2.8118,-2.8186,-2.7469,-2.6336,-2.6499,-2.5909,-2.4909,-2.5005,-2.5178,-2.5294,-2.5371,-2.5317,-2.5278,-2.5201,-2.5107,-2.5005,-2.4886,-2.4766,-2.463,-2.4467,-2.4441,-2.44,-2.4291,-2.4416,-2.4564,-2.4645,-2.4886,-2.524,-2.5492,-2.568,-2.5917,-2.6258,-2.6485,-2.6571,-2.6826,-2.7137,-2.7465,-2.7777,-2.7968,-2.8071,-2.8164,-2.8282,-2.83,-2.838,-2.8432,-2.851,-2.8562,-2.8587,-2.8594,-2.8651,-2.8694,-2.8743,-2.8791,-2.8858,-2.8881,-2.8929,-2.8975,-2.9044,-2.9134,-2.9246,-2.9394,-2.957,-2.9847,-2.9964,-3.038,-3.086,-3.1424,-3.1756,-3.2573,-3.3333,-3.3957,-3.4584,-3.4994,-3.5081,-3.52,-3.5616,-3.6063,-3.6493,-3.7142,-3.7452,-3.7866,-3.8941,-3.9852,-4.0264,-4.0493,-4.0513,-4.0565,-4.0429,-4.0688,-4.0739,-4.0925,-4.1247,-4.1635,-4.2128,-4.2707,-4.3267,-4.3719,-4.4231,-4.4487,-4.4728,-4.4917,-4.5202,-4.5436,-4.5709,-4.604,-4.6189,-4.6193,-4.6158,-4.6122,-4.6104,-4.6076,-2.7284,-2.7372,-2.7488,-2.759,-2.7655,-2.779,-2.7346,-2.6608,-2.6352,-2.5839,-2.5129,-2.4851,-2.4926,-2.5084,-2.5123,-2.5084,-2.5021,-2.4966,-2.4886,-2.4751,-2.4605,-2.4482,-2.4385,-2.4219,-2.4177,-2.4193,-2.4223,-2.4276,-2.4441,-2.4605,-2.4846,-2.524,-2.5508,-2.5696,-2.5881,-2.6206,-2.6399,-2.6589,-2.6876,-2.7198,-2.7496,-2.7689,-2.7853,-2.7946,-2.8099,-2.8191,-2.8264,-2.83,-2.838,-2.8432,-2.8528,-2.8528,-2.8484,-2.8492,-2.8474,-2.8536,-2.8562,-2.8637,-2.8785,-2.881,-2.8858,-2.8905,-2.9021,-2.9178,-2.9332,-2.957,-2.9735,-2.9859,-3.001,-3.0331,-3.0742,-3.1187,-3.1756,-3.2473,-3.3085,-3.3804,-3.4366,-3.4592,-3.477,-3.5225,-3.5673,-3.6075,-3.6503,-3.688,-3.7284,-3.7949,-3.8743,-3.9194,-3.9325,-3.9306,-3.937,-3.9415,-3.9817,-4.0237,-4.0482,-4.0764,-4.1127,-4.162,-4.2229,-4.2694,-4.2954,-4.3309,-4.3584,-4.3845,-4.4091,-4.4423,-4.4832,-4.5377,-4.5825,-4.6033,-4.6174,-4.6002,-4.584,-4.6037,-4.6017,-2.6989,-2.7078,-2.7181,-2.7233,-2.735,-2.7488,-2.72,-2.6654,-2.6182,-2.5711,-2.5229,-2.4808,-2.4686,-2.4862,-2.4862,-2.4822,-2.4726,-2.4645,-2.4549,-2.4426,-2.4343,-2.4234,-2.4177,-2.4051,-2.3967,-2.3982,-2.4082,-2.4193,-2.4343,-2.4508,-2.4846,-2.524,-2.547,-2.5696,-2.5917,-2.6154,-2.6382,-2.6606,-2.6908,-2.7198,-2.7386,-2.76,-2.7736,-2.7853,-2.794,-2.8053,-2.8154,-2.8209,-2.8246,-2.8318,-2.8371,-2.8398,-2.838,-2.838,-2.8388,-2.8432,-2.8432,-2.8484,-2.8594,-2.8669,-2.8737,-2.881,-2.8952,-2.9156,-2.9332,-2.9551,-2.9718,-2.9808,-2.9943,-3.0057,-3.0236,-3.0791,-3.1226,-3.166,-3.2134,-3.289,-3.3585,-3.3911,-3.432,-3.4795,-3.5245,-3.5678,-3.6057,-3.6444,-3.6809,-3.7152,-3.7622,-3.8123,-3.8319,-3.8377,-3.8552,-3.8733,-3.9037,-3.9477,-3.9682,-4.0032,-4.0489,-4.1034,-4.1646,-4.2022,-4.2208,-4.2451,-4.2727,-4.2987,-4.3254,-4.3663,-4.4072,-4.4871,-4.5533,-4.5234,-4.5064,-4.5429,-4.554,-4.5755,-4.5929,-2.663,-2.6832,-2.7078,-2.7181,-2.7218,-2.7218,-2.6914,-2.6451,-2.5914,-2.5394,-2.492,-2.4656,-2.4498,-2.4539,-2.4539,-2.4539,-2.4498,-2.4245,-2.4204,-2.4162,-2.4051,-2.4009,-2.3967,-2.3925,-2.3839,-2.394,-2.4024,-2.4151,-2.4302,-2.4508,-2.4791,-2.5107,-2.5432,-2.5659,-2.5917,-2.617,-2.64,-2.664,-2.6908,-2.7085,-2.7293,-2.7448,-2.76,-2.7719,-2.7806,-2.7876,-2.8007,-2.8025,-2.8053,-2.8099,-2.8182,-2.8264,-2.8273,-2.83,-2.8327,-2.8327,-2.8371,-2.838,-2.8458,-2.8536,-2.8612,-2.8761,-2.8929,-2.9115,-2.933,-2.9491,-2.9664,-2.979,-2.9891,-2.9991,-3.0053,-3.0247,-3.0715,-3.1068,-3.1484,-3.1976,-3.2728,-3.3403,-3.3832,-3.4327,-3.4797,-3.527,-3.5708,-3.6124,-3.639,-3.6732,-3.6858,-3.7345,-3.7741,-3.7896,-3.8071,-3.8252,-3.8399,-3.86,-3.8683,-3.9138,-3.9828,-4.0331,-4.085,-4.116,-4.1374,-4.1632,-4.2011,-4.2156,-4.2461,-4.2883,-4.3215,-4.3565,-4.3819,-4.3785,-4.3946,-4.4506,-4.4889,-4.5075,-4.5366,-2.6563,-2.6645,-2.687,-2.6937,-2.6974,-2.7041,-2.696,-2.6615,-2.5823,-2.4971,-2.426,-2.4231,-2.4193,-2.4193,-2.4193,-2.4208,-2.4208,-2.4094,-2.4051,-2.4009,-2.3925,-2.3882,-2.3839,-2.3739,-2.3696,-2.3797,-2.3897,-2.4024,-2.4151,-2.4441,-2.4766,-2.5045,-2.5339,-2.5621,-2.5881,-2.617,-2.64,-2.6572,-2.6775,-2.6923,-2.7149,-2.7261,-2.7417,-2.7526,-2.7647,-2.7689,-2.7748,-2.7806,-2.7853,-2.7911,-2.7968,-2.8025,-2.8109,-2.8154,-2.8182,-2.8164,-2.8209,-2.8246,-2.8318,-2.8424,-2.8587,-2.8755,-2.8947,-2.9112,-2.9286,-2.949,-2.9626,-2.9717,-2.9822,-2.994,-3.0068,-3.0113,-3.0314,-3.0591,-3.0911,-3.1307,-3.1833,-3.2546,-3.3196,-3.3647,-3.4311,-3.49,-3.5359,-3.5795,-3.6051,-3.63,-3.6385,-3.654,-3.6974,-3.7219,-3.7317,-3.7459,-3.7566,-3.7713,-3.7795,-3.8466,-3.9225,-3.9628,-4.0031,-4.0427,-4.0738,-4.1115,-4.1437,-4.1543,-4.1635,-4.1947,-4.2117,-4.2071,-4.2338,-4.2935,-4.3374,-4.377,-4.4093,-4.4346,-4.4628,-2.6404,-2.6472,-2.6645,-2.6765,-2.6794,-2.6899,-2.6951,-2.6769,-2.5796,-2.4683,-2.3726,-2.3797,-2.3855,-2.3882,-2.3855,-2.3855,-2.3855,-2.3812,-2.3754,-2.3711,-2.3668,-2.3668,-2.361,-2.361,-2.3566,-2.3625,-2.3797,-2.3982,-2.4024,-2.4385,-2.4726,-2.5005,-2.524,-2.5546,-2.5881,-2.617,-2.6365,-2.6486,-2.6623,-2.6775,-2.6956,-2.707,-2.7166,-2.731,-2.7386,-2.7496,-2.7539,-2.76,-2.763,-2.7689,-2.7736,-2.7795,-2.7853,-2.7911,-2.794,-2.7968,-2.8042,-2.8081,-2.8209,-2.8398,-2.858,-2.8748,-2.89,-2.9062,-2.928,-2.9468,-2.9551,-2.9718,-2.9805,-2.9924,-3.0053,-3.0098,-3.0128,-3.04,-3.0414,-3.0734,-3.1087,-3.1684,-3.2352,-3.2987,-3.3754,-3.4607,-3.502,-3.5485,-3.5896,-3.6066,-3.6106,-3.617,-3.6259,-3.6401,-3.6309,-3.6455,-3.6625,-3.6766,-3.695,-3.7675,-3.8332,-3.8554,-3.9056,-3.9825,-4.0239,-4.0598,-4.0998,-4.1262,-4.1295,-4.1139,-4.127,-4.1512,-4.1974,-4.2494,-4.2829,-4.3089,-4.3267,-4.352,-4.3724,-2.6179,-2.634,-2.6457,-2.6592,-2.6779,-2.6794,-2.6899,-2.6776,-2.5599,-2.4452,-2.3584,-2.3553,-2.3581,-2.361,-2.3581,-2.3553,-2.3538,-2.3451,-2.3392,-2.3407,-2.3451,-2.3363,-2.3407,-2.3407,-2.3494,-2.3553,-2.3711,-2.3882,-2.3982,-2.4359,-2.4686,-2.5005,-2.5278,-2.5546,-2.5897,-2.617,-2.6295,-2.633,-2.6486,-2.6607,-2.6742,-2.6842,-2.6957,-2.707,-2.7135,-2.7247,-2.7341,-2.7373,-2.7404,-2.7483,-2.7539,-2.76,-2.7647,-2.7748,-2.7806,-2.7789,-2.7922,-2.8025,-2.8109,-2.8335,-2.8528,-2.8692,-2.8846,-2.9035,-2.9255,-2.9388,-2.9512,-2.9682,-2.9771,-2.991,-3.0007,-3.0102,-3.0128,-3.0157,-3.019,-3.0294,-3.0666,-3.0871,-3.159,-3.2282,-3.3376,-3.4334,-3.4719,-3.5155,-3.5663,-3.5903,-3.5892,-3.5891,-3.5883,-3.5899,-3.5904,-3.5997,-3.62,-3.6267,-3.6551,-3.6938,-3.7399,-3.7617,-3.8083,-3.8895,-3.9566,-3.9985,-4.0407,-4.0866,-4.11,-4.11,-4.1111,-4.1153,-4.1545,-4.1896,-4.2089,-4.233,-4.249,-4.2597,-4.2714,-2.6002,-2.6056,-2.6272,-2.6379,-2.6515,-2.6727,-2.6832,-2.6614,-2.555,-2.4405,-2.3526,-2.3363,-2.3363,-2.3407,-2.3363,-2.3378,-2.3363,-2.3363,-2.326,-2.3275,-2.3275,-2.3304,-2.3319,-2.3334,-2.3422,-2.3509,-2.3625,-2.3797,-2.3997,-2.4333,-2.4645,-2.5005,-2.5355,-2.5696,-2.5897,-2.6115,-2.6258,-2.6295,-2.6365,-2.6452,-2.6572,-2.664,-2.6742,-2.6842,-2.6925,-2.7023,-2.7137,-2.7152,-2.7201,-2.7264,-2.7324,-2.7386,-2.7465,-2.7569,-2.76,-2.7612,-2.7719,-2.7893,-2.8081,-2.8318,-2.8539,-2.8685,-2.8834,-2.8989,-2.9197,-2.933,-2.9512,-2.9664,-2.9755,-2.9893,-2.9991,-3.0072,-3.0098,-3.0123,-3.0157,-3.0204,-3.039,-3.0475,-3.0874,-3.1558,-3.2478,-3.3608,-3.4272,-3.4894,-3.5443,-3.5803,-3.5852,-3.5879,-3.5891,-3.5894,-3.5909,-3.5962,-3.6068,-3.6036,-3.6186,-3.6552,-3.6894,-3.7207,-3.7519,-3.8023,-3.8661,-3.9237,-3.9758,-4.0161,-4.0668,-4.1117,-4.11,-4.1081,-4.1052,-4.124,-4.1509,-4.1602,-4.1664,-4.1607,-4.1481,-2.5674,-2.5798,-2.6002,-2.6125,-2.6233,-2.65,-2.6471,-2.5944,-2.5014,-2.4092,-2.3363,-2.3157,-2.3157,-2.3127,-2.3083,-2.3112,-2.3112,-2.3112,-2.3142,-2.3157,-2.3157,-2.3142,-2.3142,-2.3246,-2.329,-2.3422,-2.3538,-2.3711,-2.3997,-2.4276,-2.4686,-2.5123,-2.5454,-2.5642,-2.5844,-2.599,-2.6187,-2.6241,-2.6293,-2.6329,-2.6434,-2.6503,-2.6521,-2.664,-2.6742,-2.6809,-2.6876,-2.6942,-2.7007,-2.7055,-2.7103,-2.7184,-2.7247,-2.7324,-2.7386,-2.743,-2.76,-2.7806,-2.8042,-2.8246,-2.8442,-2.8608,-2.8767,-2.8929,-2.9138,-2.9291,-2.9453,-2.9626,-2.9737,-2.9859,-2.994,-3.0022,-3.0083,-3.0128,-3.0157,-3.019,-3.0237,-3.0322,-3.0393,-3.104,-3.1742,-3.2814,-3.3884,-3.4594,-3.5252,-3.5549,-3.583,-3.5859,-3.5885,-3.5914,-3.5934,-3.5981,-3.6013,-3.6004,-3.6013,-3.6101,-3.6445,-3.6777,-3.7051,-3.7285,-3.777,-3.835,-3.8893,-3.9474,-4.0018,-4.0538,-4.0953,-4.1067,-4.0968,-4.096,-4.1093,-4.1079,-4.0917,-4.0907,-4.0898,-2.5231,-2.5425,-2.5563,-2.5672,-2.5809,-2.5895,-2.5454,-2.4609,-2.4134,-2.3603,-2.3082,-2.2872,-2.2857,-2.2859,-2.2678,-2.2706,-2.2826,-2.2826,-2.2872,-2.2902,-2.2933,-2.2933,-2.2992,-2.3037,-2.3201,-2.3319,-2.3451,-2.3668,-2.3982,-2.4317,-2.4766,-2.5162,-2.5448,-2.5621,-2.577,-2.5864,-2.6026,-2.6151,-2.6239,-2.6258,-2.6329,-2.6312,-2.6399,-2.6503,-2.6589,-2.664,-2.6725,-2.6809,-2.6926,-2.6942,-2.7007,-2.7007,-2.7023,-2.7135,-2.7149,-2.7276,-2.7539,-2.7748,-2.7968,-2.8174,-2.8335,-2.851,-2.8718,-2.8897,-2.9079,-2.927,-2.9414,-2.957,-2.9719,-2.9806,-2.9907,-3.0007,-3.0102,-3.0113,-3.0157,-3.0171,-3.0204,-3.0237,-3.0232,-3.0682,-3.1347,-3.2285,-3.3426,-3.4244,-3.4827,-3.5242,-3.5546,-3.5845,-3.5872,-3.5933,-3.5953,-3.5986,-3.6017,-3.6007,-3.6016,-3.6003,-3.6094,-3.6445,-3.6348,-3.6562,-3.7031,-3.7498,-3.8061,-3.8682,-3.9361,-3.992,-4.0426,-4.073,-4.0844,-4.0875,-4.096,-4.0943,-4.0888,-4.0888,-4.0898,-2.3743,-2.381,-2.401,-2.4169,-2.4152,-2.3956,-2.3823,-2.3789,-2.3636,-2.3296,-2.2752,-2.2661,-2.2646,-2.2692,-2.2601,-2.2615,-2.2615,-2.2661,-2.2721,-2.2766,-2.2826,-2.2872,-2.2917,-2.2947,-2.3112,-2.3231,-2.3407,-2.3581,-2.4024,-2.4374,-2.4726,-2.5084,-2.5333,-2.547,-2.5621,-2.5717,-2.5864,-2.6026,-2.6132,-2.6203,-2.6222,-2.6222,-2.6293,-2.6364,-2.6399,-2.6486,-2.664,-2.6674,-2.6759,-2.6792,-2.6876,-2.6909,-2.6959,-2.7007,-2.7087,-2.723,-2.7478,-2.7689,-2.7876,-2.8128,-2.8317,-2.8448,-2.8658,-2.8874,-2.9056,-2.9228,-2.9373,-2.9531,-2.9682,-2.9771,-2.9874,-2.9975,-3.0038,-3.0083,-3.0128,-3.0157,-3.0171,-3.0185,-3.0185,-3.0393,-3.1047,-3.166,-3.2802,-3.368,-3.4254,-3.4788,-3.5221,-3.5543,-3.5827,-3.5864,-3.5948,-3.5981,-3.6013,-3.6007,-3.601,-3.6016,-3.6005,-3.6055,-3.6032,-3.6052,-3.6424,-3.6894,-3.7304,-3.7865,-3.8559,-3.9286,-3.9969,-4.0212,-4.0448,-4.0828,-4.0932,-4.0906,-4.0888,-4.0888,-4.0898,-2.2791,-2.2897,-2.3056,-2.3092,-2.2937,-2.282,-2.2791,-2.2774,-2.2923,-2.2743,-2.2445,-2.237,-2.237,-2.2324,-2.2278,-2.2324,-2.2431,-2.2431,-2.2523,-2.2675,-2.2749,-2.2841,-2.2872,-2.2902,-2.3068,-2.3187,-2.3348,-2.3538,-2.3921,-2.4343,-2.4686,-2.4926,-2.5162,-2.5262,-2.5432,-2.5546,-2.5733,-2.5844,-2.6007,-2.6132,-2.6168,-2.6203,-2.6222,-2.6258,-2.6277,-2.6417,-2.6554,-2.6589,-2.664,-2.6708,-2.6792,-2.6825,-2.6842,-2.6942,-2.7055,-2.723,-2.7417,-2.763,-2.7818,-2.8045,-2.8237,-2.8422,-2.8601,-2.8797,-2.9003,-2.9181,-2.933,-2.9491,-2.9626,-2.9755,-2.9823,-2.9926,-2.9991,-3.0072,-3.0083,-3.0109,-3.0123,-3.0152,-3.0204,-3.027,-3.0682,-3.1168,-3.1985,-3.2902,-3.3594,-3.4013,-3.4496,-3.4994,-3.5398,-3.5696,-3.5821,-3.5934,-3.599,-3.602,-3.6007,-3.601,-3.6018,-3.6003,-3.6023,-3.6064,-3.6124,-3.6342,-3.6796,-3.7262,-3.777,-3.8459,-3.9145,-3.968,-4.002,-4.0392,-4.0777,-4.0887,-4.0897,-4.0888,-4.0898,-2.215,-2.2379,-2.2432,-2.2219,-2.2076,-2.2274,-2.2087,-2.1643,-2.2005,-2.2137,-2.2123,-2.2044,-2.1996,-2.1996,-2.1902,-2.1996,-2.2091,-2.2184,-2.2324,-2.2569,-2.2629,-2.2689,-2.2826,-2.2857,-2.2921,-2.3113,-2.32,-2.3137,-2.351,-2.3779,-2.4011,-2.461,-2.4626,-2.4623,-2.4659,-2.4896,-2.5077,-2.5403,-2.5582,-2.5776,-2.6082,-2.6168,-2.6203,-2.6203,-2.6258,-2.6347,-2.6485,-2.6554,-2.6623,-2.6674,-2.6691,-2.6691,-2.6775,-2.6859,-2.7055,-2.7215,-2.7373,-2.7539,-2.7777,-2.7979,-2.8191,-2.8353,-2.851,-2.8694,-2.891,-2.9089,-2.9243,-2.9431,-2.9551,-2.9682,-2.9773,-2.9859,-2.9926,-2.9991,-3.0003,-3.0064,-3.0113,-3.0128,-3.0157,-3.0223,-3.0355,-3.0842,-3.1232,-3.2112,-3.2673,-3.3112,-3.3713,-3.4309,-3.4637,-3.5081,-3.5499,-3.5714,-3.5923,-3.5974,-3.602,-3.6007,-3.601,-3.6013,-3.6013,-3.6016,-3.6057,-3.6179,-3.6319,-3.6699,-3.707,-3.7597,-3.8205,-3.8681,-3.926,-3.9914,-4.031,-4.074,-4.0867,-4.083,-4.0898,-2.0695,-2.0785,-2.0888,-2.0987,-2.112,-2.1219,-2.1229,-2.1131,-2.1215,-2.1506,-2.1793,-2.1759,-2.1712,-2.165,-2.165,-2.1698,-2.1759,-2.1902,-2.2044,-2.2231,-2.2338,-2.2537,-2.2721,-2.2694,-2.2672,-2.2513,-2.2494,-2.2515,-2.2591,-2.272,-2.2863,-2.2995,-2.328,-2.3563,-2.3575,-2.3829,-2.4172,-2.4652,-2.4847,-2.5255,-2.5727,-2.5997,-2.6063,-2.6168,-2.6239,-2.6329,-2.6415,-2.652,-2.6589,-2.6674,-2.6708,-2.6708,-2.6708,-2.6842,-2.6942,-2.7072,-2.7279,-2.7496,-2.7659,-2.7893,-2.8136,-2.83,-2.8484,-2.8662,-2.881,-2.8994,-2.9152,-2.931,-2.9453,-2.9589,-2.9701,-2.9773,-2.9841,-2.9891,-2.994,-3.0022,-3.0087,-3.0098,-3.0109,-3.0152,-3.0194,-3.0439,-3.0791,-3.1179,-3.1703,-3.2327,-3.3016,-3.3516,-3.3604,-3.3965,-3.4801,-3.5154,-3.5753,-3.5884,-3.5955,-3.602,-3.6004,-3.6007,-3.601,-3.601,-3.601,-3.6094,-3.6179,-3.6132,-3.6389,-3.6898,-3.7288,-3.7525,-3.8163,-3.8992,-3.9657,-4.001,-4.0498,-4.0597,-4.0771,-1.9875,-1.9965,-2.0182,-2.0271,-2.0472,-2.0573,-2.0673,-2.0723,-2.0772,-2.0957,-2.1251,-2.1313,-2.1313,-2.1313,-2.1313,-2.1375,-2.1423,-2.1554,-2.1746,-2.1902,-2.2137,-2.2324,-2.2434,-2.2431,-2.2308,-2.2105,-2.1993,-2.1887,-2.1723,-2.197,-2.2171,-2.2141,-2.2399,-2.2565,-2.2629,-2.2848,-2.3175,-2.3763,-2.3871,-2.4376,-2.5092,-2.5458,-2.5944,-2.6115,-2.6187,-2.6241,-2.6364,-2.6468,-2.6537,-2.6657,-2.6674,-2.6708,-2.6742,-2.6825,-2.6926,-2.704,-2.7215,-2.7404,-2.76,-2.7806,-2.8053,-2.8246,-2.8406,-2.8562,-2.8687,-2.8876,-2.9044,-2.9203,-2.9332,-2.9454,-2.9589,-2.9664,-2.9736,-2.9806,-2.9874,-2.9959,-3.0022,-3.0083,-3.0094,-3.0123,-3.0185,-3.0278,-3.0554,-3.0655,-3.111,-3.1321,-3.2048,-3.2587,-3.2703,-3.2895,-3.3731,-3.4422,-3.49,-3.5617,-3.5919,-3.599,-3.6013,-3.6017,-3.5946,-3.6007,-3.601,-3.6013,-3.6023,-3.6035,-3.6083,-3.6238,-3.6567,-3.6854,-3.7209,-3.7987,-3.8626,-3.9194,-3.9721,-4.0189,-4.0247,-1.9473,-1.9617,-1.9836,-1.9926,-1.999,-2.022,-2.0321,-2.0372,-2.0472,-2.056,-2.0623,-2.0835,-2.0898,-2.0934,-2.0934,-2.1033,-2.1131,-2.1202,-2.141,-2.165,-2.1888,-2.1983,-2.1942,-2.1882,-2.17,-2.1438,-2.119,-2.1198,-2.1132,-2.1287,-2.1379,-2.1697,-2.1865,-2.1996,-2.2152,-2.2321,-2.2544,-2.2802,-2.3019,-2.3259,-2.3983,-2.4863,-2.5412,-2.5746,-2.5983,-2.6123,-2.6227,-2.6382,-2.652,-2.6606,-2.6674,-2.6708,-2.6742,-2.6792,-2.6876,-2.7007,-2.7103,-2.7293,-2.7509,-2.7672,-2.7922,-2.8136,-2.8273,-2.8414,-2.8525,-2.8718,-2.891,-2.9048,-2.9166,-2.9314,-2.9453,-2.9551,-2.9626,-2.9718,-2.9825,-2.991,-2.9975,-3.0053,-3.0083,-3.0113,-3.0171,-3.0213,-3.0299,-3.0381,-3.051,-3.0702,-3.0984,-3.1407,-3.1814,-3.2084,-3.261,-3.3198,-3.3682,-3.4472,-3.5286,-3.5646,-3.5576,-3.5736,-3.5685,-3.5868,-3.6007,-3.601,-3.6021,-3.6015,-3.607,-3.6108,-3.6224,-3.6499,-3.6857,-3.7209,-3.77,-3.8366,-3.8885,-3.9295,-3.9451,-1.942,-1.9473,-1.9473,-1.9577,-1.9668,-1.9862,-1.9965,-2.008,-2.0233,-2.0271,-2.0271,-2.0334,-2.0385,-2.0536,-2.0536,-2.0636,-2.0772,-2.0858,-2.1153,-2.1458,-2.1459,-2.1495,-2.1405,-2.1205,-2.0955,-2.0532,-2.0079,-1.9801,-2.0212,-2.0169,-2.0102,-2.0287,-2.033,-2.0491,-2.0747,-2.0973,-2.1327,-2.1729,-2.2157,-2.2375,-2.2994,-2.3751,-2.4354,-2.4769,-2.5135,-2.562,-2.6005,-2.626,-2.6417,-2.6555,-2.664,-2.6674,-2.6708,-2.6708,-2.6741,-2.6721,-2.6835,-2.6891,-2.7043,-2.7215,-2.7384,-2.7639,-2.7851,-2.8192,-2.8358,-2.8576,-2.8749,-2.8881,-2.9048,-2.9185,-2.933,-2.9431,-2.9492,-2.9645,-2.9737,-2.9842,-2.9907,-3.0007,-3.0068,-3.0113,-3.0157,-3.0213,-3.0299,-3.0362,-3.0433,-3.0586,-3.0656,-3.1028,-3.1083,-3.1324,-3.1625,-3.2052,-3.2556,-3.3025,-3.3726,-3.4681,-3.49,-3.5143,-3.5405,-3.5568,-3.575,-3.5991,-3.6003,-3.6014,-3.6012,-3.6033,-3.6173,-3.6255,-3.6493,-3.6826,-3.7046,-3.7518,-3.8011,-3.8402,-3.8576]}]]